<?xml version="1.0" encoding="UTF-8" standalone="no" ?>
<gpx xmlns="http://www.topografix.com/GPX/1/1" xmlns:xsi="http://www.w3.org/2001/XMLSchema-instance" xsi:schemaLocation="http://www.topografix.com/GPX/1/1 http://www.topografix.com/GPX/1/1/gpx.xsd" version="1.1" creator="VisuGPX - https://www.visugpx.com">
  <metadata>
    <name>BMLD 2020 Deuxième partie</name>
    <desc><![CDATA[Deuxième partie du "Brevet  du Randonneur Longue Distance" (200 km)  organisé à Chantonnay (Vendée) du 21 au 24 mai 2020 par l'association R4JCV.
]]></desc>
  </metadata>
  <trk>
    <name><![CDATA[10863054-BMLD20 Clisson Mallièvre]]></name>
    <trkseg>
      <trkpt lat="47.08605" lon="-1.28235">
        <ele>38</ele>
        <time>2020-03-15T09:50:00Z</time>
      </trkpt>
      <trkpt lat="47.08667" lon="-1.2823">
        <ele>39</ele>
        <time>2020-03-15T09:51:23Z</time>
      </trkpt>
      <trkpt lat="47.08702" lon="-1.28231">
        <ele>38</ele>
        <time>2020-03-15T09:52:10Z</time>
      </trkpt>
      <trkpt lat="47.08707" lon="-1.28191">
        <ele>37</ele>
        <time>2020-03-15T09:52:47Z</time>
      </trkpt>
      <trkpt lat="47.08707" lon="-1.2819">
        <ele>37</ele>
        <time>2020-03-15T09:52:47Z</time>
      </trkpt>
      <trkpt lat="47.08689" lon="-1.28177">
        <ele>37</ele>
        <time>2020-03-15T09:53:14Z</time>
      </trkpt>
      <trkpt lat="47.08689" lon="-1.28178">
        <ele>37</ele>
        <time>2020-03-15T09:53:15Z</time>
      </trkpt>
      <trkpt lat="47.08689" lon="-1.28179">
        <ele>37</ele>
        <time>2020-03-15T09:53:16Z</time>
      </trkpt>
      <trkpt lat="47.08687" lon="-1.28179">
        <ele>37</ele>
        <time>2020-03-15T09:53:19Z</time>
      </trkpt>
      <trkpt lat="47.08688" lon="-1.28147">
        <ele>35</ele>
        <time>2020-03-15T09:53:48Z</time>
      </trkpt>
      <trkpt lat="47.08686" lon="-1.28139">
        <ele>34</ele>
        <time>2020-03-15T09:53:56Z</time>
      </trkpt>
      <trkpt lat="47.087" lon="-1.28083">
        <ele>27</ele>
        <time>2020-03-15T09:54:50Z</time>
      </trkpt>
      <trkpt lat="47.08698" lon="-1.28082">
        <ele>27</ele>
        <time>2020-03-15T09:54:53Z</time>
      </trkpt>
      <trkpt lat="47.08695" lon="-1.28064">
        <ele>25</ele>
        <time>2020-03-15T09:55:09Z</time>
      </trkpt>
      <trkpt lat="47.08695" lon="-1.28063">
        <ele>25</ele>
        <time>2020-03-15T09:55:10Z</time>
      </trkpt>
      <trkpt lat="47.08682" lon="-1.2804">
        <ele>24</ele>
        <time>2020-03-15T09:55:37Z</time>
      </trkpt>
      <trkpt lat="47.0868" lon="-1.28034">
        <ele>23</ele>
        <time>2020-03-15T09:55:44Z</time>
      </trkpt>
      <trkpt lat="47.08681" lon="-1.28024">
        <ele>22</ele>
        <time>2020-03-15T09:55:53Z</time>
      </trkpt>
      <trkpt lat="47.08685" lon="-1.28013">
        <ele>20</ele>
        <time>2020-03-15T09:56:04Z</time>
      </trkpt>
      <trkpt lat="47.08658" lon="-1.27992">
        <ele>20</ele>
        <time>2020-03-15T09:56:45Z</time>
      </trkpt>
      <trkpt lat="47.08571" lon="-1.27953">
        <ele>25</ele>
        <time>2020-03-15T09:58:46Z</time>
      </trkpt>
      <trkpt lat="47.0857" lon="-1.27941">
        <ele>25</ele>
        <time>2020-03-15T09:58:57Z</time>
      </trkpt>
      <trkpt lat="47.08568" lon="-1.27938">
        <ele>25</ele>
        <time>2020-03-15T09:59:01Z</time>
      </trkpt>
      <trkpt lat="47.08563" lon="-1.27934">
        <ele>25</ele>
        <time>2020-03-15T09:59:09Z</time>
      </trkpt>
      <trkpt lat="47.08554" lon="-1.27933">
        <ele>26</ele>
        <time>2020-03-15T09:59:21Z</time>
      </trkpt>
      <trkpt lat="47.0856" lon="-1.27904">
        <ele>25</ele>
        <time>2020-03-15T09:59:48Z</time>
      </trkpt>
      <trkpt lat="47.08563" lon="-1.27873">
        <ele>23</ele>
        <time>2020-03-15T10:00:17Z</time>
      </trkpt>
      <trkpt lat="47.0856" lon="-1.27864">
        <ele>23</ele>
        <time>2020-03-15T10:00:26Z</time>
      </trkpt>
      <trkpt lat="47.08546" lon="-1.27832">
        <ele>23</ele>
        <time>2020-03-15T10:01:00Z</time>
      </trkpt>
      <trkpt lat="47.08533" lon="-1.27825">
        <ele>24</ele>
        <time>2020-03-15T10:01:19Z</time>
      </trkpt>
      <trkpt lat="47.08515" lon="-1.278">
        <ele>24</ele>
        <time>2020-03-15T10:01:52Z</time>
      </trkpt>
      <trkpt lat="47.08487" lon="-1.2777">
        <ele>23</ele>
        <time>2020-03-15T10:02:38Z</time>
      </trkpt>
      <trkpt lat="47.08471" lon="-1.2776">
        <ele>23</ele>
        <time>2020-03-15T10:03:01Z</time>
      </trkpt>
      <trkpt lat="47.08415" lon="-1.27688">
        <ele>21</ele>
        <time>2020-03-15T10:04:41Z</time>
      </trkpt>
      <trkpt lat="47.08347" lon="-1.27638">
        <ele>22</ele>
        <time>2020-03-15T10:06:22Z</time>
      </trkpt>
      <trkpt lat="47.08336" lon="-1.27638">
        <ele>22</ele>
        <time>2020-03-15T10:06:37Z</time>
      </trkpt>
      <trkpt lat="47.08306" lon="-1.27625">
        <ele>22</ele>
        <time>2020-03-15T10:07:19Z</time>
      </trkpt>
      <trkpt lat="47.08286" lon="-1.276">
        <ele>21</ele>
        <time>2020-03-15T10:07:54Z</time>
      </trkpt>
      <trkpt lat="47.08269" lon="-1.27586">
        <ele>20</ele>
        <time>2020-03-15T10:08:20Z</time>
      </trkpt>
      <trkpt lat="47.08265" lon="-1.27579">
        <ele>20</ele>
        <time>2020-03-15T10:08:28Z</time>
      </trkpt>
      <trkpt lat="47.08262" lon="-1.27569">
        <ele>20</ele>
        <time>2020-03-15T10:08:38Z</time>
      </trkpt>
      <trkpt lat="47.0826" lon="-1.27539">
        <ele>19</ele>
        <time>2020-03-15T10:09:05Z</time>
      </trkpt>
      <trkpt lat="47.08264" lon="-1.27511">
        <ele>18</ele>
        <time>2020-03-15T10:09:31Z</time>
      </trkpt>
      <trkpt lat="47.08272" lon="-1.27481">
        <ele>18</ele>
        <time>2020-03-15T10:10:00Z</time>
      </trkpt>
      <trkpt lat="47.08299" lon="-1.27409">
        <ele>18</ele>
        <time>2020-03-15T10:11:15Z</time>
      </trkpt>
      <trkpt lat="47.08299" lon="-1.27397">
        <ele>19</ele>
        <time>2020-03-15T10:11:26Z</time>
      </trkpt>
      <trkpt lat="47.08288" lon="-1.27361">
        <ele>21</ele>
        <time>2020-03-15T10:12:02Z</time>
      </trkpt>
      <trkpt lat="47.08284" lon="-1.27354">
        <ele>21</ele>
        <time>2020-03-15T10:12:10Z</time>
      </trkpt>
      <trkpt lat="47.08286" lon="-1.27352">
        <ele>21</ele>
        <time>2020-03-15T10:12:13Z</time>
      </trkpt>
      <trkpt lat="47.08282" lon="-1.2726">
        <ele>25</ele>
        <time>2020-03-15T10:13:37Z</time>
      </trkpt>
      <trkpt lat="47.08281" lon="-1.2726">
        <ele>25</ele>
        <time>2020-03-15T10:13:39Z</time>
      </trkpt>
      <trkpt lat="47.08286" lon="-1.27234">
        <ele>25</ele>
        <time>2020-03-15T10:14:03Z</time>
      </trkpt>
      <trkpt lat="47.08294" lon="-1.27182">
        <ele>26</ele>
        <time>2020-03-15T10:14:52Z</time>
      </trkpt>
      <trkpt lat="47.08299" lon="-1.27161">
        <ele>26</ele>
        <time>2020-03-15T10:15:12Z</time>
      </trkpt>
      <trkpt lat="47.08316" lon="-1.2712">
        <ele>25</ele>
        <time>2020-03-15T10:15:55Z</time>
      </trkpt>
      <trkpt lat="47.08331" lon="-1.27095">
        <ele>24</ele>
        <time>2020-03-15T10:16:26Z</time>
      </trkpt>
      <trkpt lat="47.08342" lon="-1.27086">
        <ele>23</ele>
        <time>2020-03-15T10:16:42Z</time>
      </trkpt>
      <trkpt lat="47.08353" lon="-1.27081">
        <ele>23</ele>
        <time>2020-03-15T10:16:58Z</time>
      </trkpt>
      <trkpt lat="47.08368" lon="-1.27063">
        <ele>22</ele>
        <time>2020-03-15T10:17:24Z</time>
      </trkpt>
      <trkpt lat="47.08376" lon="-1.27049">
        <ele>22</ele>
        <time>2020-03-15T10:17:40Z</time>
      </trkpt>
      <trkpt lat="47.08379" lon="-1.27029">
        <ele>23</ele>
        <time>2020-03-15T10:17:59Z</time>
      </trkpt>
      <trkpt lat="47.08388" lon="-1.27005">
        <ele>23</ele>
        <time>2020-03-15T10:18:24Z</time>
      </trkpt>
      <trkpt lat="47.08393" lon="-1.26997">
        <ele>23</ele>
        <time>2020-03-15T10:18:34Z</time>
      </trkpt>
      <trkpt lat="47.08425" lon="-1.26955">
        <ele>21</ele>
        <time>2020-03-15T10:19:31Z</time>
      </trkpt>
      <trkpt lat="47.08424" lon="-1.26948">
        <ele>21</ele>
        <time>2020-03-15T10:19:37Z</time>
      </trkpt>
      <trkpt lat="47.08428" lon="-1.26945">
        <ele>21</ele>
        <time>2020-03-15T10:19:43Z</time>
      </trkpt>
      <trkpt lat="47.08454" lon="-1.2694">
        <ele>20</ele>
        <time>2020-03-15T10:20:18Z</time>
      </trkpt>
      <trkpt lat="47.08457" lon="-1.26936">
        <ele>20</ele>
        <time>2020-03-15T10:20:24Z</time>
      </trkpt>
      <trkpt lat="47.08458" lon="-1.26929">
        <ele>20</ele>
        <time>2020-03-15T10:20:30Z</time>
      </trkpt>
      <trkpt lat="47.08455" lon="-1.26893">
        <ele>21</ele>
        <time>2020-03-15T10:21:03Z</time>
      </trkpt>
      <trkpt lat="47.0845" lon="-1.26862">
        <ele>23</ele>
        <time>2020-03-15T10:21:32Z</time>
      </trkpt>
      <trkpt lat="47.0842" lon="-1.26796">
        <ele>25</ele>
        <time>2020-03-15T10:22:44Z</time>
      </trkpt>
      <trkpt lat="47.08394" lon="-1.2676">
        <ele>26</ele>
        <time>2020-03-15T10:23:32Z</time>
      </trkpt>
      <trkpt lat="47.08356" lon="-1.2672">
        <ele>27</ele>
        <time>2020-03-15T10:24:34Z</time>
      </trkpt>
      <trkpt lat="47.08329" lon="-1.26668">
        <ele>24</ele>
        <time>2020-03-15T10:25:34Z</time>
      </trkpt>
      <trkpt lat="47.08321" lon="-1.26656">
        <ele>24</ele>
        <time>2020-03-15T10:25:49Z</time>
      </trkpt>
      <trkpt lat="47.08296" lon="-1.26612">
        <ele>23</ele>
        <time>2020-03-15T10:26:41Z</time>
      </trkpt>
      <trkpt lat="47.08298" lon="-1.26609">
        <ele>23</ele>
        <time>2020-03-15T10:26:45Z</time>
      </trkpt>
      <trkpt lat="47.08326" lon="-1.2657">
        <ele>21</ele>
        <time>2020-03-15T10:27:36Z</time>
      </trkpt>
      <trkpt lat="47.08329" lon="-1.26566">
        <ele>22</ele>
        <time>2020-03-15T10:27:42Z</time>
      </trkpt>
      <trkpt lat="47.0833" lon="-1.26564">
        <ele>22</ele>
        <time>2020-03-15T10:27:44Z</time>
      </trkpt>
      <trkpt lat="47.0831" lon="-1.26535">
        <ele>24</ele>
        <time>2020-03-15T10:28:22Z</time>
      </trkpt>
      <trkpt lat="47.08311" lon="-1.26534">
        <ele>24</ele>
        <time>2020-03-15T10:28:23Z</time>
      </trkpt>
      <trkpt lat="47.08284" lon="-1.2648">
        <ele>24</ele>
        <time>2020-03-15T10:29:24Z</time>
      </trkpt>
      <trkpt lat="47.08284" lon="-1.2648">
        <ele>24</ele>
        <time>2020-03-15T10:29:24Z</time>
      </trkpt>
      <trkpt lat="47.08267" lon="-1.26458">
        <ele>23</ele>
        <time>2020-03-15T10:29:54Z</time>
      </trkpt>
      <trkpt lat="47.08266" lon="-1.26458">
        <ele>23</ele>
        <time>2020-03-15T10:29:56Z</time>
      </trkpt>
      <trkpt lat="47.0825" lon="-1.26442">
        <ele>22</ele>
        <time>2020-03-15T10:30:22Z</time>
      </trkpt>
      <trkpt lat="47.08235" lon="-1.26433">
        <ele>23</ele>
        <time>2020-03-15T10:30:43Z</time>
      </trkpt>
      <trkpt lat="47.08213" lon="-1.26427">
        <ele>23</ele>
        <time>2020-03-15T10:31:13Z</time>
      </trkpt>
      <trkpt lat="47.08203" lon="-1.26421">
        <ele>22</ele>
        <time>2020-03-15T10:31:27Z</time>
      </trkpt>
      <trkpt lat="47.08193" lon="-1.26404">
        <ele>24</ele>
        <time>2020-03-15T10:31:48Z</time>
      </trkpt>
      <trkpt lat="47.08172" lon="-1.26389">
        <ele>24</ele>
        <time>2020-03-15T10:32:19Z</time>
      </trkpt>
      <trkpt lat="47.08148" lon="-1.26365">
        <ele>26</ele>
        <time>2020-03-15T10:32:58Z</time>
      </trkpt>
      <trkpt lat="47.08107" lon="-1.26334">
        <ele>25</ele>
        <time>2020-03-15T10:33:59Z</time>
      </trkpt>
      <trkpt lat="47.08089" lon="-1.26311">
        <ele>26</ele>
        <time>2020-03-15T10:34:31Z</time>
      </trkpt>
      <trkpt lat="47.08071" lon="-1.26284">
        <ele>26</ele>
        <time>2020-03-15T10:35:05Z</time>
      </trkpt>
      <trkpt lat="47.08058" lon="-1.26274">
        <ele>26</ele>
        <time>2020-03-15T10:35:25Z</time>
      </trkpt>
      <trkpt lat="47.08031" lon="-1.26257">
        <ele>25</ele>
        <time>2020-03-15T10:36:04Z</time>
      </trkpt>
      <trkpt lat="47.08007" lon="-1.26226">
        <ele>24</ele>
        <time>2020-03-15T10:36:47Z</time>
      </trkpt>
      <trkpt lat="47.07954" lon="-1.26144">
        <ele>27</ele>
        <time>2020-03-15T10:38:30Z</time>
      </trkpt>
      <trkpt lat="47.07962" lon="-1.26134">
        <ele>27</ele>
        <time>2020-03-15T10:38:44Z</time>
      </trkpt>
      <trkpt lat="47.07963" lon="-1.2613">
        <ele>28</ele>
        <time>2020-03-15T10:38:48Z</time>
      </trkpt>
      <trkpt lat="47.07965" lon="-1.26101">
        <ele>29</ele>
        <time>2020-03-15T10:39:14Z</time>
      </trkpt>
      <trkpt lat="47.07964" lon="-1.26071">
        <ele>29</ele>
        <time>2020-03-15T10:39:41Z</time>
      </trkpt>
      <trkpt lat="47.07967" lon="-1.26063">
        <ele>30</ele>
        <time>2020-03-15T10:39:50Z</time>
      </trkpt>
      <trkpt lat="47.07967" lon="-1.26062">
        <ele>30</ele>
        <time>2020-03-15T10:39:51Z</time>
      </trkpt>
      <trkpt lat="47.07962" lon="-1.26048">
        <ele>29</ele>
        <time>2020-03-15T10:40:05Z</time>
      </trkpt>
      <trkpt lat="47.07962" lon="-1.26048">
        <ele>29</ele>
        <time>2020-03-15T10:40:05Z</time>
      </trkpt>
      <trkpt lat="47.07961" lon="-1.26034">
        <ele>30</ele>
        <time>2020-03-15T10:40:18Z</time>
      </trkpt>
      <trkpt lat="47.07961" lon="-1.26034">
        <ele>30</ele>
        <time>2020-03-15T10:40:18Z</time>
      </trkpt>
      <trkpt lat="47.07949" lon="-1.26013">
        <ele>29</ele>
        <time>2020-03-15T10:40:43Z</time>
      </trkpt>
      <trkpt lat="47.07949" lon="-1.26013">
        <ele>29</ele>
        <time>2020-03-15T10:40:43Z</time>
      </trkpt>
      <trkpt lat="47.07941" lon="-1.25982">
        <ele>29</ele>
        <time>2020-03-15T10:41:13Z</time>
      </trkpt>
      <trkpt lat="47.07941" lon="-1.25982">
        <ele>29</ele>
        <time>2020-03-15T10:41:13Z</time>
      </trkpt>
      <trkpt lat="47.07837" lon="-1.25988">
        <ele>27</ele>
        <time>2020-03-15T10:43:32Z</time>
      </trkpt>
      <trkpt lat="47.07837" lon="-1.25988">
        <ele>27</ele>
        <time>2020-03-15T10:43:32Z</time>
      </trkpt>
      <trkpt lat="47.07813" lon="-1.26">
        <ele>26</ele>
        <time>2020-03-15T10:44:06Z</time>
      </trkpt>
      <trkpt lat="47.07813" lon="-1.26002">
        <ele>25</ele>
        <time>2020-03-15T10:44:07Z</time>
      </trkpt>
      <trkpt lat="47.0779" lon="-1.26009">
        <ele>25</ele>
        <time>2020-03-15T10:44:39Z</time>
      </trkpt>
      <trkpt lat="47.07783" lon="-1.26008">
        <ele>24</ele>
        <time>2020-03-15T10:44:48Z</time>
      </trkpt>
      <trkpt lat="47.07773" lon="-1.26001">
        <ele>24</ele>
        <time>2020-03-15T10:45:03Z</time>
      </trkpt>
      <trkpt lat="47.07729" lon="-1.25993">
        <ele>24</ele>
        <time>2020-03-15T10:46:02Z</time>
      </trkpt>
      <trkpt lat="47.07726" lon="-1.2599">
        <ele>24</ele>
        <time>2020-03-15T10:46:07Z</time>
      </trkpt>
      <trkpt lat="47.0772" lon="-1.25964">
        <ele>26</ele>
        <time>2020-03-15T10:46:32Z</time>
      </trkpt>
      <trkpt lat="47.07709" lon="-1.25956">
        <ele>27</ele>
        <time>2020-03-15T10:46:48Z</time>
      </trkpt>
      <trkpt lat="47.07686" lon="-1.25947">
        <ele>27</ele>
        <time>2020-03-15T10:47:20Z</time>
      </trkpt>
      <trkpt lat="47.07659" lon="-1.25923">
        <ele>27</ele>
        <time>2020-03-15T10:48:02Z</time>
      </trkpt>
      <trkpt lat="47.0765" lon="-1.25912">
        <ele>27</ele>
        <time>2020-03-15T10:48:18Z</time>
      </trkpt>
      <trkpt lat="47.07645" lon="-1.25905">
        <ele>27</ele>
        <time>2020-03-15T10:48:27Z</time>
      </trkpt>
      <trkpt lat="47.07607" lon="-1.25826">
        <ele>27</ele>
        <time>2020-03-15T10:49:55Z</time>
      </trkpt>
      <trkpt lat="47.07587" lon="-1.25777">
        <ele>27</ele>
        <time>2020-03-15T10:50:47Z</time>
      </trkpt>
      <trkpt lat="47.0758" lon="-1.25748">
        <ele>28</ele>
        <time>2020-03-15T10:51:15Z</time>
      </trkpt>
      <trkpt lat="47.07578" lon="-1.25715">
        <ele>27</ele>
        <time>2020-03-15T10:51:45Z</time>
      </trkpt>
      <trkpt lat="47.07583" lon="-1.25671">
        <ele>27</ele>
        <time>2020-03-15T10:52:25Z</time>
      </trkpt>
      <trkpt lat="47.07603" lon="-1.25566">
        <ele>31</ele>
        <time>2020-03-15T10:54:04Z</time>
      </trkpt>
      <trkpt lat="47.07596" lon="-1.2554">
        <ele>31</ele>
        <time>2020-03-15T10:54:30Z</time>
      </trkpt>
      <trkpt lat="47.07588" lon="-1.25524">
        <ele>31</ele>
        <time>2020-03-15T10:54:48Z</time>
      </trkpt>
      <trkpt lat="47.07572" lon="-1.25511">
        <ele>31</ele>
        <time>2020-03-15T10:55:12Z</time>
      </trkpt>
      <trkpt lat="47.07564" lon="-1.25499">
        <ele>30</ele>
        <time>2020-03-15T10:55:28Z</time>
      </trkpt>
      <trkpt lat="47.07554" lon="-1.25481">
        <ele>29</ele>
        <time>2020-03-15T10:55:49Z</time>
      </trkpt>
      <trkpt lat="47.07544" lon="-1.25441">
        <ele>29</ele>
        <time>2020-03-15T10:56:27Z</time>
      </trkpt>
      <trkpt lat="47.07533" lon="-1.25383">
        <ele>28</ele>
        <time>2020-03-15T10:57:22Z</time>
      </trkpt>
      <trkpt lat="47.07536" lon="-1.25365">
        <ele>28</ele>
        <time>2020-03-15T10:57:39Z</time>
      </trkpt>
      <trkpt lat="47.07583" lon="-1.25293">
        <ele>28</ele>
        <time>2020-03-15T10:59:10Z</time>
      </trkpt>
      <trkpt lat="47.07568" lon="-1.25273">
        <ele>26</ele>
        <time>2020-03-15T10:59:37Z</time>
      </trkpt>
      <trkpt lat="47.0756" lon="-1.25262">
        <ele>26</ele>
        <time>2020-03-15T10:59:51Z</time>
      </trkpt>
      <trkpt lat="47.0754" lon="-1.25238">
        <ele>25</ele>
        <time>2020-03-15T11:00:26Z</time>
      </trkpt>
      <trkpt lat="47.07536" lon="-1.25233">
        <ele>25</ele>
        <time>2020-03-15T11:00:33Z</time>
      </trkpt>
      <trkpt lat="47.07534" lon="-1.2523">
        <ele>25</ele>
        <time>2020-03-15T11:00:37Z</time>
      </trkpt>
      <trkpt lat="47.07527" lon="-1.25222">
        <ele>25</ele>
        <time>2020-03-15T11:00:48Z</time>
      </trkpt>
      <trkpt lat="47.07525" lon="-1.25219">
        <ele>25</ele>
        <time>2020-03-15T11:00:52Z</time>
      </trkpt>
      <trkpt lat="47.07514" lon="-1.25208">
        <ele>25</ele>
        <time>2020-03-15T11:01:10Z</time>
      </trkpt>
      <trkpt lat="47.0751" lon="-1.25204">
        <ele>25</ele>
        <time>2020-03-15T11:01:16Z</time>
      </trkpt>
      <trkpt lat="47.07502" lon="-1.25195">
        <ele>25</ele>
        <time>2020-03-15T11:01:30Z</time>
      </trkpt>
      <trkpt lat="47.07501" lon="-1.25193">
        <ele>25</ele>
        <time>2020-03-15T11:01:32Z</time>
      </trkpt>
      <trkpt lat="47.07495" lon="-1.25185">
        <ele>25</ele>
        <time>2020-03-15T11:01:43Z</time>
      </trkpt>
      <trkpt lat="47.07485" lon="-1.25191">
        <ele>25</ele>
        <time>2020-03-15T11:01:57Z</time>
      </trkpt>
      <trkpt lat="47.07486" lon="-1.25192">
        <ele>25</ele>
        <time>2020-03-15T11:01:59Z</time>
      </trkpt>
      <trkpt lat="47.07464" lon="-1.25181">
        <ele>25</ele>
        <time>2020-03-15T11:02:30Z</time>
      </trkpt>
      <trkpt lat="47.07464" lon="-1.25181">
        <ele>25</ele>
        <time>2020-03-15T11:02:30Z</time>
      </trkpt>
      <trkpt lat="47.07449" lon="-1.25159">
        <ele>25</ele>
        <time>2020-03-15T11:02:58Z</time>
      </trkpt>
      <trkpt lat="47.07449" lon="-1.25159">
        <ele>25</ele>
        <time>2020-03-15T11:02:58Z</time>
      </trkpt>
      <trkpt lat="47.07438" lon="-1.25136">
        <ele>27</ele>
        <time>2020-03-15T11:03:24Z</time>
      </trkpt>
      <trkpt lat="47.07429" lon="-1.2512">
        <ele>27</ele>
        <time>2020-03-15T11:03:43Z</time>
      </trkpt>
      <trkpt lat="47.07419" lon="-1.25111">
        <ele>28</ele>
        <time>2020-03-15T11:03:58Z</time>
      </trkpt>
      <trkpt lat="47.07407" lon="-1.25105">
        <ele>27</ele>
        <time>2020-03-15T11:04:15Z</time>
      </trkpt>
      <trkpt lat="47.07397" lon="-1.25109">
        <ele>27</ele>
        <time>2020-03-15T11:04:29Z</time>
      </trkpt>
      <trkpt lat="47.07382" lon="-1.25127">
        <ele>25</ele>
        <time>2020-03-15T11:04:55Z</time>
      </trkpt>
      <trkpt lat="47.07375" lon="-1.25139">
        <ele>25</ele>
        <time>2020-03-15T11:05:09Z</time>
      </trkpt>
      <trkpt lat="47.07373" lon="-1.25147">
        <ele>24</ele>
        <time>2020-03-15T11:05:17Z</time>
      </trkpt>
      <trkpt lat="47.07344" lon="-1.25159">
        <ele>23</ele>
        <time>2020-03-15T11:05:57Z</time>
      </trkpt>
      <trkpt lat="47.07345" lon="-1.2516">
        <ele>23</ele>
        <time>2020-03-15T11:05:59Z</time>
      </trkpt>
      <trkpt lat="47.07293" lon="-1.25231">
        <ele>23</ele>
        <time>2020-03-15T11:07:34Z</time>
      </trkpt>
      <trkpt lat="47.07293" lon="-1.25231">
        <ele>23</ele>
        <time>2020-03-15T11:07:34Z</time>
      </trkpt>
      <trkpt lat="47.0725" lon="-1.25253">
        <ele>21</ele>
        <time>2020-03-15T11:08:35Z</time>
      </trkpt>
      <trkpt lat="47.0725" lon="-1.25253">
        <ele>21</ele>
        <time>2020-03-15T11:08:35Z</time>
      </trkpt>
      <trkpt lat="47.07241" lon="-1.25253">
        <ele>21</ele>
        <time>2020-03-15T11:08:47Z</time>
      </trkpt>
      <trkpt lat="47.07241" lon="-1.25253">
        <ele>21</ele>
        <time>2020-03-15T11:08:47Z</time>
      </trkpt>
      <trkpt lat="47.0723" lon="-1.25247">
        <ele>22</ele>
        <time>2020-03-15T11:09:02Z</time>
      </trkpt>
      <trkpt lat="47.0723" lon="-1.25247">
        <ele>22</ele>
        <time>2020-03-15T11:09:02Z</time>
      </trkpt>
      <trkpt lat="47.07213" lon="-1.25228">
        <ele>22</ele>
        <time>2020-03-15T11:09:31Z</time>
      </trkpt>
      <trkpt lat="47.07213" lon="-1.25228">
        <ele>22</ele>
        <time>2020-03-15T11:09:31Z</time>
      </trkpt>
      <trkpt lat="47.072" lon="-1.25199">
        <ele>23</ele>
        <time>2020-03-15T11:10:02Z</time>
      </trkpt>
      <trkpt lat="47.072" lon="-1.25199">
        <ele>23</ele>
        <time>2020-03-15T11:10:02Z</time>
      </trkpt>
      <trkpt lat="47.07193" lon="-1.25153">
        <ele>24</ele>
        <time>2020-03-15T11:10:45Z</time>
      </trkpt>
      <trkpt lat="47.07194" lon="-1.25153">
        <ele>24</ele>
        <time>2020-03-15T11:10:47Z</time>
      </trkpt>
      <trkpt lat="47.07188" lon="-1.25134">
        <ele>24</ele>
        <time>2020-03-15T11:11:06Z</time>
      </trkpt>
      <trkpt lat="47.07178" lon="-1.25106">
        <ele>24</ele>
        <time>2020-03-15T11:11:34Z</time>
      </trkpt>
      <trkpt lat="47.07171" lon="-1.25099">
        <ele>24</ele>
        <time>2020-03-15T11:11:46Z</time>
      </trkpt>
      <trkpt lat="47.07171" lon="-1.25099">
        <ele>24</ele>
        <time>2020-03-15T11:11:46Z</time>
      </trkpt>
      <trkpt lat="47.07039" lon="-1.25002">
        <ele>25</ele>
        <time>2020-03-15T11:15:03Z</time>
      </trkpt>
      <trkpt lat="47.07039" lon="-1.25002">
        <ele>25</ele>
        <time>2020-03-15T11:15:03Z</time>
      </trkpt>
      <trkpt lat="47.07022" lon="-1.24983">
        <ele>26</ele>
        <time>2020-03-15T11:15:31Z</time>
      </trkpt>
      <trkpt lat="47.07022" lon="-1.24981">
        <ele>26</ele>
        <time>2020-03-15T11:15:33Z</time>
      </trkpt>
      <trkpt lat="47.07019" lon="-1.2498">
        <ele>26</ele>
        <time>2020-03-15T11:15:37Z</time>
      </trkpt>
      <trkpt lat="47.07" lon="-1.24952">
        <ele>25</ele>
        <time>2020-03-15T11:16:13Z</time>
      </trkpt>
      <trkpt lat="47.06983" lon="-1.24922">
        <ele>24</ele>
        <time>2020-03-15T11:16:49Z</time>
      </trkpt>
      <trkpt lat="47.06978" lon="-1.24906">
        <ele>24</ele>
        <time>2020-03-15T11:17:05Z</time>
      </trkpt>
      <trkpt lat="47.06977" lon="-1.24874">
        <ele>25</ele>
        <time>2020-03-15T11:17:34Z</time>
      </trkpt>
      <trkpt lat="47.06981" lon="-1.24865">
        <ele>25</ele>
        <time>2020-03-15T11:17:43Z</time>
      </trkpt>
      <trkpt lat="47.0699" lon="-1.24858">
        <ele>25</ele>
        <time>2020-03-15T11:17:57Z</time>
      </trkpt>
      <trkpt lat="47.07019" lon="-1.24841">
        <ele>27</ele>
        <time>2020-03-15T11:18:39Z</time>
      </trkpt>
      <trkpt lat="47.07029" lon="-1.24827">
        <ele>28</ele>
        <time>2020-03-15T11:18:57Z</time>
      </trkpt>
      <trkpt lat="47.07033" lon="-1.24814">
        <ele>29</ele>
        <time>2020-03-15T11:19:10Z</time>
      </trkpt>
      <trkpt lat="47.07038" lon="-1.24783">
        <ele>29</ele>
        <time>2020-03-15T11:19:39Z</time>
      </trkpt>
      <trkpt lat="47.07049" lon="-1.24769">
        <ele>30</ele>
        <time>2020-03-15T11:19:58Z</time>
      </trkpt>
      <trkpt lat="47.07063" lon="-1.24747">
        <ele>30</ele>
        <time>2020-03-15T11:20:26Z</time>
      </trkpt>
      <trkpt lat="47.07095" lon="-1.24687">
        <ele>32</ele>
        <time>2020-03-15T11:21:35Z</time>
      </trkpt>
      <trkpt lat="47.07096" lon="-1.2468">
        <ele>32</ele>
        <time>2020-03-15T11:21:42Z</time>
      </trkpt>
      <trkpt lat="47.07079" lon="-1.24659">
        <ele>32</ele>
        <time>2020-03-15T11:22:11Z</time>
      </trkpt>
      <trkpt lat="47.0702" lon="-1.24646">
        <ele>32</ele>
        <time>2020-03-15T11:23:31Z</time>
      </trkpt>
      <trkpt lat="47.0697" lon="-1.24638">
        <ele>30</ele>
        <time>2020-03-15T11:24:38Z</time>
      </trkpt>
      <trkpt lat="47.06952" lon="-1.24631">
        <ele>29</ele>
        <time>2020-03-15T11:25:03Z</time>
      </trkpt>
      <trkpt lat="47.0698" lon="-1.24563">
        <ele>33</ele>
        <time>2020-03-15T11:26:15Z</time>
      </trkpt>
      <trkpt lat="47.07025" lon="-1.24438">
        <ele>37</ele>
        <time>2020-03-15T11:28:24Z</time>
      </trkpt>
      <trkpt lat="47.07035" lon="-1.24415">
        <ele>37</ele>
        <time>2020-03-15T11:28:48Z</time>
      </trkpt>
      <trkpt lat="47.07045" lon="-1.24394">
        <ele>39</ele>
        <time>2020-03-15T11:29:12Z</time>
      </trkpt>
      <trkpt lat="47.07067" lon="-1.24359">
        <ele>40</ele>
        <time>2020-03-15T11:29:55Z</time>
      </trkpt>
      <trkpt lat="47.07092" lon="-1.24281">
        <ele>42</ele>
        <time>2020-03-15T11:31:13Z</time>
      </trkpt>
      <trkpt lat="47.07107" lon="-1.24265">
        <ele>42</ele>
        <time>2020-03-15T11:31:38Z</time>
      </trkpt>
      <trkpt lat="47.07127" lon="-1.24251">
        <ele>41</ele>
        <time>2020-03-15T11:32:08Z</time>
      </trkpt>
      <trkpt lat="47.07128" lon="-1.24252">
        <ele>41</ele>
        <time>2020-03-15T11:32:09Z</time>
      </trkpt>
      <trkpt lat="47.07131" lon="-1.24242">
        <ele>41</ele>
        <time>2020-03-15T11:32:19Z</time>
      </trkpt>
      <trkpt lat="47.07132" lon="-1.2424">
        <ele>41</ele>
        <time>2020-03-15T11:32:21Z</time>
      </trkpt>
      <trkpt lat="47.07073" lon="-1.24135">
        <ele>40</ele>
        <time>2020-03-15T11:34:25Z</time>
      </trkpt>
      <trkpt lat="47.07019" lon="-1.24023">
        <ele>37</ele>
        <time>2020-03-15T11:36:30Z</time>
      </trkpt>
      <trkpt lat="47.07011" lon="-1.24012">
        <ele>37</ele>
        <time>2020-03-15T11:36:44Z</time>
      </trkpt>
      <trkpt lat="47.07011" lon="-1.24012">
        <ele>37</ele>
        <time>2020-03-15T11:36:45Z</time>
      </trkpt>
      <trkpt lat="47.0699" lon="-1.2398">
        <ele>35</ele>
        <time>2020-03-15T11:37:25Z</time>
      </trkpt>
      <trkpt lat="47.0699" lon="-1.2398">
        <ele>35</ele>
        <time>2020-03-15T11:37:25Z</time>
      </trkpt>
      <trkpt lat="47.06972" lon="-1.23913">
        <ele>32</ele>
        <time>2020-03-15T11:38:30Z</time>
      </trkpt>
      <trkpt lat="47.06972" lon="-1.23913">
        <ele>32</ele>
        <time>2020-03-15T11:38:30Z</time>
      </trkpt>
      <trkpt lat="47.06959" lon="-1.23889">
        <ele>32</ele>
        <time>2020-03-15T11:38:58Z</time>
      </trkpt>
      <trkpt lat="47.06959" lon="-1.23889">
        <ele>32</ele>
        <time>2020-03-15T11:38:58Z</time>
      </trkpt>
      <trkpt lat="47.06928" lon="-1.23855">
        <ele>31</ele>
        <time>2020-03-15T11:39:50Z</time>
      </trkpt>
      <trkpt lat="47.06928" lon="-1.23855">
        <ele>31</ele>
        <time>2020-03-15T11:39:50Z</time>
      </trkpt>
      <trkpt lat="47.06904" lon="-1.23799">
        <ele>32</ele>
        <time>2020-03-15T11:40:50Z</time>
      </trkpt>
      <trkpt lat="47.06904" lon="-1.23799">
        <ele>32</ele>
        <time>2020-03-15T11:40:50Z</time>
      </trkpt>
      <trkpt lat="47.06899" lon="-1.23783">
        <ele>33</ele>
        <time>2020-03-15T11:41:06Z</time>
      </trkpt>
      <trkpt lat="47.06864" lon="-1.23708">
        <ele>35</ele>
        <time>2020-03-15T11:42:29Z</time>
      </trkpt>
      <trkpt lat="47.0683" lon="-1.23661">
        <ele>37</ele>
        <time>2020-03-15T11:43:31Z</time>
      </trkpt>
      <trkpt lat="47.06742" lon="-1.2353">
        <ele>31</ele>
        <time>2020-03-15T11:46:18Z</time>
      </trkpt>
      <trkpt lat="47.06696" lon="-1.23465">
        <ele>31</ele>
        <time>2020-03-15T11:47:44Z</time>
      </trkpt>
      <trkpt lat="47.0668" lon="-1.23414">
        <ele>31</ele>
        <time>2020-03-15T11:48:35Z</time>
      </trkpt>
      <trkpt lat="47.06681" lon="-1.23413">
        <ele>31</ele>
        <time>2020-03-15T11:48:36Z</time>
      </trkpt>
      <trkpt lat="47.06663" lon="-1.2331">
        <ele>31</ele>
        <time>2020-03-15T11:50:13Z</time>
      </trkpt>
      <trkpt lat="47.06663" lon="-1.2331">
        <ele>31</ele>
        <time>2020-03-15T11:50:13Z</time>
      </trkpt>
      <trkpt lat="47.06657" lon="-1.23272">
        <ele>32</ele>
        <time>2020-03-15T11:50:48Z</time>
      </trkpt>
      <trkpt lat="47.06657" lon="-1.23272">
        <ele>32</ele>
        <time>2020-03-15T11:50:48Z</time>
      </trkpt>
      <trkpt lat="47.06624" lon="-1.23187">
        <ele>33</ele>
        <time>2020-03-15T11:52:17Z</time>
      </trkpt>
      <trkpt lat="47.06624" lon="-1.23187">
        <ele>33</ele>
        <time>2020-03-15T11:52:17Z</time>
      </trkpt>
      <trkpt lat="47.06624" lon="-1.23128">
        <ele>33</ele>
        <time>2020-03-15T11:53:11Z</time>
      </trkpt>
      <trkpt lat="47.06625" lon="-1.23128">
        <ele>33</ele>
        <time>2020-03-15T11:53:12Z</time>
      </trkpt>
      <trkpt lat="47.06604" lon="-1.23028">
        <ele>37</ele>
        <time>2020-03-15T11:54:47Z</time>
      </trkpt>
      <trkpt lat="47.066" lon="-1.22994">
        <ele>39</ele>
        <time>2020-03-15T11:55:19Z</time>
      </trkpt>
      <trkpt lat="47.06593" lon="-1.22995">
        <ele>39</ele>
        <time>2020-03-15T11:55:28Z</time>
      </trkpt>
      <trkpt lat="47.06581" lon="-1.23004">
        <ele>39</ele>
        <time>2020-03-15T11:55:46Z</time>
      </trkpt>
      <trkpt lat="47.06573" lon="-1.23017">
        <ele>38</ele>
        <time>2020-03-15T11:56:02Z</time>
      </trkpt>
      <trkpt lat="47.06553" lon="-1.23035">
        <ele>37</ele>
        <time>2020-03-15T11:56:33Z</time>
      </trkpt>
      <trkpt lat="47.06536" lon="-1.23046">
        <ele>36</ele>
        <time>2020-03-15T11:56:58Z</time>
      </trkpt>
      <trkpt lat="47.06516" lon="-1.2305">
        <ele>35</ele>
        <time>2020-03-15T11:57:25Z</time>
      </trkpt>
      <trkpt lat="47.06493" lon="-1.2304">
        <ele>36</ele>
        <time>2020-03-15T11:57:57Z</time>
      </trkpt>
      <trkpt lat="47.06494" lon="-1.23039">
        <ele>36</ele>
        <time>2020-03-15T11:57:59Z</time>
      </trkpt>
      <trkpt lat="47.06473" lon="-1.23025">
        <ele>37</ele>
        <time>2020-03-15T11:58:29Z</time>
      </trkpt>
      <trkpt lat="47.06473" lon="-1.23025">
        <ele>37</ele>
        <time>2020-03-15T11:58:29Z</time>
      </trkpt>
      <trkpt lat="47.06445" lon="-1.23016">
        <ele>36</ele>
        <time>2020-03-15T11:59:08Z</time>
      </trkpt>
      <trkpt lat="47.06445" lon="-1.23016">
        <ele>36</ele>
        <time>2020-03-15T11:59:08Z</time>
      </trkpt>
      <trkpt lat="47.06423" lon="-1.23003">
        <ele>35</ele>
        <time>2020-03-15T11:59:39Z</time>
      </trkpt>
      <trkpt lat="47.06423" lon="-1.23003">
        <ele>35</ele>
        <time>2020-03-15T11:59:39Z</time>
      </trkpt>
      <trkpt lat="47.06386" lon="-1.22934">
        <ele>37</ele>
        <time>2020-03-15T12:00:59Z</time>
      </trkpt>
      <trkpt lat="47.06386" lon="-1.22934">
        <ele>37</ele>
        <time>2020-03-15T12:00:59Z</time>
      </trkpt>
      <trkpt lat="47.06281" lon="-1.22813">
        <ele>33</ele>
        <time>2020-03-15T12:03:57Z</time>
      </trkpt>
      <trkpt lat="47.06281" lon="-1.22813">
        <ele>33</ele>
        <time>2020-03-15T12:03:57Z</time>
      </trkpt>
      <trkpt lat="47.06226" lon="-1.22705">
        <ele>35</ele>
        <time>2020-03-15T12:06:00Z</time>
      </trkpt>
      <trkpt lat="47.06226" lon="-1.22705">
        <ele>35</ele>
        <time>2020-03-15T12:06:00Z</time>
      </trkpt>
      <trkpt lat="47.0622" lon="-1.2268">
        <ele>35</ele>
        <time>2020-03-15T12:06:24Z</time>
      </trkpt>
      <trkpt lat="47.0622" lon="-1.2268">
        <ele>35</ele>
        <time>2020-03-15T12:06:24Z</time>
      </trkpt>
      <trkpt lat="47.0621" lon="-1.22659">
        <ele>35</ele>
        <time>2020-03-15T12:06:47Z</time>
      </trkpt>
      <trkpt lat="47.06202" lon="-1.22656">
        <ele>34</ele>
        <time>2020-03-15T12:06:58Z</time>
      </trkpt>
      <trkpt lat="47.0617" lon="-1.22618">
        <ele>32</ele>
        <time>2020-03-15T12:07:53Z</time>
      </trkpt>
      <trkpt lat="47.06139" lon="-1.22573">
        <ele>34</ele>
        <time>2020-03-15T12:08:52Z</time>
      </trkpt>
      <trkpt lat="47.0612" lon="-1.22521">
        <ele>35</ele>
        <time>2020-03-15T12:09:45Z</time>
      </trkpt>
      <trkpt lat="47.06101" lon="-1.22486">
        <ele>34</ele>
        <time>2020-03-15T12:10:26Z</time>
      </trkpt>
      <trkpt lat="47.06091" lon="-1.22446">
        <ele>36</ele>
        <time>2020-03-15T12:11:05Z</time>
      </trkpt>
      <trkpt lat="47.06061" lon="-1.22394">
        <ele>36</ele>
        <time>2020-03-15T12:12:07Z</time>
      </trkpt>
      <trkpt lat="47.06048" lon="-1.22392">
        <ele>35</ele>
        <time>2020-03-15T12:12:24Z</time>
      </trkpt>
      <trkpt lat="47.06038" lon="-1.22371">
        <ele>36</ele>
        <time>2020-03-15T12:12:47Z</time>
      </trkpt>
      <trkpt lat="47.06" lon="-1.22367">
        <ele>34</ele>
        <time>2020-03-15T12:13:38Z</time>
      </trkpt>
      <trkpt lat="47.05978" lon="-1.22358">
        <ele>35</ele>
        <time>2020-03-15T12:14:09Z</time>
      </trkpt>
      <trkpt lat="47.05974" lon="-1.22361">
        <ele>35</ele>
        <time>2020-03-15T12:14:15Z</time>
      </trkpt>
      <trkpt lat="47.05947" lon="-1.22365">
        <ele>35</ele>
        <time>2020-03-15T12:14:51Z</time>
      </trkpt>
      <trkpt lat="47.05934" lon="-1.22373">
        <ele>34</ele>
        <time>2020-03-15T12:15:10Z</time>
      </trkpt>
      <trkpt lat="47.0593" lon="-1.22376">
        <ele>34</ele>
        <time>2020-03-15T12:15:16Z</time>
      </trkpt>
      <trkpt lat="47.05918" lon="-1.22384">
        <ele>33</ele>
        <time>2020-03-15T12:15:33Z</time>
      </trkpt>
      <trkpt lat="47.05906" lon="-1.22398">
        <ele>31</ele>
        <time>2020-03-15T12:15:54Z</time>
      </trkpt>
      <trkpt lat="47.05896" lon="-1.22401">
        <ele>31</ele>
        <time>2020-03-15T12:16:07Z</time>
      </trkpt>
      <trkpt lat="47.05909" lon="-1.2246">
        <ele>31</ele>
        <time>2020-03-15T12:17:04Z</time>
      </trkpt>
      <trkpt lat="47.05905" lon="-1.22476">
        <ele>32</ele>
        <time>2020-03-15T12:17:19Z</time>
      </trkpt>
      <trkpt lat="47.05896" lon="-1.22494">
        <ele>33</ele>
        <time>2020-03-15T12:17:39Z</time>
      </trkpt>
      <trkpt lat="47.05857" lon="-1.22506">
        <ele>33</ele>
        <time>2020-03-15T12:18:33Z</time>
      </trkpt>
      <trkpt lat="47.05831" lon="-1.22533">
        <ele>36</ele>
        <time>2020-03-15T12:19:15Z</time>
      </trkpt>
      <trkpt lat="47.05824" lon="-1.22537">
        <ele>37</ele>
        <time>2020-03-15T12:19:25Z</time>
      </trkpt>
      <trkpt lat="47.05815" lon="-1.22547">
        <ele>38</ele>
        <time>2020-03-15T12:19:40Z</time>
      </trkpt>
      <trkpt lat="47.05798" lon="-1.22546">
        <ele>38</ele>
        <time>2020-03-15T12:20:03Z</time>
      </trkpt>
      <trkpt lat="47.05792" lon="-1.22553">
        <ele>38</ele>
        <time>2020-03-15T12:20:13Z</time>
      </trkpt>
      <trkpt lat="47.05785" lon="-1.22543">
        <ele>37</ele>
        <time>2020-03-15T12:20:26Z</time>
      </trkpt>
      <trkpt lat="47.05776" lon="-1.2254">
        <ele>37</ele>
        <time>2020-03-15T12:20:38Z</time>
      </trkpt>
      <trkpt lat="47.05764" lon="-1.22544">
        <ele>37</ele>
        <time>2020-03-15T12:20:55Z</time>
      </trkpt>
      <trkpt lat="47.05749" lon="-1.22561">
        <ele>39</ele>
        <time>2020-03-15T12:21:20Z</time>
      </trkpt>
      <trkpt lat="47.0575" lon="-1.22561">
        <ele>39</ele>
        <time>2020-03-15T12:21:22Z</time>
      </trkpt>
      <trkpt lat="47.05746" lon="-1.22551">
        <ele>38</ele>
        <time>2020-03-15T12:21:32Z</time>
      </trkpt>
      <trkpt lat="47.05747" lon="-1.22552">
        <ele>38</ele>
        <time>2020-03-15T12:21:34Z</time>
      </trkpt>
      <trkpt lat="47.05752" lon="-1.22527">
        <ele>35</ele>
        <time>2020-03-15T12:21:57Z</time>
      </trkpt>
      <trkpt lat="47.05743" lon="-1.22514">
        <ele>34</ele>
        <time>2020-03-15T12:22:14Z</time>
      </trkpt>
      <trkpt lat="47.05743" lon="-1.22509">
        <ele>34</ele>
        <time>2020-03-15T12:22:19Z</time>
      </trkpt>
      <trkpt lat="47.05759" lon="-1.22489">
        <ele>32</ele>
        <time>2020-03-15T12:22:47Z</time>
      </trkpt>
      <trkpt lat="47.05775" lon="-1.22461">
        <ele>31</ele>
        <time>2020-03-15T12:23:20Z</time>
      </trkpt>
      <trkpt lat="47.05774" lon="-1.22452">
        <ele>31</ele>
        <time>2020-03-15T12:23:28Z</time>
      </trkpt>
      <trkpt lat="47.05766" lon="-1.22442">
        <ele>30</ele>
        <time>2020-03-15T12:23:42Z</time>
      </trkpt>
      <trkpt lat="47.05743" lon="-1.22431">
        <ele>30</ele>
        <time>2020-03-15T12:24:15Z</time>
      </trkpt>
      <trkpt lat="47.05735" lon="-1.22429">
        <ele>30</ele>
        <time>2020-03-15T12:24:25Z</time>
      </trkpt>
      <trkpt lat="47.05727" lon="-1.22445">
        <ele>31</ele>
        <time>2020-03-15T12:24:43Z</time>
      </trkpt>
      <trkpt lat="47.05708" lon="-1.2243">
        <ele>32</ele>
        <time>2020-03-15T12:25:12Z</time>
      </trkpt>
      <trkpt lat="47.05716" lon="-1.22364">
        <ele>31</ele>
        <time>2020-03-15T12:26:13Z</time>
      </trkpt>
      <trkpt lat="47.05716" lon="-1.22338">
        <ele>32</ele>
        <time>2020-03-15T12:26:37Z</time>
      </trkpt>
      <trkpt lat="47.05714" lon="-1.2232">
        <ele>32</ele>
        <time>2020-03-15T12:26:53Z</time>
      </trkpt>
      <trkpt lat="47.05693" lon="-1.22276">
        <ele>33</ele>
        <time>2020-03-15T12:27:42Z</time>
      </trkpt>
      <trkpt lat="47.05672" lon="-1.22244">
        <ele>32</ele>
        <time>2020-03-15T12:28:23Z</time>
      </trkpt>
      <trkpt lat="47.05622" lon="-1.22151">
        <ele>34</ele>
        <time>2020-03-15T12:30:10Z</time>
      </trkpt>
      <trkpt lat="47.05598" lon="-1.22118">
        <ele>34</ele>
        <time>2020-03-15T12:30:54Z</time>
      </trkpt>
      <trkpt lat="47.0559" lon="-1.22112">
        <ele>33</ele>
        <time>2020-03-15T12:31:06Z</time>
      </trkpt>
      <trkpt lat="47.0559" lon="-1.22113">
        <ele>33</ele>
        <time>2020-03-15T12:31:07Z</time>
      </trkpt>
      <trkpt lat="47.05549" lon="-1.22083">
        <ele>32</ele>
        <time>2020-03-15T12:32:08Z</time>
      </trkpt>
      <trkpt lat="47.05549" lon="-1.22083">
        <ele>32</ele>
        <time>2020-03-15T12:32:08Z</time>
      </trkpt>
      <trkpt lat="47.05508" lon="-1.22089">
        <ele>32</ele>
        <time>2020-03-15T12:33:03Z</time>
      </trkpt>
      <trkpt lat="47.05508" lon="-1.22089">
        <ele>32</ele>
        <time>2020-03-15T12:33:03Z</time>
      </trkpt>
      <trkpt lat="47.05474" lon="-1.22105">
        <ele>33</ele>
        <time>2020-03-15T12:33:51Z</time>
      </trkpt>
      <trkpt lat="47.05474" lon="-1.22105">
        <ele>33</ele>
        <time>2020-03-15T12:33:51Z</time>
      </trkpt>
      <trkpt lat="47.05445" lon="-1.22099">
        <ele>33</ele>
        <time>2020-03-15T12:34:30Z</time>
      </trkpt>
      <trkpt lat="47.05445" lon="-1.22099">
        <ele>33</ele>
        <time>2020-03-15T12:34:30Z</time>
      </trkpt>
      <trkpt lat="47.0544" lon="-1.22096">
        <ele>33</ele>
        <time>2020-03-15T12:34:37Z</time>
      </trkpt>
      <trkpt lat="47.05418" lon="-1.22063">
        <ele>32</ele>
        <time>2020-03-15T12:35:19Z</time>
      </trkpt>
      <trkpt lat="47.05383" lon="-1.22015">
        <ele>32</ele>
        <time>2020-03-15T12:36:23Z</time>
      </trkpt>
      <trkpt lat="47.05361" lon="-1.21961">
        <ele>31</ele>
        <time>2020-03-15T12:37:20Z</time>
      </trkpt>
      <trkpt lat="47.0536" lon="-1.21949">
        <ele>31</ele>
        <time>2020-03-15T12:37:31Z</time>
      </trkpt>
      <trkpt lat="47.05367" lon="-1.21917">
        <ele>29</ele>
        <time>2020-03-15T12:38:02Z</time>
      </trkpt>
      <trkpt lat="47.05368" lon="-1.21888">
        <ele>30</ele>
        <time>2020-03-15T12:38:28Z</time>
      </trkpt>
      <trkpt lat="47.05357" lon="-1.21779">
        <ele>31</ele>
        <time>2020-03-15T12:40:08Z</time>
      </trkpt>
      <trkpt lat="47.05348" lon="-1.21737">
        <ele>30</ele>
        <time>2020-03-15T12:40:48Z</time>
      </trkpt>
      <trkpt lat="47.05323" lon="-1.21667">
        <ele>29</ele>
        <time>2020-03-15T12:42:00Z</time>
      </trkpt>
      <trkpt lat="47.05312" lon="-1.21645">
        <ele>29</ele>
        <time>2020-03-15T12:42:25Z</time>
      </trkpt>
      <trkpt lat="47.05299" lon="-1.21582">
        <ele>29</ele>
        <time>2020-03-15T12:43:25Z</time>
      </trkpt>
      <trkpt lat="47.05291" lon="-1.21573">
        <ele>29</ele>
        <time>2020-03-15T12:43:38Z</time>
      </trkpt>
      <trkpt lat="47.05281" lon="-1.21571">
        <ele>29</ele>
        <time>2020-03-15T12:43:52Z</time>
      </trkpt>
      <trkpt lat="47.05268" lon="-1.21572">
        <ele>29</ele>
        <time>2020-03-15T12:44:09Z</time>
      </trkpt>
      <trkpt lat="47.05239" lon="-1.21588">
        <ele>29</ele>
        <time>2020-03-15T12:44:51Z</time>
      </trkpt>
      <trkpt lat="47.05232" lon="-1.21578">
        <ele>30</ele>
        <time>2020-03-15T12:45:04Z</time>
      </trkpt>
      <trkpt lat="47.05201" lon="-1.21563">
        <ele>32</ele>
        <time>2020-03-15T12:45:47Z</time>
      </trkpt>
      <trkpt lat="47.05183" lon="-1.2156">
        <ele>33</ele>
        <time>2020-03-15T12:46:11Z</time>
      </trkpt>
      <trkpt lat="47.05157" lon="-1.21541">
        <ele>34</ele>
        <time>2020-03-15T12:46:50Z</time>
      </trkpt>
      <trkpt lat="47.0515" lon="-1.21531">
        <ele>34</ele>
        <time>2020-03-15T12:47:03Z</time>
      </trkpt>
      <trkpt lat="47.05143" lon="-1.21514">
        <ele>34</ele>
        <time>2020-03-15T12:47:21Z</time>
      </trkpt>
      <trkpt lat="47.0514" lon="-1.21513">
        <ele>34</ele>
        <time>2020-03-15T12:47:25Z</time>
      </trkpt>
      <trkpt lat="47.05136" lon="-1.21497">
        <ele>33</ele>
        <time>2020-03-15T12:47:41Z</time>
      </trkpt>
      <trkpt lat="47.05109" lon="-1.21463">
        <ele>36</ele>
        <time>2020-03-15T12:48:28Z</time>
      </trkpt>
      <trkpt lat="47.05105" lon="-1.21452">
        <ele>36</ele>
        <time>2020-03-15T12:48:40Z</time>
      </trkpt>
      <trkpt lat="47.05095" lon="-1.21446">
        <ele>36</ele>
        <time>2020-03-15T12:48:54Z</time>
      </trkpt>
      <trkpt lat="47.05083" lon="-1.21443">
        <ele>36</ele>
        <time>2020-03-15T12:49:10Z</time>
      </trkpt>
      <trkpt lat="47.05072" lon="-1.21432">
        <ele>38</ele>
        <time>2020-03-15T12:49:28Z</time>
      </trkpt>
      <trkpt lat="47.05053" lon="-1.21384">
        <ele>40</ele>
        <time>2020-03-15T12:50:19Z</time>
      </trkpt>
      <trkpt lat="47.05043" lon="-1.21366">
        <ele>41</ele>
        <time>2020-03-15T12:50:40Z</time>
      </trkpt>
      <trkpt lat="47.05031" lon="-1.21349">
        <ele>42</ele>
        <time>2020-03-15T12:51:02Z</time>
      </trkpt>
      <trkpt lat="47.04998" lon="-1.21268">
        <ele>40</ele>
        <time>2020-03-15T12:52:28Z</time>
      </trkpt>
      <trkpt lat="47.04981" lon="-1.21198">
        <ele>42</ele>
        <time>2020-03-15T12:53:35Z</time>
      </trkpt>
      <trkpt lat="47.04981" lon="-1.21188">
        <ele>42</ele>
        <time>2020-03-15T12:53:44Z</time>
      </trkpt>
      <trkpt lat="47.0498" lon="-1.21175">
        <ele>42</ele>
        <time>2020-03-15T12:53:56Z</time>
      </trkpt>
      <trkpt lat="47.04984" lon="-1.21132">
        <ele>41</ele>
        <time>2020-03-15T12:54:36Z</time>
      </trkpt>
      <trkpt lat="47.04983" lon="-1.21106">
        <ele>40</ele>
        <time>2020-03-15T12:54:59Z</time>
      </trkpt>
      <trkpt lat="47.0498" lon="-1.21097">
        <ele>40</ele>
        <time>2020-03-15T12:55:09Z</time>
      </trkpt>
      <trkpt lat="47.0497" lon="-1.21091">
        <ele>41</ele>
        <time>2020-03-15T12:55:23Z</time>
      </trkpt>
      <trkpt lat="47.04939" lon="-1.21147">
        <ele>45</ele>
        <time>2020-03-15T12:56:29Z</time>
      </trkpt>
      <trkpt lat="47.04913" lon="-1.21198">
        <ele>50</ele>
        <time>2020-03-15T12:57:27Z</time>
      </trkpt>
      <trkpt lat="47.04906" lon="-1.21219">
        <ele>51</ele>
        <time>2020-03-15T12:57:48Z</time>
      </trkpt>
      <trkpt lat="47.04897" lon="-1.21278">
        <ele>54</ele>
        <time>2020-03-15T12:58:43Z</time>
      </trkpt>
      <trkpt lat="47.04893" lon="-1.21298">
        <ele>55</ele>
        <time>2020-03-15T12:59:02Z</time>
      </trkpt>
      <trkpt lat="47.04886" lon="-1.21312">
        <ele>56</ele>
        <time>2020-03-15T12:59:17Z</time>
      </trkpt>
      <trkpt lat="47.04851" lon="-1.21352">
        <ele>57</ele>
        <time>2020-03-15T13:00:17Z</time>
      </trkpt>
      <trkpt lat="47.04819" lon="-1.21384">
        <ele>58</ele>
        <time>2020-03-15T13:01:08Z</time>
      </trkpt>
      <trkpt lat="47.04812" lon="-1.21395">
        <ele>59</ele>
        <time>2020-03-15T13:01:22Z</time>
      </trkpt>
      <trkpt lat="47.04814" lon="-1.21396">
        <ele>59</ele>
        <time>2020-03-15T13:01:25Z</time>
      </trkpt>
      <trkpt lat="47.04806" lon="-1.21402">
        <ele>60</ele>
        <time>2020-03-15T13:01:37Z</time>
      </trkpt>
      <trkpt lat="47.04806" lon="-1.21402">
        <ele>60</ele>
        <time>2020-03-15T13:01:37Z</time>
      </trkpt>
      <trkpt lat="47.04766" lon="-1.21367">
        <ele>58</ele>
        <time>2020-03-15T13:02:39Z</time>
      </trkpt>
      <trkpt lat="47.04766" lon="-1.21367">
        <ele>58</ele>
        <time>2020-03-15T13:02:39Z</time>
      </trkpt>
      <trkpt lat="47.04757" lon="-1.21363">
        <ele>58</ele>
        <time>2020-03-15T13:02:52Z</time>
      </trkpt>
      <trkpt lat="47.04743" lon="-1.2136">
        <ele>59</ele>
        <time>2020-03-15T13:03:10Z</time>
      </trkpt>
      <trkpt lat="47.04731" lon="-1.2134">
        <ele>58</ele>
        <time>2020-03-15T13:03:35Z</time>
      </trkpt>
      <trkpt lat="47.04721" lon="-1.21317">
        <ele>58</ele>
        <time>2020-03-15T13:03:59Z</time>
      </trkpt>
      <trkpt lat="47.04653" lon="-1.21218">
        <ele>58</ele>
        <time>2020-03-15T13:06:07Z</time>
      </trkpt>
      <trkpt lat="47.04626" lon="-1.21195">
        <ele>59</ele>
        <time>2020-03-15T13:06:49Z</time>
      </trkpt>
      <trkpt lat="47.04584" lon="-1.21153">
        <ele>61</ele>
        <time>2020-03-15T13:07:57Z</time>
      </trkpt>
      <trkpt lat="47.04578" lon="-1.21166">
        <ele>61</ele>
        <time>2020-03-15T13:08:11Z</time>
      </trkpt>
      <trkpt lat="47.04566" lon="-1.21181">
        <ele>61</ele>
        <time>2020-03-15T13:08:32Z</time>
      </trkpt>
      <trkpt lat="47.04555" lon="-1.21185">
        <ele>62</ele>
        <time>2020-03-15T13:08:47Z</time>
      </trkpt>
      <trkpt lat="47.04549" lon="-1.21185">
        <ele>62</ele>
        <time>2020-03-15T13:08:55Z</time>
      </trkpt>
      <trkpt lat="47.04542" lon="-1.21183">
        <ele>62</ele>
        <time>2020-03-15T13:09:05Z</time>
      </trkpt>
      <trkpt lat="47.04505" lon="-1.21161">
        <ele>64</ele>
        <time>2020-03-15T13:09:58Z</time>
      </trkpt>
      <trkpt lat="47.04485" lon="-1.21153">
        <ele>65</ele>
        <time>2020-03-15T13:10:26Z</time>
      </trkpt>
      <trkpt lat="47.04488" lon="-1.21135">
        <ele>66</ele>
        <time>2020-03-15T13:10:43Z</time>
      </trkpt>
      <trkpt lat="47.04491" lon="-1.21084">
        <ele>68</ele>
        <time>2020-03-15T13:11:29Z</time>
      </trkpt>
      <trkpt lat="47.04495" lon="-1.21065">
        <ele>69</ele>
        <time>2020-03-15T13:11:47Z</time>
      </trkpt>
      <trkpt lat="47.04504" lon="-1.21043">
        <ele>69</ele>
        <time>2020-03-15T13:12:10Z</time>
      </trkpt>
      <trkpt lat="47.04504" lon="-1.21031">
        <ele>70</ele>
        <time>2020-03-15T13:12:21Z</time>
      </trkpt>
      <trkpt lat="47.04488" lon="-1.21005">
        <ele>71</ele>
        <time>2020-03-15T13:12:53Z</time>
      </trkpt>
      <trkpt lat="47.04462" lon="-1.20979">
        <ele>70</ele>
        <time>2020-03-15T13:13:35Z</time>
      </trkpt>
      <trkpt lat="47.04413" lon="-1.20953">
        <ele>71</ele>
        <time>2020-03-15T13:14:45Z</time>
      </trkpt>
      <trkpt lat="47.04388" lon="-1.20945">
        <ele>71</ele>
        <time>2020-03-15T13:15:19Z</time>
      </trkpt>
      <trkpt lat="47.04376" lon="-1.20938">
        <ele>71</ele>
        <time>2020-03-15T13:15:36Z</time>
      </trkpt>
      <trkpt lat="47.04359" lon="-1.20934">
        <ele>70</ele>
        <time>2020-03-15T13:15:59Z</time>
      </trkpt>
      <trkpt lat="47.04348" lon="-1.20928">
        <ele>70</ele>
        <time>2020-03-15T13:16:15Z</time>
      </trkpt>
      <trkpt lat="47.04339" lon="-1.20918">
        <ele>70</ele>
        <time>2020-03-15T13:16:30Z</time>
      </trkpt>
      <trkpt lat="47.04298" lon="-1.2084">
        <ele>67</ele>
        <time>2020-03-15T13:17:59Z</time>
      </trkpt>
      <trkpt lat="47.04281" lon="-1.20802">
        <ele>66</ele>
        <time>2020-03-15T13:18:41Z</time>
      </trkpt>
      <trkpt lat="47.04269" lon="-1.20761">
        <ele>65</ele>
        <time>2020-03-15T13:19:21Z</time>
      </trkpt>
      <trkpt lat="47.04255" lon="-1.20694">
        <ele>65</ele>
        <time>2020-03-15T13:20:25Z</time>
      </trkpt>
      <trkpt lat="47.04244" lon="-1.20624">
        <ele>63</ele>
        <time>2020-03-15T13:21:30Z</time>
      </trkpt>
      <trkpt lat="47.0423" lon="-1.20505">
        <ele>57</ele>
        <time>2020-03-15T13:23:20Z</time>
      </trkpt>
      <trkpt lat="47.0423" lon="-1.20474">
        <ele>54</ele>
        <time>2020-03-15T13:23:48Z</time>
      </trkpt>
      <trkpt lat="47.04225" lon="-1.20461">
        <ele>53</ele>
        <time>2020-03-15T13:24:02Z</time>
      </trkpt>
      <trkpt lat="47.04212" lon="-1.20437">
        <ele>51</ele>
        <time>2020-03-15T13:24:30Z</time>
      </trkpt>
      <trkpt lat="47.04206" lon="-1.20421">
        <ele>49</ele>
        <time>2020-03-15T13:24:46Z</time>
      </trkpt>
      <trkpt lat="47.04201" lon="-1.20394">
        <ele>46</ele>
        <time>2020-03-15T13:25:12Z</time>
      </trkpt>
      <trkpt lat="47.04201" lon="-1.2036">
        <ele>41</ele>
        <time>2020-03-15T13:25:43Z</time>
      </trkpt>
      <trkpt lat="47.04172" lon="-1.20342">
        <ele>37</ele>
        <time>2020-03-15T13:26:25Z</time>
      </trkpt>
      <trkpt lat="47.0416" lon="-1.20337">
        <ele>36</ele>
        <time>2020-03-15T13:26:41Z</time>
      </trkpt>
      <trkpt lat="47.04176" lon="-1.20302">
        <ele>35</ele>
        <time>2020-03-15T13:27:20Z</time>
      </trkpt>
      <trkpt lat="47.04185" lon="-1.20262">
        <ele>34</ele>
        <time>2020-03-15T13:27:58Z</time>
      </trkpt>
      <trkpt lat="47.04183" lon="-1.20261">
        <ele>34</ele>
        <time>2020-03-15T13:28:01Z</time>
      </trkpt>
      <trkpt lat="47.04183" lon="-1.20229">
        <ele>35</ele>
        <time>2020-03-15T13:28:30Z</time>
      </trkpt>
      <trkpt lat="47.04183" lon="-1.20219">
        <ele>36</ele>
        <time>2020-03-15T13:28:39Z</time>
      </trkpt>
      <trkpt lat="47.04183" lon="-1.20218">
        <ele>36</ele>
        <time>2020-03-15T13:28:40Z</time>
      </trkpt>
      <trkpt lat="47.04182" lon="-1.20211">
        <ele>36</ele>
        <time>2020-03-15T13:28:47Z</time>
      </trkpt>
      <trkpt lat="47.0418" lon="-1.20205">
        <ele>37</ele>
        <time>2020-03-15T13:28:53Z</time>
      </trkpt>
      <trkpt lat="47.04191" lon="-1.20201">
        <ele>38</ele>
        <time>2020-03-15T13:29:08Z</time>
      </trkpt>
      <trkpt lat="47.04188" lon="-1.20175">
        <ele>40</ele>
        <time>2020-03-15T13:29:32Z</time>
      </trkpt>
      <trkpt lat="47.04191" lon="-1.20154">
        <ele>42</ele>
        <time>2020-03-15T13:29:51Z</time>
      </trkpt>
      <trkpt lat="47.04183" lon="-1.20147">
        <ele>43</ele>
        <time>2020-03-15T13:30:04Z</time>
      </trkpt>
      <trkpt lat="47.04164" lon="-1.20139">
        <ele>43</ele>
        <time>2020-03-15T13:30:30Z</time>
      </trkpt>
      <trkpt lat="47.04149" lon="-1.20127">
        <ele>43</ele>
        <time>2020-03-15T13:30:53Z</time>
      </trkpt>
      <trkpt lat="47.04113" lon="-1.20116">
        <ele>41</ele>
        <time>2020-03-15T13:31:42Z</time>
      </trkpt>
      <trkpt lat="47.04077" lon="-1.20044">
        <ele>42</ele>
        <time>2020-03-15T13:33:03Z</time>
      </trkpt>
      <trkpt lat="47.04067" lon="-1.20005">
        <ele>43</ele>
        <time>2020-03-15T13:33:41Z</time>
      </trkpt>
      <trkpt lat="47.04061" lon="-1.19947">
        <ele>43</ele>
        <time>2020-03-15T13:34:34Z</time>
      </trkpt>
      <trkpt lat="47.04061" lon="-1.19946">
        <ele>43</ele>
        <time>2020-03-15T13:34:35Z</time>
      </trkpt>
      <trkpt lat="47.04056" lon="-1.19904">
        <ele>42</ele>
        <time>2020-03-15T13:35:14Z</time>
      </trkpt>
      <trkpt lat="47.04056" lon="-1.19904">
        <ele>42</ele>
        <time>2020-03-15T13:35:14Z</time>
      </trkpt>
      <trkpt lat="47.04061" lon="-1.19885">
        <ele>43</ele>
        <time>2020-03-15T13:35:33Z</time>
      </trkpt>
      <trkpt lat="47.04061" lon="-1.19885">
        <ele>43</ele>
        <time>2020-03-15T13:35:33Z</time>
      </trkpt>
      <trkpt lat="47.04059" lon="-1.19855">
        <ele>42</ele>
        <time>2020-03-15T13:36:00Z</time>
      </trkpt>
      <trkpt lat="47.04059" lon="-1.19855">
        <ele>42</ele>
        <time>2020-03-15T13:36:00Z</time>
      </trkpt>
      <trkpt lat="47.04052" lon="-1.19824">
        <ele>42</ele>
        <time>2020-03-15T13:36:30Z</time>
      </trkpt>
      <trkpt lat="47.04052" lon="-1.19824">
        <ele>42</ele>
        <time>2020-03-15T13:36:30Z</time>
      </trkpt>
      <trkpt lat="47.04043" lon="-1.19758">
        <ele>44</ele>
        <time>2020-03-15T13:37:31Z</time>
      </trkpt>
      <trkpt lat="47.04043" lon="-1.19758">
        <ele>44</ele>
        <time>2020-03-15T13:37:31Z</time>
      </trkpt>
      <trkpt lat="47.04039" lon="-1.19734">
        <ele>45</ele>
        <time>2020-03-15T13:37:53Z</time>
      </trkpt>
      <trkpt lat="47.04039" lon="-1.19734">
        <ele>45</ele>
        <time>2020-03-15T13:37:53Z</time>
      </trkpt>
      <trkpt lat="47.04048" lon="-1.19718">
        <ele>47</ele>
        <time>2020-03-15T13:38:12Z</time>
      </trkpt>
      <trkpt lat="47.04049" lon="-1.19721">
        <ele>47</ele>
        <time>2020-03-15T13:38:15Z</time>
      </trkpt>
      <trkpt lat="47.04092" lon="-1.19661">
        <ele>56</ele>
        <time>2020-03-15T13:39:35Z</time>
      </trkpt>
      <trkpt lat="47.04163" lon="-1.19548">
        <ele>65</ele>
        <time>2020-03-15T13:41:54Z</time>
      </trkpt>
      <trkpt lat="47.04172" lon="-1.1953">
        <ele>66</ele>
        <time>2020-03-15T13:42:15Z</time>
      </trkpt>
      <trkpt lat="47.04179" lon="-1.19488">
        <ele>67</ele>
        <time>2020-03-15T13:42:54Z</time>
      </trkpt>
      <trkpt lat="47.04191" lon="-1.19449">
        <ele>67</ele>
        <time>2020-03-15T13:43:33Z</time>
      </trkpt>
      <trkpt lat="47.04234" lon="-1.19249">
        <ele>70</ele>
        <time>2020-03-15T13:46:44Z</time>
      </trkpt>
      <trkpt lat="47.04244" lon="-1.19215">
        <ele>71</ele>
        <time>2020-03-15T13:47:17Z</time>
      </trkpt>
      <trkpt lat="47.04263" lon="-1.19133">
        <ele>72</ele>
        <time>2020-03-15T13:48:36Z</time>
      </trkpt>
      <trkpt lat="47.04268" lon="-1.19107">
        <ele>72</ele>
        <time>2020-03-15T13:49:01Z</time>
      </trkpt>
      <trkpt lat="47.04285" lon="-1.19018">
        <ele>73</ele>
        <time>2020-03-15T13:50:25Z</time>
      </trkpt>
      <trkpt lat="47.04289" lon="-1.18982">
        <ele>74</ele>
        <time>2020-03-15T13:50:58Z</time>
      </trkpt>
      <trkpt lat="47.04291" lon="-1.18928">
        <ele>75</ele>
        <time>2020-03-15T13:51:47Z</time>
      </trkpt>
      <trkpt lat="47.04308" lon="-1.18877">
        <ele>76</ele>
        <time>2020-03-15T13:52:39Z</time>
      </trkpt>
      <trkpt lat="47.04317" lon="-1.18856">
        <ele>77</ele>
        <time>2020-03-15T13:53:01Z</time>
      </trkpt>
      <trkpt lat="47.04334" lon="-1.18832">
        <ele>78</ele>
        <time>2020-03-15T13:53:33Z</time>
      </trkpt>
      <trkpt lat="47.0435" lon="-1.18801">
        <ele>79</ele>
        <time>2020-03-15T13:54:08Z</time>
      </trkpt>
      <trkpt lat="47.04381" lon="-1.18767">
        <ele>80</ele>
        <time>2020-03-15T13:55:00Z</time>
      </trkpt>
      <trkpt lat="47.04379" lon="-1.18765">
        <ele>80</ele>
        <time>2020-03-15T13:55:03Z</time>
      </trkpt>
      <trkpt lat="47.0438" lon="-1.18764">
        <ele>80</ele>
        <time>2020-03-15T13:55:05Z</time>
      </trkpt>
      <trkpt lat="47.04336" lon="-1.18685">
        <ele>81</ele>
        <time>2020-03-15T13:56:37Z</time>
      </trkpt>
      <trkpt lat="47.04335" lon="-1.18684">
        <ele>81</ele>
        <time>2020-03-15T13:56:39Z</time>
      </trkpt>
      <trkpt lat="47.04331" lon="-1.18689">
        <ele>81</ele>
        <time>2020-03-15T13:56:46Z</time>
      </trkpt>
      <trkpt lat="47.04304" lon="-1.18716">
        <ele>80</ele>
        <time>2020-03-15T13:57:30Z</time>
      </trkpt>
      <trkpt lat="47.0427" lon="-1.18741">
        <ele>79</ele>
        <time>2020-03-15T13:58:20Z</time>
      </trkpt>
      <trkpt lat="47.0427" lon="-1.18739">
        <ele>79</ele>
        <time>2020-03-15T13:58:22Z</time>
      </trkpt>
      <trkpt lat="47.04249" lon="-1.18701">
        <ele>78</ele>
        <time>2020-03-15T13:59:07Z</time>
      </trkpt>
      <trkpt lat="47.04249" lon="-1.18701">
        <ele>78</ele>
        <time>2020-03-15T13:59:07Z</time>
      </trkpt>
      <trkpt lat="47.04222" lon="-1.18653">
        <ele>78</ele>
        <time>2020-03-15T14:00:03Z</time>
      </trkpt>
      <trkpt lat="47.04222" lon="-1.18653">
        <ele>78</ele>
        <time>2020-03-15T14:00:03Z</time>
      </trkpt>
      <trkpt lat="47.04205" lon="-1.1866">
        <ele>78</ele>
        <time>2020-03-15T14:00:27Z</time>
      </trkpt>
      <trkpt lat="47.04204" lon="-1.18661">
        <ele>78</ele>
        <time>2020-03-15T14:00:28Z</time>
      </trkpt>
      <trkpt lat="47.04148" lon="-1.18656">
        <ele>77</ele>
        <time>2020-03-15T14:01:43Z</time>
      </trkpt>
      <trkpt lat="47.04097" lon="-1.18647">
        <ele>75</ele>
        <time>2020-03-15T14:02:52Z</time>
      </trkpt>
      <trkpt lat="47.04054" lon="-1.18633">
        <ele>74</ele>
        <time>2020-03-15T14:03:51Z</time>
      </trkpt>
      <trkpt lat="47.04031" lon="-1.18613">
        <ele>74</ele>
        <time>2020-03-15T14:04:26Z</time>
      </trkpt>
      <trkpt lat="47.03981" lon="-1.18556">
        <ele>71</ele>
        <time>2020-03-15T14:05:51Z</time>
      </trkpt>
      <trkpt lat="47.03965" lon="-1.18534">
        <ele>69</ele>
        <time>2020-03-15T14:06:20Z</time>
      </trkpt>
      <trkpt lat="47.03923" lon="-1.18452">
        <ele>63</ele>
        <time>2020-03-15T14:07:53Z</time>
      </trkpt>
      <trkpt lat="47.03904" lon="-1.18428">
        <ele>61</ele>
        <time>2020-03-15T14:08:27Z</time>
      </trkpt>
      <trkpt lat="47.03875" lon="-1.184">
        <ele>60</ele>
        <time>2020-03-15T14:09:13Z</time>
      </trkpt>
      <trkpt lat="47.03856" lon="-1.18385">
        <ele>59</ele>
        <time>2020-03-15T14:09:42Z</time>
      </trkpt>
      <trkpt lat="47.03836" lon="-1.18393">
        <ele>58</ele>
        <time>2020-03-15T14:10:10Z</time>
      </trkpt>
      <trkpt lat="47.03811" lon="-1.18389">
        <ele>56</ele>
        <time>2020-03-15T14:10:43Z</time>
      </trkpt>
      <trkpt lat="47.03785" lon="-1.1839">
        <ele>53</ele>
        <time>2020-03-15T14:11:18Z</time>
      </trkpt>
      <trkpt lat="47.03756" lon="-1.18384">
        <ele>50</ele>
        <time>2020-03-15T14:11:57Z</time>
      </trkpt>
      <trkpt lat="47.03746" lon="-1.18378">
        <ele>50</ele>
        <time>2020-03-15T14:12:11Z</time>
      </trkpt>
      <trkpt lat="47.03737" lon="-1.18368">
        <ele>49</ele>
        <time>2020-03-15T14:12:26Z</time>
      </trkpt>
      <trkpt lat="47.0372" lon="-1.18329">
        <ele>50</ele>
        <time>2020-03-15T14:13:08Z</time>
      </trkpt>
      <trkpt lat="47.03713" lon="-1.18317">
        <ele>49</ele>
        <time>2020-03-15T14:13:23Z</time>
      </trkpt>
      <trkpt lat="47.03705" lon="-1.18309">
        <ele>48</ele>
        <time>2020-03-15T14:13:36Z</time>
      </trkpt>
      <trkpt lat="47.037" lon="-1.18281">
        <ele>49</ele>
        <time>2020-03-15T14:14:02Z</time>
      </trkpt>
      <trkpt lat="47.03683" lon="-1.18231">
        <ele>48</ele>
        <time>2020-03-15T14:14:53Z</time>
      </trkpt>
      <trkpt lat="47.03672" lon="-1.18192">
        <ele>47</ele>
        <time>2020-03-15T14:15:31Z</time>
      </trkpt>
      <trkpt lat="47.03661" lon="-1.18136">
        <ele>48</ele>
        <time>2020-03-15T14:16:24Z</time>
      </trkpt>
      <trkpt lat="47.03643" lon="-1.18054">
        <ele>49</ele>
        <time>2020-03-15T14:17:43Z</time>
      </trkpt>
      <trkpt lat="47.03633" lon="-1.17978">
        <ele>48</ele>
        <time>2020-03-15T14:18:53Z</time>
      </trkpt>
      <trkpt lat="47.03634" lon="-1.17956">
        <ele>48</ele>
        <time>2020-03-15T14:19:13Z</time>
      </trkpt>
      <trkpt lat="47.03632" lon="-1.17933">
        <ele>48</ele>
        <time>2020-03-15T14:19:34Z</time>
      </trkpt>
      <trkpt lat="47.03634" lon="-1.17886">
        <ele>50</ele>
        <time>2020-03-15T14:20:17Z</time>
      </trkpt>
      <trkpt lat="47.03634" lon="-1.17864">
        <ele>50</ele>
        <time>2020-03-15T14:20:37Z</time>
      </trkpt>
      <trkpt lat="47.03634" lon="-1.17864">
        <ele>50</ele>
        <time>2020-03-15T14:20:37Z</time>
      </trkpt>
      <trkpt lat="47.03628" lon="-1.17773">
        <ele>51</ele>
        <time>2020-03-15T14:22:00Z</time>
      </trkpt>
      <trkpt lat="47.03628" lon="-1.17773">
        <ele>51</ele>
        <time>2020-03-15T14:22:00Z</time>
      </trkpt>
      <trkpt lat="47.03622" lon="-1.17701">
        <ele>53</ele>
        <time>2020-03-15T14:23:06Z</time>
      </trkpt>
      <trkpt lat="47.03622" lon="-1.17701">
        <ele>53</ele>
        <time>2020-03-15T14:23:06Z</time>
      </trkpt>
      <trkpt lat="47.03586" lon="-1.17575">
        <ele>50</ele>
        <time>2020-03-15T14:25:10Z</time>
      </trkpt>
      <trkpt lat="47.03586" lon="-1.17575">
        <ele>50</ele>
        <time>2020-03-15T14:25:11Z</time>
      </trkpt>
      <trkpt lat="47.03588" lon="-1.17538">
        <ele>52</ele>
        <time>2020-03-15T14:25:44Z</time>
      </trkpt>
      <trkpt lat="47.03588" lon="-1.17538">
        <ele>52</ele>
        <time>2020-03-15T14:25:44Z</time>
      </trkpt>
      <trkpt lat="47.03599" lon="-1.17524">
        <ele>54</ele>
        <time>2020-03-15T14:26:04Z</time>
      </trkpt>
      <trkpt lat="47.03599" lon="-1.17525">
        <ele>54</ele>
        <time>2020-03-15T14:26:05Z</time>
      </trkpt>
      <trkpt lat="47.03625" lon="-1.1752">
        <ele>57</ele>
        <time>2020-03-15T14:26:40Z</time>
      </trkpt>
      <trkpt lat="47.03654" lon="-1.17509">
        <ele>61</ele>
        <time>2020-03-15T14:27:20Z</time>
      </trkpt>
      <trkpt lat="47.037" lon="-1.17484">
        <ele>65</ele>
        <time>2020-03-15T14:28:25Z</time>
      </trkpt>
      <trkpt lat="47.0375" lon="-1.17445">
        <ele>67</ele>
        <time>2020-03-15T14:29:41Z</time>
      </trkpt>
      <trkpt lat="47.0373" lon="-1.17338">
        <ele>64</ele>
        <time>2020-03-15T14:31:22Z</time>
      </trkpt>
      <trkpt lat="47.03729" lon="-1.17303">
        <ele>64</ele>
        <time>2020-03-15T14:31:53Z</time>
      </trkpt>
      <trkpt lat="47.03733" lon="-1.17281">
        <ele>63</ele>
        <time>2020-03-15T14:32:14Z</time>
      </trkpt>
      <trkpt lat="47.03746" lon="-1.17246">
        <ele>63</ele>
        <time>2020-03-15T14:32:50Z</time>
      </trkpt>
      <trkpt lat="47.03747" lon="-1.17221">
        <ele>64</ele>
        <time>2020-03-15T14:33:13Z</time>
      </trkpt>
      <trkpt lat="47.03728" lon="-1.17121">
        <ele>67</ele>
        <time>2020-03-15T14:34:48Z</time>
      </trkpt>
      <trkpt lat="47.03701" lon="-1.17032">
        <ele>68</ele>
        <time>2020-03-15T14:36:16Z</time>
      </trkpt>
      <trkpt lat="47.03696" lon="-1.17005">
        <ele>68</ele>
        <time>2020-03-15T14:36:42Z</time>
      </trkpt>
      <trkpt lat="47.03691" lon="-1.16972">
        <ele>68</ele>
        <time>2020-03-15T14:37:12Z</time>
      </trkpt>
      <trkpt lat="47.03691" lon="-1.16937">
        <ele>68</ele>
        <time>2020-03-15T14:37:44Z</time>
      </trkpt>
      <trkpt lat="47.03693" lon="-1.16914">
        <ele>69</ele>
        <time>2020-03-15T14:38:05Z</time>
      </trkpt>
      <trkpt lat="47.03704" lon="-1.16874">
        <ele>70</ele>
        <time>2020-03-15T14:38:45Z</time>
      </trkpt>
      <trkpt lat="47.03708" lon="-1.16825">
        <ele>72</ele>
        <time>2020-03-15T14:39:29Z</time>
      </trkpt>
      <trkpt lat="47.03709" lon="-1.16794">
        <ele>73</ele>
        <time>2020-03-15T14:39:58Z</time>
      </trkpt>
      <trkpt lat="47.03686" lon="-1.16686">
        <ele>76</ele>
        <time>2020-03-15T14:41:41Z</time>
      </trkpt>
      <trkpt lat="47.0367" lon="-1.16581">
        <ele>75</ele>
        <time>2020-03-15T14:43:18Z</time>
      </trkpt>
      <trkpt lat="47.03643" lon="-1.1643">
        <ele>75</ele>
        <time>2020-03-15T14:45:40Z</time>
      </trkpt>
      <trkpt lat="47.03635" lon="-1.16347">
        <ele>75</ele>
        <time>2020-03-15T14:46:57Z</time>
      </trkpt>
      <trkpt lat="47.03625" lon="-1.16201">
        <ele>74</ele>
        <time>2020-03-15T14:49:10Z</time>
      </trkpt>
      <trkpt lat="47.03619" lon="-1.16147">
        <ele>73</ele>
        <time>2020-03-15T14:50:00Z</time>
      </trkpt>
      <trkpt lat="47.03606" lon="-1.16081">
        <ele>71</ele>
        <time>2020-03-15T14:51:02Z</time>
      </trkpt>
      <trkpt lat="47.03607" lon="-1.16042">
        <ele>70</ele>
        <time>2020-03-15T14:51:38Z</time>
      </trkpt>
      <trkpt lat="47.0361" lon="-1.16017">
        <ele>69</ele>
        <time>2020-03-15T14:52:01Z</time>
      </trkpt>
      <trkpt lat="47.03614" lon="-1.15995">
        <ele>69</ele>
        <time>2020-03-15T14:52:22Z</time>
      </trkpt>
      <trkpt lat="47.03615" lon="-1.1596">
        <ele>68</ele>
        <time>2020-03-15T14:52:53Z</time>
      </trkpt>
      <trkpt lat="47.03614" lon="-1.15912">
        <ele>67</ele>
        <time>2020-03-15T14:53:37Z</time>
      </trkpt>
      <trkpt lat="47.03614" lon="-1.15912">
        <ele>67</ele>
        <time>2020-03-15T14:53:37Z</time>
      </trkpt>
      <trkpt lat="47.0361" lon="-1.15888">
        <ele>69</ele>
        <time>2020-03-15T14:54:00Z</time>
      </trkpt>
      <trkpt lat="47.0361" lon="-1.15888">
        <ele>69</ele>
        <time>2020-03-15T14:54:00Z</time>
      </trkpt>
      <trkpt lat="47.03566" lon="-1.15868">
        <ele>71</ele>
        <time>2020-03-15T14:55:01Z</time>
      </trkpt>
      <trkpt lat="47.03566" lon="-1.15868">
        <ele>71</ele>
        <time>2020-03-15T14:55:01Z</time>
      </trkpt>
      <trkpt lat="47.03482" lon="-1.15815">
        <ele>73</ele>
        <time>2020-03-15T14:57:03Z</time>
      </trkpt>
      <trkpt lat="47.03482" lon="-1.15815">
        <ele>73</ele>
        <time>2020-03-15T14:57:03Z</time>
      </trkpt>
      <trkpt lat="47.03433" lon="-1.15745">
        <ele>63</ele>
        <time>2020-03-15T14:58:34Z</time>
      </trkpt>
      <trkpt lat="47.03433" lon="-1.15745">
        <ele>63</ele>
        <time>2020-03-15T14:58:34Z</time>
      </trkpt>
      <trkpt lat="47.03427" lon="-1.15706">
        <ele>64</ele>
        <time>2020-03-15T14:59:11Z</time>
      </trkpt>
      <trkpt lat="47.03427" lon="-1.15706">
        <ele>64</ele>
        <time>2020-03-15T14:59:11Z</time>
      </trkpt>
      <trkpt lat="47.03427" lon="-1.15672">
        <ele>66</ele>
        <time>2020-03-15T14:59:42Z</time>
      </trkpt>
      <trkpt lat="47.03427" lon="-1.15672">
        <ele>66</ele>
        <time>2020-03-15T14:59:42Z</time>
      </trkpt>
      <trkpt lat="47.03415" lon="-1.15627">
        <ele>68</ele>
        <time>2020-03-15T15:00:26Z</time>
      </trkpt>
      <trkpt lat="47.03415" lon="-1.15627">
        <ele>68</ele>
        <time>2020-03-15T15:00:26Z</time>
      </trkpt>
      <trkpt lat="47.03409" lon="-1.15614">
        <ele>68</ele>
        <time>2020-03-15T15:00:40Z</time>
      </trkpt>
      <trkpt lat="47.03409" lon="-1.15614">
        <ele>68</ele>
        <time>2020-03-15T15:00:40Z</time>
      </trkpt>
      <trkpt lat="47.03384" lon="-1.15592">
        <ele>67</ele>
        <time>2020-03-15T15:01:19Z</time>
      </trkpt>
      <trkpt lat="47.03384" lon="-1.15592">
        <ele>67</ele>
        <time>2020-03-15T15:01:19Z</time>
      </trkpt>
      <trkpt lat="47.03356" lon="-1.15557">
        <ele>67</ele>
        <time>2020-03-15T15:02:08Z</time>
      </trkpt>
      <trkpt lat="47.03357" lon="-1.15556">
        <ele>67</ele>
        <time>2020-03-15T15:02:10Z</time>
      </trkpt>
      <trkpt lat="47.03327" lon="-1.15479">
        <ele>70</ele>
        <time>2020-03-15T15:03:30Z</time>
      </trkpt>
      <trkpt lat="47.03286" lon="-1.15381">
        <ele>71</ele>
        <time>2020-03-15T15:05:15Z</time>
      </trkpt>
      <trkpt lat="47.03273" lon="-1.15337">
        <ele>72</ele>
        <time>2020-03-15T15:05:59Z</time>
      </trkpt>
      <trkpt lat="47.03268" lon="-1.1531">
        <ele>73</ele>
        <time>2020-03-15T15:06:24Z</time>
      </trkpt>
      <trkpt lat="47.03263" lon="-1.15265">
        <ele>76</ele>
        <time>2020-03-15T15:07:05Z</time>
      </trkpt>
      <trkpt lat="47.03245" lon="-1.15183">
        <ele>78</ele>
        <time>2020-03-15T15:08:24Z</time>
      </trkpt>
      <trkpt lat="47.03231" lon="-1.15092">
        <ele>76</ele>
        <time>2020-03-15T15:09:49Z</time>
      </trkpt>
      <trkpt lat="47.03222" lon="-1.15055">
        <ele>75</ele>
        <time>2020-03-15T15:10:24Z</time>
      </trkpt>
      <trkpt lat="47.03212" lon="-1.15028">
        <ele>75</ele>
        <time>2020-03-15T15:10:52Z</time>
      </trkpt>
      <trkpt lat="47.03189" lon="-1.15001">
        <ele>73</ele>
        <time>2020-03-15T15:11:32Z</time>
      </trkpt>
      <trkpt lat="47.0315" lon="-1.14972">
        <ele>69</ele>
        <time>2020-03-15T15:12:30Z</time>
      </trkpt>
      <trkpt lat="47.03127" lon="-1.14963">
        <ele>67</ele>
        <time>2020-03-15T15:13:02Z</time>
      </trkpt>
      <trkpt lat="47.03077" lon="-1.14964">
        <ele>60</ele>
        <time>2020-03-15T15:14:08Z</time>
      </trkpt>
      <trkpt lat="47.03061" lon="-1.1496">
        <ele>57</ele>
        <time>2020-03-15T15:14:30Z</time>
      </trkpt>
      <trkpt lat="47.03048" lon="-1.14949">
        <ele>55</ele>
        <time>2020-03-15T15:14:50Z</time>
      </trkpt>
      <trkpt lat="47.03039" lon="-1.14937">
        <ele>54</ele>
        <time>2020-03-15T15:15:06Z</time>
      </trkpt>
      <trkpt lat="47.03017" lon="-1.14883">
        <ele>51</ele>
        <time>2020-03-15T15:16:04Z</time>
      </trkpt>
      <trkpt lat="47.0301" lon="-1.14836">
        <ele>51</ele>
        <time>2020-03-15T15:16:47Z</time>
      </trkpt>
      <trkpt lat="47.03011" lon="-1.14813">
        <ele>52</ele>
        <time>2020-03-15T15:17:08Z</time>
      </trkpt>
      <trkpt lat="47.03008" lon="-1.14801">
        <ele>51</ele>
        <time>2020-03-15T15:17:20Z</time>
      </trkpt>
      <trkpt lat="47.03003" lon="-1.14791">
        <ele>50</ele>
        <time>2020-03-15T15:17:31Z</time>
      </trkpt>
      <trkpt lat="47.03001" lon="-1.14753">
        <ele>50</ele>
        <time>2020-03-15T15:18:06Z</time>
      </trkpt>
      <trkpt lat="47.02997" lon="-1.14732">
        <ele>50</ele>
        <time>2020-03-15T15:18:26Z</time>
      </trkpt>
      <trkpt lat="47.02991" lon="-1.14729">
        <ele>49</ele>
        <time>2020-03-15T15:18:34Z</time>
      </trkpt>
      <trkpt lat="47.02967" lon="-1.14728">
        <ele>48</ele>
        <time>2020-03-15T15:19:06Z</time>
      </trkpt>
      <trkpt lat="47.02956" lon="-1.14728">
        <ele>48</ele>
        <time>2020-03-15T15:19:21Z</time>
      </trkpt>
      <trkpt lat="47.02942" lon="-1.14729">
        <ele>47</ele>
        <time>2020-03-15T15:19:40Z</time>
      </trkpt>
      <trkpt lat="47.02938" lon="-1.1473">
        <ele>47</ele>
        <time>2020-03-15T15:19:45Z</time>
      </trkpt>
      <trkpt lat="47.02936" lon="-1.14722">
        <ele>47</ele>
        <time>2020-03-15T15:19:53Z</time>
      </trkpt>
      <trkpt lat="47.02916" lon="-1.14692">
        <ele>48</ele>
        <time>2020-03-15T15:20:31Z</time>
      </trkpt>
      <trkpt lat="47.02866" lon="-1.14639">
        <ele>49</ele>
        <time>2020-03-15T15:21:53Z</time>
      </trkpt>
      <trkpt lat="47.02771" lon="-1.14507">
        <ele>49</ele>
        <time>2020-03-15T15:24:48Z</time>
      </trkpt>
      <trkpt lat="47.02751" lon="-1.14473">
        <ele>49</ele>
        <time>2020-03-15T15:25:29Z</time>
      </trkpt>
      <trkpt lat="47.02743" lon="-1.14453">
        <ele>49</ele>
        <time>2020-03-15T15:25:50Z</time>
      </trkpt>
      <trkpt lat="47.02729" lon="-1.14406">
        <ele>50</ele>
        <time>2020-03-15T15:26:36Z</time>
      </trkpt>
      <trkpt lat="47.02724" lon="-1.14367">
        <ele>51</ele>
        <time>2020-03-15T15:27:13Z</time>
      </trkpt>
      <trkpt lat="47.02725" lon="-1.14276">
        <ele>53</ele>
        <time>2020-03-15T15:28:35Z</time>
      </trkpt>
      <trkpt lat="47.02724" lon="-1.14247">
        <ele>54</ele>
        <time>2020-03-15T15:29:02Z</time>
      </trkpt>
      <trkpt lat="47.02721" lon="-1.14225">
        <ele>54</ele>
        <time>2020-03-15T15:29:22Z</time>
      </trkpt>
      <trkpt lat="47.02681" lon="-1.14044">
        <ele>55</ele>
        <time>2020-03-15T15:32:15Z</time>
      </trkpt>
      <trkpt lat="47.02672" lon="-1.14041">
        <ele>53</ele>
        <time>2020-03-15T15:32:28Z</time>
      </trkpt>
      <trkpt lat="47.02668" lon="-1.14031">
        <ele>53</ele>
        <time>2020-03-15T15:32:38Z</time>
      </trkpt>
      <trkpt lat="47.02657" lon="-1.13975">
        <ele>53</ele>
        <time>2020-03-15T15:33:31Z</time>
      </trkpt>
      <trkpt lat="47.02603" lon="-1.13802">
        <ele>50</ele>
        <time>2020-03-15T15:36:24Z</time>
      </trkpt>
      <trkpt lat="47.02604" lon="-1.13789">
        <ele>51</ele>
        <time>2020-03-15T15:36:36Z</time>
      </trkpt>
      <trkpt lat="47.02583" lon="-1.1373">
        <ele>52</ele>
        <time>2020-03-15T15:37:37Z</time>
      </trkpt>
      <trkpt lat="47.0256" lon="-1.13641">
        <ele>57</ele>
        <time>2020-03-15T15:39:03Z</time>
      </trkpt>
      <trkpt lat="47.02534" lon="-1.13608">
        <ele>56</ele>
        <time>2020-03-15T15:39:49Z</time>
      </trkpt>
      <trkpt lat="47.02511" lon="-1.13555">
        <ele>55</ele>
        <time>2020-03-15T15:40:46Z</time>
      </trkpt>
      <trkpt lat="47.02503" lon="-1.13545">
        <ele>54</ele>
        <time>2020-03-15T15:41:00Z</time>
      </trkpt>
      <trkpt lat="47.02481" lon="-1.13528">
        <ele>52</ele>
        <time>2020-03-15T15:41:34Z</time>
      </trkpt>
      <trkpt lat="47.02476" lon="-1.13521">
        <ele>52</ele>
        <time>2020-03-15T15:41:43Z</time>
      </trkpt>
      <trkpt lat="47.02474" lon="-1.13512">
        <ele>52</ele>
        <time>2020-03-15T15:41:51Z</time>
      </trkpt>
      <trkpt lat="47.02474" lon="-1.1348">
        <ele>54</ele>
        <time>2020-03-15T15:42:20Z</time>
      </trkpt>
      <trkpt lat="47.02472" lon="-1.13462">
        <ele>55</ele>
        <time>2020-03-15T15:42:37Z</time>
      </trkpt>
      <trkpt lat="47.02465" lon="-1.13445">
        <ele>56</ele>
        <time>2020-03-15T15:42:55Z</time>
      </trkpt>
      <trkpt lat="47.02445" lon="-1.13416">
        <ele>54</ele>
        <time>2020-03-15T15:43:33Z</time>
      </trkpt>
      <trkpt lat="47.0244" lon="-1.13404">
        <ele>53</ele>
        <time>2020-03-15T15:43:45Z</time>
      </trkpt>
      <trkpt lat="47.02436" lon="-1.13389">
        <ele>54</ele>
        <time>2020-03-15T15:44:00Z</time>
      </trkpt>
      <trkpt lat="47.02434" lon="-1.13366">
        <ele>56</ele>
        <time>2020-03-15T15:44:21Z</time>
      </trkpt>
      <trkpt lat="47.02426" lon="-1.13332">
        <ele>57</ele>
        <time>2020-03-15T15:44:54Z</time>
      </trkpt>
      <trkpt lat="47.02419" lon="-1.13319">
        <ele>56</ele>
        <time>2020-03-15T15:45:09Z</time>
      </trkpt>
      <trkpt lat="47.02408" lon="-1.13309">
        <ele>55</ele>
        <time>2020-03-15T15:45:26Z</time>
      </trkpt>
      <trkpt lat="47.02389" lon="-1.13286">
        <ele>54</ele>
        <time>2020-03-15T15:45:59Z</time>
      </trkpt>
      <trkpt lat="47.02352" lon="-1.13231">
        <ele>53</ele>
        <time>2020-03-15T15:47:09Z</time>
      </trkpt>
      <trkpt lat="47.02352" lon="-1.13231">
        <ele>53</ele>
        <time>2020-03-15T15:47:09Z</time>
      </trkpt>
      <trkpt lat="47.02337" lon="-1.13205">
        <ele>52</ele>
        <time>2020-03-15T15:47:40Z</time>
      </trkpt>
      <trkpt lat="47.02337" lon="-1.13205">
        <ele>52</ele>
        <time>2020-03-15T15:47:40Z</time>
      </trkpt>
      <trkpt lat="47.02331" lon="-1.13174">
        <ele>52</ele>
        <time>2020-03-15T15:48:10Z</time>
      </trkpt>
      <trkpt lat="47.02331" lon="-1.13174">
        <ele>52</ele>
        <time>2020-03-15T15:48:10Z</time>
      </trkpt>
      <trkpt lat="47.02329" lon="-1.13143">
        <ele>52</ele>
        <time>2020-03-15T15:48:38Z</time>
      </trkpt>
      <trkpt lat="47.02329" lon="-1.13143">
        <ele>52</ele>
        <time>2020-03-15T15:48:38Z</time>
      </trkpt>
      <trkpt lat="47.02336" lon="-1.131">
        <ele>53</ele>
        <time>2020-03-15T15:49:18Z</time>
      </trkpt>
      <trkpt lat="47.02336" lon="-1.131">
        <ele>53</ele>
        <time>2020-03-15T15:49:18Z</time>
      </trkpt>
      <trkpt lat="47.02347" lon="-1.13061">
        <ele>52</ele>
        <time>2020-03-15T15:49:57Z</time>
      </trkpt>
      <trkpt lat="47.02347" lon="-1.13061">
        <ele>52</ele>
        <time>2020-03-15T15:49:57Z</time>
      </trkpt>
      <trkpt lat="47.02402" lon="-1.12977">
        <ele>53</ele>
        <time>2020-03-15T15:51:43Z</time>
      </trkpt>
      <trkpt lat="47.02404" lon="-1.12979">
        <ele>54</ele>
        <time>2020-03-15T15:51:46Z</time>
      </trkpt>
      <trkpt lat="47.02409" lon="-1.12954">
        <ele>53</ele>
        <time>2020-03-15T15:52:10Z</time>
      </trkpt>
      <trkpt lat="47.0241" lon="-1.1294">
        <ele>53</ele>
        <time>2020-03-15T15:52:22Z</time>
      </trkpt>
      <trkpt lat="47.02407" lon="-1.12912">
        <ele>51</ele>
        <time>2020-03-15T15:52:48Z</time>
      </trkpt>
      <trkpt lat="47.02407" lon="-1.12912">
        <ele>51</ele>
        <time>2020-03-15T15:52:48Z</time>
      </trkpt>
      <trkpt lat="47.02395" lon="-1.12785">
        <ele>50</ele>
        <time>2020-03-15T15:54:45Z</time>
      </trkpt>
      <trkpt lat="47.02396" lon="-1.12785">
        <ele>50</ele>
        <time>2020-03-15T15:54:46Z</time>
      </trkpt>
      <trkpt lat="47.02393" lon="-1.12772">
        <ele>50</ele>
        <time>2020-03-15T15:54:59Z</time>
      </trkpt>
      <trkpt lat="47.02386" lon="-1.12757">
        <ele>50</ele>
        <time>2020-03-15T15:55:15Z</time>
      </trkpt>
      <trkpt lat="47.02374" lon="-1.12743">
        <ele>50</ele>
        <time>2020-03-15T15:55:36Z</time>
      </trkpt>
      <trkpt lat="47.0236" lon="-1.12734">
        <ele>50</ele>
        <time>2020-03-15T15:55:56Z</time>
      </trkpt>
      <trkpt lat="47.02319" lon="-1.12713">
        <ele>50</ele>
        <time>2020-03-15T15:56:54Z</time>
      </trkpt>
      <trkpt lat="47.02287" lon="-1.12687">
        <ele>49</ele>
        <time>2020-03-15T15:57:43Z</time>
      </trkpt>
      <trkpt lat="47.02272" lon="-1.12671">
        <ele>49</ele>
        <time>2020-03-15T15:58:08Z</time>
      </trkpt>
      <trkpt lat="47.02261" lon="-1.12653">
        <ele>49</ele>
        <time>2020-03-15T15:58:30Z</time>
      </trkpt>
      <trkpt lat="47.02247" lon="-1.1262">
        <ele>50</ele>
        <time>2020-03-15T15:59:05Z</time>
      </trkpt>
      <trkpt lat="47.02238" lon="-1.12594">
        <ele>51</ele>
        <time>2020-03-15T15:59:31Z</time>
      </trkpt>
      <trkpt lat="47.02233" lon="-1.12574">
        <ele>52</ele>
        <time>2020-03-15T15:59:51Z</time>
      </trkpt>
      <trkpt lat="47.02225" lon="-1.12531">
        <ele>53</ele>
        <time>2020-03-15T16:00:31Z</time>
      </trkpt>
      <trkpt lat="47.02209" lon="-1.12479">
        <ele>52</ele>
        <time>2020-03-15T16:01:23Z</time>
      </trkpt>
      <trkpt lat="47.02202" lon="-1.12443">
        <ele>52</ele>
        <time>2020-03-15T16:01:57Z</time>
      </trkpt>
      <trkpt lat="47.02199" lon="-1.1242">
        <ele>52</ele>
        <time>2020-03-15T16:02:19Z</time>
      </trkpt>
      <trkpt lat="47.022" lon="-1.12345">
        <ele>54</ele>
        <time>2020-03-15T16:03:27Z</time>
      </trkpt>
      <trkpt lat="47.02198" lon="-1.12304">
        <ele>54</ele>
        <time>2020-03-15T16:04:04Z</time>
      </trkpt>
      <trkpt lat="47.02193" lon="-1.12269">
        <ele>53</ele>
        <time>2020-03-15T16:04:37Z</time>
      </trkpt>
      <trkpt lat="47.02187" lon="-1.12237">
        <ele>51</ele>
        <time>2020-03-15T16:05:07Z</time>
      </trkpt>
      <trkpt lat="47.0218" lon="-1.12192">
        <ele>50</ele>
        <time>2020-03-15T16:05:49Z</time>
      </trkpt>
      <trkpt lat="47.02159" lon="-1.1202">
        <ele>50</ele>
        <time>2020-03-15T16:08:28Z</time>
      </trkpt>
      <trkpt lat="47.02149" lon="-1.11945">
        <ele>53</ele>
        <time>2020-03-15T16:09:38Z</time>
      </trkpt>
      <trkpt lat="47.02143" lon="-1.11887">
        <ele>54</ele>
        <time>2020-03-15T16:10:31Z</time>
      </trkpt>
      <trkpt lat="47.02137" lon="-1.11866">
        <ele>54</ele>
        <time>2020-03-15T16:10:52Z</time>
      </trkpt>
      <trkpt lat="47.02128" lon="-1.11846">
        <ele>54</ele>
        <time>2020-03-15T16:11:13Z</time>
      </trkpt>
      <trkpt lat="47.02109" lon="-1.11812">
        <ele>52</ele>
        <time>2020-03-15T16:11:53Z</time>
      </trkpt>
      <trkpt lat="47.02102" lon="-1.11792">
        <ele>52</ele>
        <time>2020-03-15T16:12:14Z</time>
      </trkpt>
      <trkpt lat="47.02084" lon="-1.1168">
        <ele>52</ele>
        <time>2020-03-15T16:13:59Z</time>
      </trkpt>
      <trkpt lat="47.02084" lon="-1.11675">
        <ele>52</ele>
        <time>2020-03-15T16:14:03Z</time>
      </trkpt>
      <trkpt lat="47.0208" lon="-1.1166">
        <ele>52</ele>
        <time>2020-03-15T16:14:18Z</time>
      </trkpt>
      <trkpt lat="47.02064" lon="-1.11635">
        <ele>53</ele>
        <time>2020-03-15T16:14:49Z</time>
      </trkpt>
      <trkpt lat="47.02049" lon="-1.11625">
        <ele>52</ele>
        <time>2020-03-15T16:15:11Z</time>
      </trkpt>
      <trkpt lat="47.02035" lon="-1.11613">
        <ele>52</ele>
        <time>2020-03-15T16:15:33Z</time>
      </trkpt>
      <trkpt lat="47.0202" lon="-1.11594">
        <ele>51</ele>
        <time>2020-03-15T16:15:59Z</time>
      </trkpt>
      <trkpt lat="47.01988" lon="-1.1156">
        <ele>52</ele>
        <time>2020-03-15T16:16:52Z</time>
      </trkpt>
      <trkpt lat="47.01959" lon="-1.11501">
        <ele>53</ele>
        <time>2020-03-15T16:17:58Z</time>
      </trkpt>
      <trkpt lat="47.01929" lon="-1.11464">
        <ele>52</ele>
        <time>2020-03-15T16:18:50Z</time>
      </trkpt>
      <trkpt lat="47.01893" lon="-1.11397">
        <ele>54</ele>
        <time>2020-03-15T16:20:08Z</time>
      </trkpt>
      <trkpt lat="47.01884" lon="-1.11374">
        <ele>54</ele>
        <time>2020-03-15T16:20:32Z</time>
      </trkpt>
      <trkpt lat="47.01869" lon="-1.1133">
        <ele>54</ele>
        <time>2020-03-15T16:21:17Z</time>
      </trkpt>
      <trkpt lat="47.0186" lon="-1.11306">
        <ele>56</ele>
        <time>2020-03-15T16:21:42Z</time>
      </trkpt>
      <trkpt lat="47.01848" lon="-1.11296">
        <ele>56</ele>
        <time>2020-03-15T16:22:00Z</time>
      </trkpt>
      <trkpt lat="47.01812" lon="-1.11282">
        <ele>54</ele>
        <time>2020-03-15T16:22:50Z</time>
      </trkpt>
      <trkpt lat="47.01795" lon="-1.11277">
        <ele>53</ele>
        <time>2020-03-15T16:23:13Z</time>
      </trkpt>
      <trkpt lat="47.01767" lon="-1.11263">
        <ele>52</ele>
        <time>2020-03-15T16:23:52Z</time>
      </trkpt>
      <trkpt lat="47.01736" lon="-1.11238">
        <ele>52</ele>
        <time>2020-03-15T16:24:40Z</time>
      </trkpt>
      <trkpt lat="47.01688" lon="-1.11186">
        <ele>53</ele>
        <time>2020-03-15T16:25:59Z</time>
      </trkpt>
      <trkpt lat="47.01675" lon="-1.11158">
        <ele>53</ele>
        <time>2020-03-15T16:26:30Z</time>
      </trkpt>
      <trkpt lat="47.01651" lon="-1.11092">
        <ele>54</ele>
        <time>2020-03-15T16:27:38Z</time>
      </trkpt>
      <trkpt lat="47.01649" lon="-1.1108">
        <ele>54</ele>
        <time>2020-03-15T16:27:49Z</time>
      </trkpt>
      <trkpt lat="47.0165" lon="-1.11079">
        <ele>54</ele>
        <time>2020-03-15T16:27:51Z</time>
      </trkpt>
      <trkpt lat="47.01642" lon="-1.11053">
        <ele>54</ele>
        <time>2020-03-15T16:28:17Z</time>
      </trkpt>
      <trkpt lat="47.01642" lon="-1.11053">
        <ele>54</ele>
        <time>2020-03-15T16:28:17Z</time>
      </trkpt>
      <trkpt lat="47.01627" lon="-1.11023">
        <ele>54</ele>
        <time>2020-03-15T16:28:51Z</time>
      </trkpt>
      <trkpt lat="47.01617" lon="-1.11002">
        <ele>53</ele>
        <time>2020-03-15T16:29:14Z</time>
      </trkpt>
      <trkpt lat="47.01609" lon="-1.10973">
        <ele>53</ele>
        <time>2020-03-15T16:29:42Z</time>
      </trkpt>
      <trkpt lat="47.01603" lon="-1.10938">
        <ele>53</ele>
        <time>2020-03-15T16:30:15Z</time>
      </trkpt>
      <trkpt lat="47.01605" lon="-1.1093">
        <ele>53</ele>
        <time>2020-03-15T16:30:23Z</time>
      </trkpt>
      <trkpt lat="47.01605" lon="-1.10929">
        <ele>53</ele>
        <time>2020-03-15T16:30:24Z</time>
      </trkpt>
      <trkpt lat="47.01609" lon="-1.10911">
        <ele>54</ele>
        <time>2020-03-15T16:30:41Z</time>
      </trkpt>
      <trkpt lat="47.0161" lon="-1.10911">
        <ele>54</ele>
        <time>2020-03-15T16:30:43Z</time>
      </trkpt>
      <trkpt lat="47.0161" lon="-1.10867">
        <ele>54</ele>
        <time>2020-03-15T16:31:23Z</time>
      </trkpt>
      <trkpt lat="47.01603" lon="-1.10831">
        <ele>54</ele>
        <time>2020-03-15T16:31:57Z</time>
      </trkpt>
      <trkpt lat="47.01586" lon="-1.10739">
        <ele>51</ele>
        <time>2020-03-15T16:33:23Z</time>
      </trkpt>
      <trkpt lat="47.01582" lon="-1.10703">
        <ele>52</ele>
        <time>2020-03-15T16:33:57Z</time>
      </trkpt>
      <trkpt lat="47.01567" lon="-1.10624">
        <ele>56</ele>
        <time>2020-03-15T16:35:11Z</time>
      </trkpt>
      <trkpt lat="47.01545" lon="-1.10561">
        <ele>58</ele>
        <time>2020-03-15T16:36:16Z</time>
      </trkpt>
      <trkpt lat="47.01542" lon="-1.1053">
        <ele>58</ele>
        <time>2020-03-15T16:36:44Z</time>
      </trkpt>
      <trkpt lat="47.01535" lon="-1.10505">
        <ele>58</ele>
        <time>2020-03-15T16:37:09Z</time>
      </trkpt>
      <trkpt lat="47.01539" lon="-1.10444">
        <ele>58</ele>
        <time>2020-03-15T16:38:04Z</time>
      </trkpt>
      <trkpt lat="47.0156" lon="-1.10374">
        <ele>61</ele>
        <time>2020-03-15T16:39:14Z</time>
      </trkpt>
      <trkpt lat="47.01564" lon="-1.10342">
        <ele>62</ele>
        <time>2020-03-15T16:39:44Z</time>
      </trkpt>
      <trkpt lat="47.01565" lon="-1.10313">
        <ele>62</ele>
        <time>2020-03-15T16:40:10Z</time>
      </trkpt>
      <trkpt lat="47.01565" lon="-1.10312">
        <ele>63</ele>
        <time>2020-03-15T16:40:11Z</time>
      </trkpt>
      <trkpt lat="47.01572" lon="-1.1016">
        <ele>69</ele>
        <time>2020-03-15T16:42:29Z</time>
      </trkpt>
      <trkpt lat="47.01569" lon="-1.10157">
        <ele>68</ele>
        <time>2020-03-15T16:42:34Z</time>
      </trkpt>
      <trkpt lat="47.01577" lon="-1.10147">
        <ele>70</ele>
        <time>2020-03-15T16:42:48Z</time>
      </trkpt>
      <trkpt lat="47.01587" lon="-1.10118">
        <ele>72</ele>
        <time>2020-03-15T16:43:18Z</time>
      </trkpt>
      <trkpt lat="47.0163" lon="-1.10099">
        <ele>78</ele>
        <time>2020-03-15T16:44:18Z</time>
      </trkpt>
      <trkpt lat="47.01669" lon="-1.10096">
        <ele>83</ele>
        <time>2020-03-15T16:45:10Z</time>
      </trkpt>
      <trkpt lat="47.01689" lon="-1.10087">
        <ele>85</ele>
        <time>2020-03-15T16:45:38Z</time>
      </trkpt>
      <trkpt lat="47.01705" lon="-1.10091">
        <ele>86</ele>
        <time>2020-03-15T16:46:00Z</time>
      </trkpt>
      <trkpt lat="47.0171" lon="-1.10103">
        <ele>86</ele>
        <time>2020-03-15T16:46:12Z</time>
      </trkpt>
      <trkpt lat="47.0172" lon="-1.1011">
        <ele>87</ele>
        <time>2020-03-15T16:46:27Z</time>
      </trkpt>
      <trkpt lat="47.01767" lon="-1.10117">
        <ele>89</ele>
        <time>2020-03-15T16:47:30Z</time>
      </trkpt>
      <trkpt lat="47.01812" lon="-1.10114">
        <ele>90</ele>
        <time>2020-03-15T16:48:30Z</time>
      </trkpt>
      <trkpt lat="47.01804" lon="-1.10038">
        <ele>90</ele>
        <time>2020-03-15T16:49:40Z</time>
      </trkpt>
      <trkpt lat="47.01783" lon="-1.09838">
        <ele>90</ele>
        <time>2020-03-15T16:52:44Z</time>
      </trkpt>
      <trkpt lat="47.01808" lon="-1.09822">
        <ele>91</ele>
        <time>2020-03-15T16:53:21Z</time>
      </trkpt>
      <trkpt lat="47.01809" lon="-1.09822">
        <ele>91</ele>
        <time>2020-03-15T16:53:22Z</time>
      </trkpt>
      <trkpt lat="47.01818" lon="-1.09816">
        <ele>92</ele>
        <time>2020-03-15T16:53:35Z</time>
      </trkpt>
      <trkpt lat="47.01818" lon="-1.09816">
        <ele>92</ele>
        <time>2020-03-15T16:53:35Z</time>
      </trkpt>
      <trkpt lat="47.01798" lon="-1.09721">
        <ele>93</ele>
        <time>2020-03-15T16:55:06Z</time>
      </trkpt>
      <trkpt lat="47.01798" lon="-1.09721">
        <ele>93</ele>
        <time>2020-03-15T16:55:06Z</time>
      </trkpt>
      <trkpt lat="47.01795" lon="-1.09668">
        <ele>92</ele>
        <time>2020-03-15T16:55:54Z</time>
      </trkpt>
      <trkpt lat="47.01795" lon="-1.09668">
        <ele>92</ele>
        <time>2020-03-15T16:55:54Z</time>
      </trkpt>
      <trkpt lat="47.01793" lon="-1.09639">
        <ele>92</ele>
        <time>2020-03-15T16:56:21Z</time>
      </trkpt>
      <trkpt lat="47.01793" lon="-1.09639">
        <ele>92</ele>
        <time>2020-03-15T16:56:21Z</time>
      </trkpt>
      <trkpt lat="47.01786" lon="-1.09623">
        <ele>92</ele>
        <time>2020-03-15T16:56:38Z</time>
      </trkpt>
      <trkpt lat="47.01786" lon="-1.09623">
        <ele>92</ele>
        <time>2020-03-15T16:56:38Z</time>
      </trkpt>
      <trkpt lat="47.01779" lon="-1.09597">
        <ele>91</ele>
        <time>2020-03-15T16:57:03Z</time>
      </trkpt>
      <trkpt lat="47.01779" lon="-1.09597">
        <ele>91</ele>
        <time>2020-03-15T16:57:03Z</time>
      </trkpt>
      <trkpt lat="47.01762" lon="-1.09435">
        <ele>87</ele>
        <time>2020-03-15T16:59:32Z</time>
      </trkpt>
      <trkpt lat="47.01764" lon="-1.09435">
        <ele>87</ele>
        <time>2020-03-15T16:59:35Z</time>
      </trkpt>
      <trkpt lat="47.01786" lon="-1.09414">
        <ele>87</ele>
        <time>2020-03-15T17:00:10Z</time>
      </trkpt>
      <trkpt lat="47.01798" lon="-1.09397">
        <ele>87</ele>
        <time>2020-03-15T17:00:32Z</time>
      </trkpt>
      <trkpt lat="47.01802" lon="-1.09379">
        <ele>87</ele>
        <time>2020-03-15T17:00:50Z</time>
      </trkpt>
      <trkpt lat="47.01784" lon="-1.09353">
        <ele>86</ele>
        <time>2020-03-15T17:01:23Z</time>
      </trkpt>
      <trkpt lat="47.01775" lon="-1.09329">
        <ele>86</ele>
        <time>2020-03-15T17:01:48Z</time>
      </trkpt>
      <trkpt lat="47.01771" lon="-1.09303">
        <ele>87</ele>
        <time>2020-03-15T17:02:13Z</time>
      </trkpt>
      <trkpt lat="47.0177" lon="-1.09236">
        <ele>90</ele>
        <time>2020-03-15T17:03:14Z</time>
      </trkpt>
      <trkpt lat="47.01772" lon="-1.09177">
        <ele>90</ele>
        <time>2020-03-15T17:04:07Z</time>
      </trkpt>
      <trkpt lat="47.01801" lon="-1.09077">
        <ele>87</ele>
        <time>2020-03-15T17:05:46Z</time>
      </trkpt>
      <trkpt lat="47.0183" lon="-1.09031">
        <ele>84</ele>
        <time>2020-03-15T17:06:43Z</time>
      </trkpt>
      <trkpt lat="47.01861" lon="-1.09009">
        <ele>83</ele>
        <time>2020-03-15T17:07:29Z</time>
      </trkpt>
      <trkpt lat="47.01876" lon="-1.09003">
        <ele>83</ele>
        <time>2020-03-15T17:07:50Z</time>
      </trkpt>
      <trkpt lat="47.01877" lon="-1.08994">
        <ele>82</ele>
        <time>2020-03-15T17:07:58Z</time>
      </trkpt>
      <trkpt lat="47.01876" lon="-1.08986">
        <ele>81</ele>
        <time>2020-03-15T17:08:06Z</time>
      </trkpt>
      <trkpt lat="47.01828" lon="-1.08972">
        <ele>78</ele>
        <time>2020-03-15T17:09:11Z</time>
      </trkpt>
      <trkpt lat="47.01761" lon="-1.08962">
        <ele>73</ele>
        <time>2020-03-15T17:10:41Z</time>
      </trkpt>
      <trkpt lat="47.01718" lon="-1.08941">
        <ele>67</ele>
        <time>2020-03-15T17:11:41Z</time>
      </trkpt>
      <trkpt lat="47.01699" lon="-1.08938">
        <ele>64</ele>
        <time>2020-03-15T17:12:07Z</time>
      </trkpt>
      <trkpt lat="47.01678" lon="-1.08942">
        <ele>62</ele>
        <time>2020-03-15T17:12:35Z</time>
      </trkpt>
      <trkpt lat="47.01662" lon="-1.0895">
        <ele>62</ele>
        <time>2020-03-15T17:12:58Z</time>
      </trkpt>
      <trkpt lat="47.01644" lon="-1.08981">
        <ele>63</ele>
        <time>2020-03-15T17:13:35Z</time>
      </trkpt>
      <trkpt lat="47.01621" lon="-1.09054">
        <ele>63</ele>
        <time>2020-03-15T17:14:48Z</time>
      </trkpt>
      <trkpt lat="47.01618" lon="-1.09058">
        <ele>62</ele>
        <time>2020-03-15T17:14:53Z</time>
      </trkpt>
      <trkpt lat="47.01615" lon="-1.09058">
        <ele>62</ele>
        <time>2020-03-15T17:14:57Z</time>
      </trkpt>
      <trkpt lat="47.01611" lon="-1.09056">
        <ele>61</ele>
        <time>2020-03-15T17:15:03Z</time>
      </trkpt>
      <trkpt lat="47.01609" lon="-1.09055">
        <ele>61</ele>
        <time>2020-03-15T17:15:06Z</time>
      </trkpt>
      <trkpt lat="47.01593" lon="-1.09043">
        <ele>58</ele>
        <time>2020-03-15T17:15:30Z</time>
      </trkpt>
      <trkpt lat="47.01584" lon="-1.09048">
        <ele>57</ele>
        <time>2020-03-15T17:15:42Z</time>
      </trkpt>
      <trkpt lat="47.01577" lon="-1.09055">
        <ele>56</ele>
        <time>2020-03-15T17:15:54Z</time>
      </trkpt>
      <trkpt lat="47.0157" lon="-1.09054">
        <ele>56</ele>
        <time>2020-03-15T17:16:03Z</time>
      </trkpt>
      <trkpt lat="47.01555" lon="-1.09019">
        <ele>55</ele>
        <time>2020-03-15T17:16:41Z</time>
      </trkpt>
      <trkpt lat="47.01545" lon="-1.09004">
        <ele>55</ele>
        <time>2020-03-15T17:17:00Z</time>
      </trkpt>
      <trkpt lat="47.01529" lon="-1.08981">
        <ele>55</ele>
        <time>2020-03-15T17:17:30Z</time>
      </trkpt>
      <trkpt lat="47.01492" lon="-1.08921">
        <ele>57</ele>
        <time>2020-03-15T17:18:43Z</time>
      </trkpt>
      <trkpt lat="47.01458" lon="-1.08854">
        <ele>60</ele>
        <time>2020-03-15T17:19:59Z</time>
      </trkpt>
      <trkpt lat="47.01429" lon="-1.0882">
        <ele>57</ele>
        <time>2020-03-15T17:20:49Z</time>
      </trkpt>
      <trkpt lat="47.01405" lon="-1.0877">
        <ele>59</ele>
        <time>2020-03-15T17:21:44Z</time>
      </trkpt>
      <trkpt lat="47.014" lon="-1.08766">
        <ele>58</ele>
        <time>2020-03-15T17:21:52Z</time>
      </trkpt>
      <trkpt lat="47.014" lon="-1.08765">
        <ele>59</ele>
        <time>2020-03-15T17:21:53Z</time>
      </trkpt>
      <trkpt lat="47.01386" lon="-1.08761">
        <ele>58</ele>
        <time>2020-03-15T17:22:12Z</time>
      </trkpt>
      <trkpt lat="47.0137" lon="-1.08751">
        <ele>57</ele>
        <time>2020-03-15T17:22:35Z</time>
      </trkpt>
      <trkpt lat="47.01365" lon="-1.08744">
        <ele>57</ele>
        <time>2020-03-15T17:22:44Z</time>
      </trkpt>
      <trkpt lat="47.01353" lon="-1.08723">
        <ele>57</ele>
        <time>2020-03-15T17:23:09Z</time>
      </trkpt>
      <trkpt lat="47.01335" lon="-1.087">
        <ele>57</ele>
        <time>2020-03-15T17:23:41Z</time>
      </trkpt>
      <trkpt lat="47.01324" lon="-1.08689">
        <ele>58</ele>
        <time>2020-03-15T17:23:59Z</time>
      </trkpt>
      <trkpt lat="47.01311" lon="-1.0867">
        <ele>59</ele>
        <time>2020-03-15T17:24:24Z</time>
      </trkpt>
      <trkpt lat="47.01303" lon="-1.08653">
        <ele>59</ele>
        <time>2020-03-15T17:24:42Z</time>
      </trkpt>
      <trkpt lat="47.01283" lon="-1.08628">
        <ele>59</ele>
        <time>2020-03-15T17:25:17Z</time>
      </trkpt>
      <trkpt lat="47.0128" lon="-1.08608">
        <ele>59</ele>
        <time>2020-03-15T17:25:36Z</time>
      </trkpt>
      <trkpt lat="47.01257" lon="-1.08549">
        <ele>58</ele>
        <time>2020-03-15T17:26:38Z</time>
      </trkpt>
      <trkpt lat="47.01254" lon="-1.08538">
        <ele>58</ele>
        <time>2020-03-15T17:26:49Z</time>
      </trkpt>
      <trkpt lat="47.0124" lon="-1.08522">
        <ele>58</ele>
        <time>2020-03-15T17:27:12Z</time>
      </trkpt>
      <trkpt lat="47.0123" lon="-1.08502">
        <ele>58</ele>
        <time>2020-03-15T17:27:35Z</time>
      </trkpt>
      <trkpt lat="47.01226" lon="-1.08478">
        <ele>58</ele>
        <time>2020-03-15T17:27:57Z</time>
      </trkpt>
      <trkpt lat="47.01231" lon="-1.08428">
        <ele>57</ele>
        <time>2020-03-15T17:28:43Z</time>
      </trkpt>
      <trkpt lat="47.01256" lon="-1.08391">
        <ele>57</ele>
        <time>2020-03-15T17:29:31Z</time>
      </trkpt>
      <trkpt lat="47.01262" lon="-1.08374">
        <ele>57</ele>
        <time>2020-03-15T17:29:48Z</time>
      </trkpt>
      <trkpt lat="47.01311" lon="-1.08333">
        <ele>62</ele>
        <time>2020-03-15T17:31:03Z</time>
      </trkpt>
      <trkpt lat="47.0135" lon="-1.08272">
        <ele>61</ele>
        <time>2020-03-15T17:32:20Z</time>
      </trkpt>
      <trkpt lat="47.01362" lon="-1.08225">
        <ele>61</ele>
        <time>2020-03-15T17:33:05Z</time>
      </trkpt>
      <trkpt lat="47.01362" lon="-1.08176">
        <ele>61</ele>
        <time>2020-03-15T17:33:50Z</time>
      </trkpt>
      <trkpt lat="47.01349" lon="-1.0812">
        <ele>61</ele>
        <time>2020-03-15T17:34:44Z</time>
      </trkpt>
      <trkpt lat="47.01293" lon="-1.0803">
        <ele>62</ele>
        <time>2020-03-15T17:36:34Z</time>
      </trkpt>
      <trkpt lat="47.0123" lon="-1.0794">
        <ele>60</ele>
        <time>2020-03-15T17:38:32Z</time>
      </trkpt>
      <trkpt lat="47.01214" lon="-1.07892">
        <ele>62</ele>
        <time>2020-03-15T17:39:20Z</time>
      </trkpt>
      <trkpt lat="47.01169" lon="-1.07848">
        <ele>58</ele>
        <time>2020-03-15T17:40:33Z</time>
      </trkpt>
      <trkpt lat="47.01157" lon="-1.07808">
        <ele>59</ele>
        <time>2020-03-15T17:41:12Z</time>
      </trkpt>
      <trkpt lat="47.01152" lon="-1.07754">
        <ele>61</ele>
        <time>2020-03-15T17:42:02Z</time>
      </trkpt>
      <trkpt lat="47.01171" lon="-1.07703">
        <ele>65</ele>
        <time>2020-03-15T17:42:55Z</time>
      </trkpt>
      <trkpt lat="47.01169" lon="-1.07688">
        <ele>66</ele>
        <time>2020-03-15T17:43:09Z</time>
      </trkpt>
      <trkpt lat="47.01149" lon="-1.07681">
        <ele>63</ele>
        <time>2020-03-15T17:43:36Z</time>
      </trkpt>
      <trkpt lat="47.01141" lon="-1.07664">
        <ele>63</ele>
        <time>2020-03-15T17:43:55Z</time>
      </trkpt>
      <trkpt lat="47.01138" lon="-1.07594">
        <ele>65</ele>
        <time>2020-03-15T17:44:59Z</time>
      </trkpt>
      <trkpt lat="47.0114" lon="-1.07593">
        <ele>66</ele>
        <time>2020-03-15T17:45:02Z</time>
      </trkpt>
      <trkpt lat="47.01138" lon="-1.07504">
        <ele>67</ele>
        <time>2020-03-15T17:46:23Z</time>
      </trkpt>
      <trkpt lat="47.01138" lon="-1.07504">
        <ele>67</ele>
        <time>2020-03-15T17:46:23Z</time>
      </trkpt>
      <trkpt lat="47.01129" lon="-1.0748">
        <ele>66</ele>
        <time>2020-03-15T17:46:48Z</time>
      </trkpt>
      <trkpt lat="47.01129" lon="-1.0748">
        <ele>66</ele>
        <time>2020-03-15T17:46:48Z</time>
      </trkpt>
      <trkpt lat="47.01121" lon="-1.07433">
        <ele>63</ele>
        <time>2020-03-15T17:47:32Z</time>
      </trkpt>
      <trkpt lat="47.01122" lon="-1.07433">
        <ele>64</ele>
        <time>2020-03-15T17:47:33Z</time>
      </trkpt>
      <trkpt lat="47.01098" lon="-1.07328">
        <ele>59</ele>
        <time>2020-03-15T17:49:14Z</time>
      </trkpt>
      <trkpt lat="47.01091" lon="-1.07289">
        <ele>57</ele>
        <time>2020-03-15T17:49:50Z</time>
      </trkpt>
      <trkpt lat="47.01091" lon="-1.07288">
        <ele>57</ele>
        <time>2020-03-15T17:49:51Z</time>
      </trkpt>
      <trkpt lat="47.01092" lon="-1.07269">
        <ele>57</ele>
        <time>2020-03-15T17:50:09Z</time>
      </trkpt>
      <trkpt lat="47.01092" lon="-1.07269">
        <ele>57</ele>
        <time>2020-03-15T17:50:09Z</time>
      </trkpt>
      <trkpt lat="47.01106" lon="-1.07244">
        <ele>59</ele>
        <time>2020-03-15T17:50:38Z</time>
      </trkpt>
      <trkpt lat="47.01106" lon="-1.07244">
        <ele>59</ele>
        <time>2020-03-15T17:50:38Z</time>
      </trkpt>
      <trkpt lat="47.01122" lon="-1.07215">
        <ele>60</ele>
        <time>2020-03-15T17:51:12Z</time>
      </trkpt>
      <trkpt lat="47.01169" lon="-1.07118">
        <ele>61</ele>
        <time>2020-03-15T17:53:00Z</time>
      </trkpt>
      <trkpt lat="47.01201" lon="-1.07061">
        <ele>64</ele>
        <time>2020-03-15T17:54:08Z</time>
      </trkpt>
      <trkpt lat="47.01243" lon="-1.07017">
        <ele>67</ele>
        <time>2020-03-15T17:55:16Z</time>
      </trkpt>
      <trkpt lat="47.0127" lon="-1.06961">
        <ele>66</ele>
        <time>2020-03-15T17:56:19Z</time>
      </trkpt>
      <trkpt lat="47.01301" lon="-1.06885">
        <ele>66</ele>
        <time>2020-03-15T17:57:39Z</time>
      </trkpt>
      <trkpt lat="47.01319" lon="-1.06818">
        <ele>66</ele>
        <time>2020-03-15T17:58:45Z</time>
      </trkpt>
      <trkpt lat="47.01326" lon="-1.06766">
        <ele>64</ele>
        <time>2020-03-15T17:59:33Z</time>
      </trkpt>
      <trkpt lat="47.01327" lon="-1.06728">
        <ele>62</ele>
        <time>2020-03-15T18:00:08Z</time>
      </trkpt>
      <trkpt lat="47.01334" lon="-1.06726">
        <ele>63</ele>
        <time>2020-03-15T18:00:17Z</time>
      </trkpt>
      <trkpt lat="47.01339" lon="-1.06721">
        <ele>64</ele>
        <time>2020-03-15T18:00:25Z</time>
      </trkpt>
      <trkpt lat="47.01345" lon="-1.06703">
        <ele>64</ele>
        <time>2020-03-15T18:00:44Z</time>
      </trkpt>
      <trkpt lat="47.01348" lon="-1.06687">
        <ele>64</ele>
        <time>2020-03-15T18:00:59Z</time>
      </trkpt>
      <trkpt lat="47.01351" lon="-1.06658">
        <ele>65</ele>
        <time>2020-03-15T18:01:25Z</time>
      </trkpt>
      <trkpt lat="47.01352" lon="-1.06658">
        <ele>65</ele>
        <time>2020-03-15T18:01:27Z</time>
      </trkpt>
      <trkpt lat="47.01349" lon="-1.06631">
        <ele>65</ele>
        <time>2020-03-15T18:01:52Z</time>
      </trkpt>
      <trkpt lat="47.01349" lon="-1.06631">
        <ele>65</ele>
        <time>2020-03-15T18:01:52Z</time>
      </trkpt>
      <trkpt lat="47.01366" lon="-1.06608">
        <ele>70</ele>
        <time>2020-03-15T18:02:22Z</time>
      </trkpt>
      <trkpt lat="47.01366" lon="-1.06608">
        <ele>70</ele>
        <time>2020-03-15T18:02:22Z</time>
      </trkpt>
      <trkpt lat="47.01366" lon="-1.0659">
        <ele>70</ele>
        <time>2020-03-15T18:02:39Z</time>
      </trkpt>
      <trkpt lat="47.01366" lon="-1.0659">
        <ele>70</ele>
        <time>2020-03-15T18:02:39Z</time>
      </trkpt>
      <trkpt lat="47.01371" lon="-1.0658">
        <ele>72</ele>
        <time>2020-03-15T18:02:50Z</time>
      </trkpt>
      <trkpt lat="47.01371" lon="-1.0658">
        <ele>72</ele>
        <time>2020-03-15T18:02:50Z</time>
      </trkpt>
      <trkpt lat="47.01397" lon="-1.06568">
        <ele>77</ele>
        <time>2020-03-15T18:03:26Z</time>
      </trkpt>
      <trkpt lat="47.01397" lon="-1.06567">
        <ele>77</ele>
        <time>2020-03-15T18:03:27Z</time>
      </trkpt>
      <trkpt lat="47.01394" lon="-1.06559">
        <ele>78</ele>
        <time>2020-03-15T18:03:36Z</time>
      </trkpt>
      <trkpt lat="47.01381" lon="-1.06553">
        <ele>76</ele>
        <time>2020-03-15T18:03:54Z</time>
      </trkpt>
      <trkpt lat="47.01372" lon="-1.0656">
        <ele>74</ele>
        <time>2020-03-15T18:04:07Z</time>
      </trkpt>
      <trkpt lat="47.01363" lon="-1.06561">
        <ele>72</ele>
        <time>2020-03-15T18:04:20Z</time>
      </trkpt>
      <trkpt lat="47.01338" lon="-1.06562">
        <ele>68</ele>
        <time>2020-03-15T18:04:53Z</time>
      </trkpt>
      <trkpt lat="47.01333" lon="-1.06558">
        <ele>68</ele>
        <time>2020-03-15T18:05:00Z</time>
      </trkpt>
      <trkpt lat="47.0133" lon="-1.06549">
        <ele>69</ele>
        <time>2020-03-15T18:05:10Z</time>
      </trkpt>
      <trkpt lat="47.01329" lon="-1.06511">
        <ele>75</ele>
        <time>2020-03-15T18:05:44Z</time>
      </trkpt>
      <trkpt lat="47.01324" lon="-1.06504">
        <ele>76</ele>
        <time>2020-03-15T18:05:53Z</time>
      </trkpt>
      <trkpt lat="47.01298" lon="-1.06475">
        <ele>76</ele>
        <time>2020-03-15T18:06:37Z</time>
      </trkpt>
      <trkpt lat="47.0126" lon="-1.06415">
        <ele>79</ele>
        <time>2020-03-15T18:07:52Z</time>
      </trkpt>
      <trkpt lat="47.01249" lon="-1.06403">
        <ele>79</ele>
        <time>2020-03-15T18:08:10Z</time>
      </trkpt>
      <trkpt lat="47.01229" lon="-1.06364">
        <ele>81</ele>
        <time>2020-03-15T18:08:54Z</time>
      </trkpt>
      <trkpt lat="47.01225" lon="-1.06363">
        <ele>81</ele>
        <time>2020-03-15T18:09:00Z</time>
      </trkpt>
      <trkpt lat="47.01205" lon="-1.06364">
        <ele>78</ele>
        <time>2020-03-15T18:09:26Z</time>
      </trkpt>
      <trkpt lat="47.01188" lon="-1.06358">
        <ele>76</ele>
        <time>2020-03-15T18:09:50Z</time>
      </trkpt>
      <trkpt lat="47.01132" lon="-1.06315">
        <ele>72</ele>
        <time>2020-03-15T18:11:14Z</time>
      </trkpt>
      <trkpt lat="47.01098" lon="-1.06279">
        <ele>71</ele>
        <time>2020-03-15T18:12:10Z</time>
      </trkpt>
      <trkpt lat="47.0108" lon="-1.0625">
        <ele>72</ele>
        <time>2020-03-15T18:12:46Z</time>
      </trkpt>
      <trkpt lat="47.01069" lon="-1.0622">
        <ele>72</ele>
        <time>2020-03-15T18:13:17Z</time>
      </trkpt>
      <trkpt lat="47.01036" lon="-1.06161">
        <ele>71</ele>
        <time>2020-03-15T18:14:26Z</time>
      </trkpt>
      <trkpt lat="47.01035" lon="-1.06162">
        <ele>71</ele>
        <time>2020-03-15T18:14:28Z</time>
      </trkpt>
      <trkpt lat="47.00983" lon="-1.06155">
        <ele>64</ele>
        <time>2020-03-15T18:15:37Z</time>
      </trkpt>
      <trkpt lat="47.00983" lon="-1.06155">
        <ele>64</ele>
        <time>2020-03-15T18:15:38Z</time>
      </trkpt>
      <trkpt lat="47.00943" lon="-1.0612">
        <ele>62</ele>
        <time>2020-03-15T18:16:40Z</time>
      </trkpt>
      <trkpt lat="47.00943" lon="-1.0612">
        <ele>62</ele>
        <time>2020-03-15T18:16:40Z</time>
      </trkpt>
      <trkpt lat="47.00928" lon="-1.05979">
        <ele>67</ele>
        <time>2020-03-15T18:18:50Z</time>
      </trkpt>
      <trkpt lat="47.00928" lon="-1.05979">
        <ele>67</ele>
        <time>2020-03-15T18:18:50Z</time>
      </trkpt>
      <trkpt lat="47.00915" lon="-1.0594">
        <ele>68</ele>
        <time>2020-03-15T18:19:29Z</time>
      </trkpt>
      <trkpt lat="47.00908" lon="-1.05916">
        <ele>69</ele>
        <time>2020-03-15T18:19:53Z</time>
      </trkpt>
      <trkpt lat="47.009" lon="-1.05861">
        <ele>69</ele>
        <time>2020-03-15T18:20:44Z</time>
      </trkpt>
      <trkpt lat="47.00901" lon="-1.05838">
        <ele>69</ele>
        <time>2020-03-15T18:21:05Z</time>
      </trkpt>
      <trkpt lat="47.00893" lon="-1.05785">
        <ele>68</ele>
        <time>2020-03-15T18:21:54Z</time>
      </trkpt>
      <trkpt lat="47.00896" lon="-1.0577">
        <ele>68</ele>
        <time>2020-03-15T18:22:09Z</time>
      </trkpt>
      <trkpt lat="47.00895" lon="-1.05769">
        <ele>68</ele>
        <time>2020-03-15T18:22:10Z</time>
      </trkpt>
      <trkpt lat="47.00935" lon="-1.05739">
        <ele>77</ele>
        <time>2020-03-15T18:23:10Z</time>
      </trkpt>
      <trkpt lat="47.00935" lon="-1.05739">
        <ele>77</ele>
        <time>2020-03-15T18:23:10Z</time>
      </trkpt>
      <trkpt lat="47.00929" lon="-1.05716">
        <ele>78</ele>
        <time>2020-03-15T18:23:33Z</time>
      </trkpt>
      <trkpt lat="47.00929" lon="-1.05716">
        <ele>78</ele>
        <time>2020-03-15T18:23:33Z</time>
      </trkpt>
      <trkpt lat="47.00951" lon="-1.05697">
        <ele>83</ele>
        <time>2020-03-15T18:24:07Z</time>
      </trkpt>
      <trkpt lat="47.00951" lon="-1.05698">
        <ele>83</ele>
        <time>2020-03-15T18:24:08Z</time>
      </trkpt>
      <trkpt lat="47.00971" lon="-1.0567">
        <ele>86</ele>
        <time>2020-03-15T18:24:45Z</time>
      </trkpt>
      <trkpt lat="47.00984" lon="-1.05649">
        <ele>88</ele>
        <time>2020-03-15T18:25:11Z</time>
      </trkpt>
      <trkpt lat="47.00992" lon="-1.05612">
        <ele>92</ele>
        <time>2020-03-15T18:25:46Z</time>
      </trkpt>
      <trkpt lat="47.01008" lon="-1.05555">
        <ele>97</ele>
        <time>2020-03-15T18:26:42Z</time>
      </trkpt>
      <trkpt lat="47.01016" lon="-1.0552">
        <ele>99</ele>
        <time>2020-03-15T18:27:16Z</time>
      </trkpt>
      <trkpt lat="47.01027" lon="-1.05493">
        <ele>100</ele>
        <time>2020-03-15T18:27:44Z</time>
      </trkpt>
      <trkpt lat="47.01027" lon="-1.05492">
        <ele>100</ele>
        <time>2020-03-15T18:27:45Z</time>
      </trkpt>
      <trkpt lat="47.01015" lon="-1.05471">
        <ele>101</ele>
        <time>2020-03-15T18:28:10Z</time>
      </trkpt>
      <trkpt lat="47.01015" lon="-1.05472">
        <ele>101</ele>
        <time>2020-03-15T18:28:11Z</time>
      </trkpt>
      <trkpt lat="47.01003" lon="-1.05457">
        <ele>101</ele>
        <time>2020-03-15T18:28:32Z</time>
      </trkpt>
      <trkpt lat="47.0098" lon="-1.05419">
        <ele>101</ele>
        <time>2020-03-15T18:29:18Z</time>
      </trkpt>
      <trkpt lat="47.00953" lon="-1.05351">
        <ele>103</ele>
        <time>2020-03-15T18:30:30Z</time>
      </trkpt>
      <trkpt lat="47.01045" lon="-1.05238">
        <ele>108</ele>
        <time>2020-03-15T18:33:10Z</time>
      </trkpt>
      <trkpt lat="47.01048" lon="-1.05231">
        <ele>108</ele>
        <time>2020-03-15T18:33:17Z</time>
      </trkpt>
      <trkpt lat="47.01048" lon="-1.05224">
        <ele>108</ele>
        <time>2020-03-15T18:33:24Z</time>
      </trkpt>
      <trkpt lat="47.01033" lon="-1.05167">
        <ele>108</ele>
        <time>2020-03-15T18:34:19Z</time>
      </trkpt>
      <trkpt lat="47.01028" lon="-1.05101">
        <ele>108</ele>
        <time>2020-03-15T18:35:20Z</time>
      </trkpt>
      <trkpt lat="47.01005" lon="-1.05012">
        <ele>107</ele>
        <time>2020-03-15T18:36:46Z</time>
      </trkpt>
      <trkpt lat="47.0099" lon="-1.04938">
        <ele>106</ele>
        <time>2020-03-15T18:37:57Z</time>
      </trkpt>
      <trkpt lat="47.00987" lon="-1.04906">
        <ele>105</ele>
        <time>2020-03-15T18:38:26Z</time>
      </trkpt>
      <trkpt lat="47.00987" lon="-1.04872">
        <ele>105</ele>
        <time>2020-03-15T18:38:57Z</time>
      </trkpt>
      <trkpt lat="47.00979" lon="-1.04815">
        <ele>104</ele>
        <time>2020-03-15T18:39:50Z</time>
      </trkpt>
      <trkpt lat="47.00979" lon="-1.04815">
        <ele>104</ele>
        <time>2020-03-15T18:39:50Z</time>
      </trkpt>
      <trkpt lat="47.00972" lon="-1.04797">
        <ele>104</ele>
        <time>2020-03-15T18:40:09Z</time>
      </trkpt>
      <trkpt lat="47.00972" lon="-1.04797">
        <ele>104</ele>
        <time>2020-03-15T18:40:09Z</time>
      </trkpt>
      <trkpt lat="47.00961" lon="-1.048">
        <ele>103</ele>
        <time>2020-03-15T18:40:24Z</time>
      </trkpt>
      <trkpt lat="47.0096" lon="-1.04799">
        <ele>103</ele>
        <time>2020-03-15T18:40:25Z</time>
      </trkpt>
      <trkpt lat="47.00924" lon="-1.04827">
        <ele>101</ele>
        <time>2020-03-15T18:41:20Z</time>
      </trkpt>
      <trkpt lat="47.00879" lon="-1.04847">
        <ele>97</ele>
        <time>2020-03-15T18:42:23Z</time>
      </trkpt>
      <trkpt lat="47.00869" lon="-1.04849">
        <ele>96</ele>
        <time>2020-03-15T18:42:36Z</time>
      </trkpt>
      <trkpt lat="47.00855" lon="-1.04847">
        <ele>95</ele>
        <time>2020-03-15T18:42:55Z</time>
      </trkpt>
      <trkpt lat="47.00834" lon="-1.04832">
        <ele>92</ele>
        <time>2020-03-15T18:43:26Z</time>
      </trkpt>
      <trkpt lat="47.00829" lon="-1.04824">
        <ele>91</ele>
        <time>2020-03-15T18:43:36Z</time>
      </trkpt>
      <trkpt lat="47.00824" lon="-1.04808">
        <ele>89</ele>
        <time>2020-03-15T18:43:52Z</time>
      </trkpt>
      <trkpt lat="47.00819" lon="-1.04784">
        <ele>86</ele>
        <time>2020-03-15T18:44:15Z</time>
      </trkpt>
      <trkpt lat="47.00813" lon="-1.04705">
        <ele>81</ele>
        <time>2020-03-15T18:45:27Z</time>
      </trkpt>
      <trkpt lat="47.00811" lon="-1.04657">
        <ele>79</ele>
        <time>2020-03-15T18:46:11Z</time>
      </trkpt>
      <trkpt lat="47.00808" lon="-1.04636">
        <ele>77</ele>
        <time>2020-03-15T18:46:30Z</time>
      </trkpt>
      <trkpt lat="47.00803" lon="-1.04618">
        <ele>75</ele>
        <time>2020-03-15T18:46:48Z</time>
      </trkpt>
      <trkpt lat="47.00792" lon="-1.04597">
        <ele>73</ele>
        <time>2020-03-15T18:47:12Z</time>
      </trkpt>
      <trkpt lat="47.00785" lon="-1.04589">
        <ele>72</ele>
        <time>2020-03-15T18:47:24Z</time>
      </trkpt>
      <trkpt lat="47.00777" lon="-1.04567">
        <ele>72</ele>
        <time>2020-03-15T18:47:47Z</time>
      </trkpt>
      <trkpt lat="47.00745" lon="-1.04572">
        <ele>66</ele>
        <time>2020-03-15T18:48:30Z</time>
      </trkpt>
      <trkpt lat="47.00737" lon="-1.04564">
        <ele>66</ele>
        <time>2020-03-15T18:48:43Z</time>
      </trkpt>
      <trkpt lat="47.00717" lon="-1.0452">
        <ele>67</ele>
        <time>2020-03-15T18:49:31Z</time>
      </trkpt>
      <trkpt lat="47.0071" lon="-1.04496">
        <ele>67</ele>
        <time>2020-03-15T18:49:54Z</time>
      </trkpt>
      <trkpt lat="47.00708" lon="-1.04481">
        <ele>67</ele>
        <time>2020-03-15T18:50:08Z</time>
      </trkpt>
      <trkpt lat="47.00711" lon="-1.04464">
        <ele>68</ele>
        <time>2020-03-15T18:50:24Z</time>
      </trkpt>
      <trkpt lat="47.00699" lon="-1.04441">
        <ele>68</ele>
        <time>2020-03-15T18:50:51Z</time>
      </trkpt>
      <trkpt lat="47.00674" lon="-1.044">
        <ele>69</ele>
        <time>2020-03-15T18:51:41Z</time>
      </trkpt>
      <trkpt lat="47.00674" lon="-1.04395">
        <ele>70</ele>
        <time>2020-03-15T18:51:45Z</time>
      </trkpt>
      <trkpt lat="47.00671" lon="-1.04394">
        <ele>70</ele>
        <time>2020-03-15T18:51:49Z</time>
      </trkpt>
      <trkpt lat="47.00632" lon="-1.04341">
        <ele>70</ele>
        <time>2020-03-15T18:53:00Z</time>
      </trkpt>
      <trkpt lat="47.00625" lon="-1.04329">
        <ele>70</ele>
        <time>2020-03-15T18:53:15Z</time>
      </trkpt>
      <trkpt lat="47.00617" lon="-1.04305">
        <ele>69</ele>
        <time>2020-03-15T18:53:39Z</time>
      </trkpt>
      <trkpt lat="47.00612" lon="-1.04301">
        <ele>69</ele>
        <time>2020-03-15T18:53:47Z</time>
      </trkpt>
      <trkpt lat="47.00585" lon="-1.04293">
        <ele>65</ele>
        <time>2020-03-15T18:54:23Z</time>
      </trkpt>
      <trkpt lat="47.00552" lon="-1.04287">
        <ele>62</ele>
        <time>2020-03-15T18:55:08Z</time>
      </trkpt>
      <trkpt lat="47.00543" lon="-1.04285">
        <ele>61</ele>
        <time>2020-03-15T18:55:20Z</time>
      </trkpt>
      <trkpt lat="47.00522" lon="-1.04275">
        <ele>59</ele>
        <time>2020-03-15T18:55:49Z</time>
      </trkpt>
      <trkpt lat="47.00472" lon="-1.04249">
        <ele>58</ele>
        <time>2020-03-15T18:57:00Z</time>
      </trkpt>
      <trkpt lat="47.00449" lon="-1.04231">
        <ele>60</ele>
        <time>2020-03-15T18:57:35Z</time>
      </trkpt>
      <trkpt lat="47.0043" lon="-1.04209">
        <ele>61</ele>
        <time>2020-03-15T18:58:07Z</time>
      </trkpt>
      <trkpt lat="47.00425" lon="-1.042">
        <ele>62</ele>
        <time>2020-03-15T18:58:18Z</time>
      </trkpt>
      <trkpt lat="47.00426" lon="-1.04197">
        <ele>62</ele>
        <time>2020-03-15T18:58:21Z</time>
      </trkpt>
      <trkpt lat="47.00411" lon="-1.04161">
        <ele>65</ele>
        <time>2020-03-15T18:58:59Z</time>
      </trkpt>
      <trkpt lat="47.00411" lon="-1.04138">
        <ele>66</ele>
        <time>2020-03-15T18:59:20Z</time>
      </trkpt>
      <trkpt lat="47.0043" lon="-1.04087">
        <ele>67</ele>
        <time>2020-03-15T19:00:13Z</time>
      </trkpt>
      <trkpt lat="47.00438" lon="-1.04058">
        <ele>68</ele>
        <time>2020-03-15T19:00:41Z</time>
      </trkpt>
      <trkpt lat="47.00447" lon="-1.04019">
        <ele>68</ele>
        <time>2020-03-15T19:01:19Z</time>
      </trkpt>
      <trkpt lat="47.00449" lon="-1.04">
        <ele>69</ele>
        <time>2020-03-15T19:01:36Z</time>
      </trkpt>
      <trkpt lat="47.00448" lon="-1.03992">
        <ele>69</ele>
        <time>2020-03-15T19:01:44Z</time>
      </trkpt>
      <trkpt lat="47.00446" lon="-1.03983">
        <ele>69</ele>
        <time>2020-03-15T19:01:52Z</time>
      </trkpt>
      <trkpt lat="47.0043" lon="-1.03952">
        <ele>71</ele>
        <time>2020-03-15T19:02:28Z</time>
      </trkpt>
      <trkpt lat="47.00403" lon="-1.03912">
        <ele>75</ele>
        <time>2020-03-15T19:03:19Z</time>
      </trkpt>
      <trkpt lat="47.00402" lon="-1.03904">
        <ele>75</ele>
        <time>2020-03-15T19:03:26Z</time>
      </trkpt>
      <trkpt lat="47.00406" lon="-1.03887">
        <ele>74</ele>
        <time>2020-03-15T19:03:43Z</time>
      </trkpt>
      <trkpt lat="47.00405" lon="-1.03865">
        <ele>74</ele>
        <time>2020-03-15T19:04:03Z</time>
      </trkpt>
      <trkpt lat="47.00386" lon="-1.03737">
        <ele>71</ele>
        <time>2020-03-15T19:06:02Z</time>
      </trkpt>
      <trkpt lat="47.00387" lon="-1.03736">
        <ele>71</ele>
        <time>2020-03-15T19:06:04Z</time>
      </trkpt>
      <trkpt lat="47.00373" lon="-1.03729">
        <ele>73</ele>
        <time>2020-03-15T19:06:23Z</time>
      </trkpt>
      <trkpt lat="47.00373" lon="-1.03729">
        <ele>73</ele>
        <time>2020-03-15T19:06:23Z</time>
      </trkpt>
      <trkpt lat="47.00357" lon="-1.03695">
        <ele>74</ele>
        <time>2020-03-15T19:07:01Z</time>
      </trkpt>
      <trkpt lat="47.00357" lon="-1.03695">
        <ele>74</ele>
        <time>2020-03-15T19:07:01Z</time>
      </trkpt>
      <trkpt lat="47.00345" lon="-1.03653">
        <ele>74</ele>
        <time>2020-03-15T19:07:42Z</time>
      </trkpt>
      <trkpt lat="47.00345" lon="-1.03653">
        <ele>74</ele>
        <time>2020-03-15T19:07:43Z</time>
      </trkpt>
      <trkpt lat="47.00337" lon="-1.0358">
        <ele>74</ele>
        <time>2020-03-15T19:08:50Z</time>
      </trkpt>
      <trkpt lat="47.00337" lon="-1.0358">
        <ele>74</ele>
        <time>2020-03-15T19:08:50Z</time>
      </trkpt>
      <trkpt lat="47.00331" lon="-1.03505">
        <ele>70</ele>
        <time>2020-03-15T19:09:59Z</time>
      </trkpt>
      <trkpt lat="47.00331" lon="-1.03505">
        <ele>70</ele>
        <time>2020-03-15T19:09:59Z</time>
      </trkpt>
      <trkpt lat="47.00325" lon="-1.03433">
        <ele>68</ele>
        <time>2020-03-15T19:11:05Z</time>
      </trkpt>
      <trkpt lat="47.00325" lon="-1.03433">
        <ele>68</ele>
        <time>2020-03-15T19:11:05Z</time>
      </trkpt>
      <trkpt lat="47.00331" lon="-1.03408">
        <ele>66</ele>
        <time>2020-03-15T19:11:29Z</time>
      </trkpt>
      <trkpt lat="47.00331" lon="-1.03409">
        <ele>66</ele>
        <time>2020-03-15T19:11:30Z</time>
      </trkpt>
      <trkpt lat="47.00374" lon="-1.0332">
        <ele>65</ele>
        <time>2020-03-15T19:13:09Z</time>
      </trkpt>
      <trkpt lat="47.00408" lon="-1.03192">
        <ele>61</ele>
        <time>2020-03-15T19:15:14Z</time>
      </trkpt>
      <trkpt lat="47.00385" lon="-1.02876">
        <ele>68</ele>
        <time>2020-03-15T19:20:03Z</time>
      </trkpt>
      <trkpt lat="47.00374" lon="-1.02796">
        <ele>70</ele>
        <time>2020-03-15T19:21:18Z</time>
      </trkpt>
      <trkpt lat="47.00366" lon="-1.02687">
        <ele>74</ele>
        <time>2020-03-15T19:22:57Z</time>
      </trkpt>
      <trkpt lat="47.00372" lon="-1.02445">
        <ele>71</ele>
        <time>2020-03-15T19:26:38Z</time>
      </trkpt>
      <trkpt lat="47.00373" lon="-1.02443">
        <ele>71</ele>
        <time>2020-03-15T19:26:40Z</time>
      </trkpt>
      <trkpt lat="47.00373" lon="-1.02442">
        <ele>71</ele>
        <time>2020-03-15T19:26:41Z</time>
      </trkpt>
      <trkpt lat="47.0037" lon="-1.0243">
        <ele>71</ele>
        <time>2020-03-15T19:26:52Z</time>
      </trkpt>
      <trkpt lat="47.0037" lon="-1.0243">
        <ele>71</ele>
        <time>2020-03-15T19:26:52Z</time>
      </trkpt>
      <trkpt lat="47.0038" lon="-1.02426">
        <ele>69</ele>
        <time>2020-03-15T19:27:06Z</time>
      </trkpt>
      <trkpt lat="47.0038" lon="-1.02426">
        <ele>69</ele>
        <time>2020-03-15T19:27:06Z</time>
      </trkpt>
      <trkpt lat="47.00387" lon="-1.02358">
        <ele>68</ele>
        <time>2020-03-15T19:28:09Z</time>
      </trkpt>
      <trkpt lat="47.00387" lon="-1.02358">
        <ele>68</ele>
        <time>2020-03-15T19:28:09Z</time>
      </trkpt>
      <trkpt lat="47.00389" lon="-1.0229">
        <ele>68</ele>
        <time>2020-03-15T19:29:11Z</time>
      </trkpt>
      <trkpt lat="47.00389" lon="-1.0229">
        <ele>68</ele>
        <time>2020-03-15T19:29:11Z</time>
      </trkpt>
      <trkpt lat="47.00393" lon="-1.02263">
        <ele>67</ele>
        <time>2020-03-15T19:29:36Z</time>
      </trkpt>
      <trkpt lat="47.00391" lon="-1.02262">
        <ele>67</ele>
        <time>2020-03-15T19:29:39Z</time>
      </trkpt>
      <trkpt lat="47.00404" lon="-1.02235">
        <ele>64</ele>
        <time>2020-03-15T19:30:09Z</time>
      </trkpt>
      <trkpt lat="47.00434" lon="-1.02204">
        <ele>61</ele>
        <time>2020-03-15T19:30:58Z</time>
      </trkpt>
      <trkpt lat="47.00444" lon="-1.02199">
        <ele>62</ele>
        <time>2020-03-15T19:31:12Z</time>
      </trkpt>
      <trkpt lat="47.00461" lon="-1.02183">
        <ele>62</ele>
        <time>2020-03-15T19:31:39Z</time>
      </trkpt>
      <trkpt lat="47.0047" lon="-1.02162">
        <ele>62</ele>
        <time>2020-03-15T19:32:02Z</time>
      </trkpt>
      <trkpt lat="47.0048" lon="-1.0212">
        <ele>62</ele>
        <time>2020-03-15T19:32:42Z</time>
      </trkpt>
      <trkpt lat="47.00494" lon="-1.02023">
        <ele>65</ele>
        <time>2020-03-15T19:34:12Z</time>
      </trkpt>
      <trkpt lat="47.00501" lon="-1.01951">
        <ele>66</ele>
        <time>2020-03-15T19:35:18Z</time>
      </trkpt>
      <trkpt lat="47.005" lon="-1.01915">
        <ele>66</ele>
        <time>2020-03-15T19:35:51Z</time>
      </trkpt>
      <trkpt lat="47.00497" lon="-1.01886">
        <ele>65</ele>
        <time>2020-03-15T19:36:18Z</time>
      </trkpt>
      <trkpt lat="47.00491" lon="-1.01856">
        <ele>64</ele>
        <time>2020-03-15T19:36:46Z</time>
      </trkpt>
      <trkpt lat="47.00483" lon="-1.01828">
        <ele>63</ele>
        <time>2020-03-15T19:37:14Z</time>
      </trkpt>
      <trkpt lat="47.00463" lon="-1.01795">
        <ele>62</ele>
        <time>2020-03-15T19:37:54Z</time>
      </trkpt>
      <trkpt lat="47.00419" lon="-1.01751">
        <ele>59</ele>
        <time>2020-03-15T19:39:05Z</time>
      </trkpt>
      <trkpt lat="47.00403" lon="-1.01738">
        <ele>60</ele>
        <time>2020-03-15T19:39:30Z</time>
      </trkpt>
      <trkpt lat="47.00391" lon="-1.01733">
        <ele>60</ele>
        <time>2020-03-15T19:39:46Z</time>
      </trkpt>
      <trkpt lat="47.00354" lon="-1.01697">
        <ele>61</ele>
        <time>2020-03-15T19:40:46Z</time>
      </trkpt>
      <trkpt lat="47.00325" lon="-1.01674">
        <ele>61</ele>
        <time>2020-03-15T19:41:30Z</time>
      </trkpt>
      <trkpt lat="47.00316" lon="-1.01671">
        <ele>62</ele>
        <time>2020-03-15T19:41:42Z</time>
      </trkpt>
      <trkpt lat="47.00314" lon="-1.01668">
        <ele>62</ele>
        <time>2020-03-15T19:41:46Z</time>
      </trkpt>
      <trkpt lat="47.00307" lon="-1.01651">
        <ele>62</ele>
        <time>2020-03-15T19:42:04Z</time>
      </trkpt>
      <trkpt lat="47.00262" lon="-1.01575">
        <ele>60</ele>
        <time>2020-03-15T19:43:35Z</time>
      </trkpt>
      <trkpt lat="47.0029" lon="-1.01526">
        <ele>63</ele>
        <time>2020-03-15T19:44:34Z</time>
      </trkpt>
      <trkpt lat="47.00291" lon="-1.01523">
        <ele>63</ele>
        <time>2020-03-15T19:44:37Z</time>
      </trkpt>
      <trkpt lat="47.0029" lon="-1.0152">
        <ele>63</ele>
        <time>2020-03-15T19:44:40Z</time>
      </trkpt>
      <trkpt lat="47.00285" lon="-1.01523">
        <ele>63</ele>
        <time>2020-03-15T19:44:47Z</time>
      </trkpt>
      <trkpt lat="47.00283" lon="-1.01522">
        <ele>63</ele>
        <time>2020-03-15T19:44:50Z</time>
      </trkpt>
      <trkpt lat="47.00256" lon="-1.0149">
        <ele>62</ele>
        <time>2020-03-15T19:45:36Z</time>
      </trkpt>
      <trkpt lat="47.00198" lon="-1.01433">
        <ele>62</ele>
        <time>2020-03-15T19:47:09Z</time>
      </trkpt>
      <trkpt lat="47.00187" lon="-1.01424">
        <ele>62</ele>
        <time>2020-03-15T19:47:26Z</time>
      </trkpt>
      <trkpt lat="47.0018" lon="-1.01415">
        <ele>61</ele>
        <time>2020-03-15T19:47:38Z</time>
      </trkpt>
      <trkpt lat="47.0018" lon="-1.01279">
        <ele>64</ele>
        <time>2020-03-15T19:49:42Z</time>
      </trkpt>
      <trkpt lat="47.00183" lon="-1.01242">
        <ele>66</ele>
        <time>2020-03-15T19:50:16Z</time>
      </trkpt>
      <trkpt lat="47.00188" lon="-1.0122">
        <ele>65</ele>
        <time>2020-03-15T19:50:37Z</time>
      </trkpt>
      <trkpt lat="47.00217" lon="-1.01178">
        <ele>67</ele>
        <time>2020-03-15T19:51:32Z</time>
      </trkpt>
      <trkpt lat="47.00224" lon="-1.01164">
        <ele>67</ele>
        <time>2020-03-15T19:51:47Z</time>
      </trkpt>
      <trkpt lat="47.00226" lon="-1.01152">
        <ele>67</ele>
        <time>2020-03-15T19:51:59Z</time>
      </trkpt>
      <trkpt lat="47.00225" lon="-1.0112">
        <ele>66</ele>
        <time>2020-03-15T19:52:28Z</time>
      </trkpt>
      <trkpt lat="47.00227" lon="-1.01114">
        <ele>67</ele>
        <time>2020-03-15T19:52:34Z</time>
      </trkpt>
      <trkpt lat="47.00224" lon="-1.01108">
        <ele>66</ele>
        <time>2020-03-15T19:52:41Z</time>
      </trkpt>
      <trkpt lat="47.00224" lon="-1.0109">
        <ele>66</ele>
        <time>2020-03-15T19:52:57Z</time>
      </trkpt>
      <trkpt lat="47.0022" lon="-1.01056">
        <ele>65</ele>
        <time>2020-03-15T19:53:28Z</time>
      </trkpt>
      <trkpt lat="47.00222" lon="-1.01002">
        <ele>66</ele>
        <time>2020-03-15T19:54:18Z</time>
      </trkpt>
      <trkpt lat="47.00224" lon="-1.00989">
        <ele>66</ele>
        <time>2020-03-15T19:54:30Z</time>
      </trkpt>
      <trkpt lat="47.00224" lon="-1.0092">
        <ele>66</ele>
        <time>2020-03-15T19:55:33Z</time>
      </trkpt>
      <trkpt lat="47.00226" lon="-1.00776">
        <ele>67</ele>
        <time>2020-03-15T19:57:44Z</time>
      </trkpt>
      <trkpt lat="47.0022" lon="-1.00696">
        <ele>66</ele>
        <time>2020-03-15T19:58:57Z</time>
      </trkpt>
      <trkpt lat="47.00221" lon="-1.0066">
        <ele>67</ele>
        <time>2020-03-15T19:59:30Z</time>
      </trkpt>
      <trkpt lat="47.00216" lon="-1.00632">
        <ele>66</ele>
        <time>2020-03-15T19:59:56Z</time>
      </trkpt>
      <trkpt lat="47.0022" lon="-1.00607">
        <ele>67</ele>
        <time>2020-03-15T20:00:19Z</time>
      </trkpt>
      <trkpt lat="47.00222" lon="-1.00554">
        <ele>68</ele>
        <time>2020-03-15T20:01:08Z</time>
      </trkpt>
      <trkpt lat="47.00226" lon="-1.00521">
        <ele>70</ele>
        <time>2020-03-15T20:01:38Z</time>
      </trkpt>
      <trkpt lat="47.00222" lon="-1.00481">
        <ele>70</ele>
        <time>2020-03-15T20:02:15Z</time>
      </trkpt>
      <trkpt lat="47.00218" lon="-1.00455">
        <ele>70</ele>
        <time>2020-03-15T20:02:39Z</time>
      </trkpt>
      <trkpt lat="47.00217" lon="-1.00422">
        <ele>71</ele>
        <time>2020-03-15T20:03:09Z</time>
      </trkpt>
      <trkpt lat="47.00211" lon="-1.00389">
        <ele>70</ele>
        <time>2020-03-15T20:03:40Z</time>
      </trkpt>
      <trkpt lat="47.00205" lon="-1.00377">
        <ele>69</ele>
        <time>2020-03-15T20:03:54Z</time>
      </trkpt>
      <trkpt lat="47.00197" lon="-1.00349">
        <ele>68</ele>
        <time>2020-03-15T20:04:22Z</time>
      </trkpt>
      <trkpt lat="47.0019" lon="-1.00332">
        <ele>66</ele>
        <time>2020-03-15T20:04:40Z</time>
      </trkpt>
      <trkpt lat="47.00182" lon="-1.00298">
        <ele>65</ele>
        <time>2020-03-15T20:05:12Z</time>
      </trkpt>
      <trkpt lat="47.00176" lon="-1.00278">
        <ele>64</ele>
        <time>2020-03-15T20:05:32Z</time>
      </trkpt>
      <trkpt lat="47.0017" lon="-1.00254">
        <ele>63</ele>
        <time>2020-03-15T20:05:55Z</time>
      </trkpt>
      <trkpt lat="47.00172" lon="-1.00247">
        <ele>63</ele>
        <time>2020-03-15T20:06:02Z</time>
      </trkpt>
      <trkpt lat="47.00171" lon="-1.00241">
        <ele>64</ele>
        <time>2020-03-15T20:06:08Z</time>
      </trkpt>
      <trkpt lat="47.00166" lon="-1.00235">
        <ele>63</ele>
        <time>2020-03-15T20:06:17Z</time>
      </trkpt>
      <trkpt lat="47.00162" lon="-1.0022">
        <ele>64</ele>
        <time>2020-03-15T20:06:31Z</time>
      </trkpt>
      <trkpt lat="47.00152" lon="-1.002">
        <ele>65</ele>
        <time>2020-03-15T20:06:54Z</time>
      </trkpt>
      <trkpt lat="47.00144" lon="-1.00186">
        <ele>65</ele>
        <time>2020-03-15T20:07:10Z</time>
      </trkpt>
      <trkpt lat="47.00135" lon="-1.00165">
        <ele>66</ele>
        <time>2020-03-15T20:07:33Z</time>
      </trkpt>
      <trkpt lat="47.0013" lon="-1.00147">
        <ele>66</ele>
        <time>2020-03-15T20:07:51Z</time>
      </trkpt>
      <trkpt lat="47.0013" lon="-1.00124">
        <ele>68</ele>
        <time>2020-03-15T20:08:12Z</time>
      </trkpt>
      <trkpt lat="47.00124" lon="-1.00062">
        <ele>70</ele>
        <time>2020-03-15T20:09:09Z</time>
      </trkpt>
      <trkpt lat="47.00122" lon="-1.00021">
        <ele>70</ele>
        <time>2020-03-15T20:09:46Z</time>
      </trkpt>
      <trkpt lat="47.00124" lon="-0.99989">
        <ele>70</ele>
        <time>2020-03-15T20:10:15Z</time>
      </trkpt>
      <trkpt lat="47.00133" lon="-0.99905">
        <ele>69</ele>
        <time>2020-03-15T20:11:33Z</time>
      </trkpt>
      <trkpt lat="47.00139" lon="-0.99881">
        <ele>70</ele>
        <time>2020-03-15T20:11:56Z</time>
      </trkpt>
      <trkpt lat="47.00147" lon="-0.99868">
        <ele>72</ele>
        <time>2020-03-15T20:12:12Z</time>
      </trkpt>
      <trkpt lat="47.00147" lon="-0.99867">
        <ele>72</ele>
        <time>2020-03-15T20:12:13Z</time>
      </trkpt>
      <trkpt lat="47.00146" lon="-0.99841">
        <ele>72</ele>
        <time>2020-03-15T20:12:37Z</time>
      </trkpt>
      <trkpt lat="47.00146" lon="-0.99841">
        <ele>72</ele>
        <time>2020-03-15T20:12:37Z</time>
      </trkpt>
      <trkpt lat="47.00139" lon="-0.99816">
        <ele>72</ele>
        <time>2020-03-15T20:13:01Z</time>
      </trkpt>
      <trkpt lat="47.00139" lon="-0.99816">
        <ele>72</ele>
        <time>2020-03-15T20:13:01Z</time>
      </trkpt>
      <trkpt lat="47.00131" lon="-0.99802">
        <ele>72</ele>
        <time>2020-03-15T20:13:18Z</time>
      </trkpt>
      <trkpt lat="47.00117" lon="-0.99784">
        <ele>71</ele>
        <time>2020-03-15T20:13:43Z</time>
      </trkpt>
      <trkpt lat="47.00117" lon="-0.99772">
        <ele>71</ele>
        <time>2020-03-15T20:13:54Z</time>
      </trkpt>
      <trkpt lat="47.00115" lon="-0.99761">
        <ele>72</ele>
        <time>2020-03-15T20:14:04Z</time>
      </trkpt>
      <trkpt lat="47.0011" lon="-0.99752">
        <ele>71</ele>
        <time>2020-03-15T20:14:14Z</time>
      </trkpt>
      <trkpt lat="47.00096" lon="-0.99689">
        <ele>70</ele>
        <time>2020-03-15T20:15:15Z</time>
      </trkpt>
      <trkpt lat="47.0009" lon="-0.99626">
        <ele>68</ele>
        <time>2020-03-15T20:16:13Z</time>
      </trkpt>
      <trkpt lat="47.00091" lon="-0.99618">
        <ele>68</ele>
        <time>2020-03-15T20:16:20Z</time>
      </trkpt>
      <trkpt lat="47.00097" lon="-0.9961">
        <ele>70</ele>
        <time>2020-03-15T20:16:31Z</time>
      </trkpt>
      <trkpt lat="47.00097" lon="-0.99604">
        <ele>70</ele>
        <time>2020-03-15T20:16:36Z</time>
      </trkpt>
      <trkpt lat="47.00099" lon="-0.99603">
        <ele>70</ele>
        <time>2020-03-15T20:16:39Z</time>
      </trkpt>
      <trkpt lat="47.00098" lon="-0.99593">
        <ele>70</ele>
        <time>2020-03-15T20:16:48Z</time>
      </trkpt>
      <trkpt lat="47.00092" lon="-0.99576">
        <ele>69</ele>
        <time>2020-03-15T20:17:06Z</time>
      </trkpt>
      <trkpt lat="47.0009" lon="-0.99561">
        <ele>69</ele>
        <time>2020-03-15T20:17:20Z</time>
      </trkpt>
      <trkpt lat="47.00088" lon="-0.99561">
        <ele>68</ele>
        <time>2020-03-15T20:17:22Z</time>
      </trkpt>
      <trkpt lat="47.00083" lon="-0.99538">
        <ele>69</ele>
        <time>2020-03-15T20:17:44Z</time>
      </trkpt>
      <trkpt lat="47.00081" lon="-0.99516">
        <ele>70</ele>
        <time>2020-03-15T20:18:04Z</time>
      </trkpt>
      <trkpt lat="47.00076" lon="-0.99497">
        <ele>70</ele>
        <time>2020-03-15T20:18:23Z</time>
      </trkpt>
      <trkpt lat="47.00075" lon="-0.99491">
        <ele>70</ele>
        <time>2020-03-15T20:18:29Z</time>
      </trkpt>
      <trkpt lat="47.00072" lon="-0.99487">
        <ele>70</ele>
        <time>2020-03-15T20:18:34Z</time>
      </trkpt>
      <trkpt lat="47.00071" lon="-0.99479">
        <ele>71</ele>
        <time>2020-03-15T20:18:41Z</time>
      </trkpt>
      <trkpt lat="47.00071" lon="-0.99459">
        <ele>71</ele>
        <time>2020-03-15T20:19:00Z</time>
      </trkpt>
      <trkpt lat="47.00083" lon="-0.99428">
        <ele>74</ele>
        <time>2020-03-15T20:19:32Z</time>
      </trkpt>
      <trkpt lat="47.00084" lon="-0.99413">
        <ele>75</ele>
        <time>2020-03-15T20:19:46Z</time>
      </trkpt>
      <trkpt lat="47.00083" lon="-0.994">
        <ele>75</ele>
        <time>2020-03-15T20:19:58Z</time>
      </trkpt>
      <trkpt lat="47.00079" lon="-0.99388">
        <ele>74</ele>
        <time>2020-03-15T20:20:10Z</time>
      </trkpt>
      <trkpt lat="47.00079" lon="-0.99377">
        <ele>74</ele>
        <time>2020-03-15T20:20:20Z</time>
      </trkpt>
      <trkpt lat="47.00073" lon="-0.99355">
        <ele>73</ele>
        <time>2020-03-15T20:20:41Z</time>
      </trkpt>
      <trkpt lat="47.00066" lon="-0.99338">
        <ele>72</ele>
        <time>2020-03-15T20:21:00Z</time>
      </trkpt>
      <trkpt lat="47.0005" lon="-0.9931">
        <ele>70</ele>
        <time>2020-03-15T20:21:33Z</time>
      </trkpt>
      <trkpt lat="47.00046" lon="-0.99282">
        <ele>70</ele>
        <time>2020-03-15T20:21:59Z</time>
      </trkpt>
      <trkpt lat="47.00037" lon="-0.99272">
        <ele>69</ele>
        <time>2020-03-15T20:22:14Z</time>
      </trkpt>
      <trkpt lat="47.00027" lon="-0.99255">
        <ele>67</ele>
        <time>2020-03-15T20:22:34Z</time>
      </trkpt>
      <trkpt lat="47.00026" lon="-0.99231">
        <ele>69</ele>
        <time>2020-03-15T20:22:56Z</time>
      </trkpt>
      <trkpt lat="47.00023" lon="-0.99226">
        <ele>69</ele>
        <time>2020-03-15T20:23:02Z</time>
      </trkpt>
      <trkpt lat="47.00001" lon="-0.99198">
        <ele>67</ele>
        <time>2020-03-15T20:23:41Z</time>
      </trkpt>
      <trkpt lat="46.99988" lon="-0.9917">
        <ele>69</ele>
        <time>2020-03-15T20:24:12Z</time>
      </trkpt>
      <trkpt lat="46.99983" lon="-0.9915">
        <ele>70</ele>
        <time>2020-03-15T20:24:31Z</time>
      </trkpt>
      <trkpt lat="46.99977" lon="-0.99115">
        <ele>72</ele>
        <time>2020-03-15T20:25:04Z</time>
      </trkpt>
      <trkpt lat="46.99973" lon="-0.99077">
        <ele>72</ele>
        <time>2020-03-15T20:25:39Z</time>
      </trkpt>
      <trkpt lat="46.99971" lon="-0.98993">
        <ele>71</ele>
        <time>2020-03-15T20:26:56Z</time>
      </trkpt>
      <trkpt lat="46.99967" lon="-0.98928">
        <ele>68</ele>
        <time>2020-03-15T20:27:55Z</time>
      </trkpt>
      <trkpt lat="46.99971" lon="-0.98918">
        <ele>68</ele>
        <time>2020-03-15T20:28:06Z</time>
      </trkpt>
      <trkpt lat="46.99978" lon="-0.98906">
        <ele>69</ele>
        <time>2020-03-15T20:28:20Z</time>
      </trkpt>
      <trkpt lat="46.99999" lon="-0.98893">
        <ele>72</ele>
        <time>2020-03-15T20:28:50Z</time>
      </trkpt>
      <trkpt lat="47.00003" lon="-0.98881">
        <ele>73</ele>
        <time>2020-03-15T20:29:03Z</time>
      </trkpt>
      <trkpt lat="47.00002" lon="-0.98864">
        <ele>73</ele>
        <time>2020-03-15T20:29:18Z</time>
      </trkpt>
      <trkpt lat="46.99997" lon="-0.98847">
        <ele>72</ele>
        <time>2020-03-15T20:29:35Z</time>
      </trkpt>
      <trkpt lat="46.99985" lon="-0.98835">
        <ele>70</ele>
        <time>2020-03-15T20:29:54Z</time>
      </trkpt>
      <trkpt lat="46.99952" lon="-0.98761">
        <ele>67</ele>
        <time>2020-03-15T20:31:15Z</time>
      </trkpt>
      <trkpt lat="46.99946" lon="-0.98757">
        <ele>65</ele>
        <time>2020-03-15T20:31:24Z</time>
      </trkpt>
      <trkpt lat="46.99936" lon="-0.98755">
        <ele>64</ele>
        <time>2020-03-15T20:31:37Z</time>
      </trkpt>
      <trkpt lat="46.99928" lon="-0.98739">
        <ele>63</ele>
        <time>2020-03-15T20:31:55Z</time>
      </trkpt>
      <trkpt lat="46.99925" lon="-0.98729">
        <ele>62</ele>
        <time>2020-03-15T20:32:05Z</time>
      </trkpt>
      <trkpt lat="46.99923" lon="-0.98696">
        <ele>63</ele>
        <time>2020-03-15T20:32:35Z</time>
      </trkpt>
      <trkpt lat="46.99913" lon="-0.98662">
        <ele>63</ele>
        <time>2020-03-15T20:33:09Z</time>
      </trkpt>
      <trkpt lat="46.9991" lon="-0.98646">
        <ele>64</ele>
        <time>2020-03-15T20:33:24Z</time>
      </trkpt>
      <trkpt lat="46.99889" lon="-0.98519">
        <ele>67</ele>
        <time>2020-03-15T20:35:23Z</time>
      </trkpt>
      <trkpt lat="46.99881" lon="-0.98492">
        <ele>68</ele>
        <time>2020-03-15T20:35:50Z</time>
      </trkpt>
      <trkpt lat="46.99844" lon="-0.98403">
        <ele>68</ele>
        <time>2020-03-15T20:37:25Z</time>
      </trkpt>
      <trkpt lat="46.99837" lon="-0.98367">
        <ele>69</ele>
        <time>2020-03-15T20:37:59Z</time>
      </trkpt>
      <trkpt lat="46.99836" lon="-0.98367">
        <ele>68</ele>
        <time>2020-03-15T20:38:00Z</time>
      </trkpt>
      <trkpt lat="46.9983" lon="-0.98336">
        <ele>70</ele>
        <time>2020-03-15T20:38:29Z</time>
      </trkpt>
      <trkpt lat="46.9983" lon="-0.98336">
        <ele>70</ele>
        <time>2020-03-15T20:38:29Z</time>
      </trkpt>
      <trkpt lat="46.99822" lon="-0.98312">
        <ele>70</ele>
        <time>2020-03-15T20:38:54Z</time>
      </trkpt>
      <trkpt lat="46.99822" lon="-0.98312">
        <ele>70</ele>
        <time>2020-03-15T20:38:54Z</time>
      </trkpt>
      <trkpt lat="46.99795" lon="-0.98288">
        <ele>69</ele>
        <time>2020-03-15T20:39:36Z</time>
      </trkpt>
      <trkpt lat="46.99795" lon="-0.98288">
        <ele>69</ele>
        <time>2020-03-15T20:39:36Z</time>
      </trkpt>
      <trkpt lat="46.99791" lon="-0.98262">
        <ele>70</ele>
        <time>2020-03-15T20:40:00Z</time>
      </trkpt>
      <trkpt lat="46.99791" lon="-0.98262">
        <ele>70</ele>
        <time>2020-03-15T20:40:00Z</time>
      </trkpt>
      <trkpt lat="46.9979" lon="-0.98234">
        <ele>71</ele>
        <time>2020-03-15T20:40:26Z</time>
      </trkpt>
      <trkpt lat="46.9979" lon="-0.98234">
        <ele>71</ele>
        <time>2020-03-15T20:40:26Z</time>
      </trkpt>
      <trkpt lat="46.99777" lon="-0.98173">
        <ele>72</ele>
        <time>2020-03-15T20:41:24Z</time>
      </trkpt>
      <trkpt lat="46.99777" lon="-0.98173">
        <ele>72</ele>
        <time>2020-03-15T20:41:24Z</time>
      </trkpt>
      <trkpt lat="46.99781" lon="-0.98116">
        <ele>72</ele>
        <time>2020-03-15T20:42:16Z</time>
      </trkpt>
      <trkpt lat="46.99781" lon="-0.98116">
        <ele>72</ele>
        <time>2020-03-15T20:42:16Z</time>
      </trkpt>
      <trkpt lat="46.99771" lon="-0.98089">
        <ele>71</ele>
        <time>2020-03-15T20:42:44Z</time>
      </trkpt>
      <trkpt lat="46.99772" lon="-0.98088">
        <ele>71</ele>
        <time>2020-03-15T20:42:46Z</time>
      </trkpt>
      <trkpt lat="46.99725" lon="-0.98032">
        <ele>70</ele>
        <time>2020-03-15T20:44:07Z</time>
      </trkpt>
      <trkpt lat="46.99698" lon="-0.9799">
        <ele>68</ele>
        <time>2020-03-15T20:44:59Z</time>
      </trkpt>
      <trkpt lat="46.99687" lon="-0.97968">
        <ele>68</ele>
        <time>2020-03-15T20:45:24Z</time>
      </trkpt>
      <trkpt lat="46.99679" lon="-0.97937">
        <ele>69</ele>
        <time>2020-03-15T20:45:54Z</time>
      </trkpt>
      <trkpt lat="46.99674" lon="-0.97912">
        <ele>70</ele>
        <time>2020-03-15T20:46:18Z</time>
      </trkpt>
      <trkpt lat="46.9963" lon="-0.97859">
        <ele>69</ele>
        <time>2020-03-15T20:47:34Z</time>
      </trkpt>
      <trkpt lat="46.9961" lon="-0.97845">
        <ele>67</ele>
        <time>2020-03-15T20:48:03Z</time>
      </trkpt>
      <trkpt lat="46.99537" lon="-0.97822">
        <ele>64</ele>
        <time>2020-03-15T20:49:43Z</time>
      </trkpt>
      <trkpt lat="46.99529" lon="-0.97817">
        <ele>64</ele>
        <time>2020-03-15T20:49:55Z</time>
      </trkpt>
      <trkpt lat="46.9952" lon="-0.97801">
        <ele>64</ele>
        <time>2020-03-15T20:50:13Z</time>
      </trkpt>
      <trkpt lat="46.99513" lon="-0.97771">
        <ele>63</ele>
        <time>2020-03-15T20:50:42Z</time>
      </trkpt>
      <trkpt lat="46.99502" lon="-0.97593">
        <ele>64</ele>
        <time>2020-03-15T20:53:25Z</time>
      </trkpt>
      <trkpt lat="46.99485" lon="-0.9742">
        <ele>68</ele>
        <time>2020-03-15T20:56:04Z</time>
      </trkpt>
      <trkpt lat="46.99485" lon="-0.97377">
        <ele>68</ele>
        <time>2020-03-15T20:56:43Z</time>
      </trkpt>
      <trkpt lat="46.99487" lon="-0.97365">
        <ele>68</ele>
        <time>2020-03-15T20:56:54Z</time>
      </trkpt>
      <trkpt lat="46.99495" lon="-0.97342">
        <ele>67</ele>
        <time>2020-03-15T20:57:18Z</time>
      </trkpt>
      <trkpt lat="46.99502" lon="-0.97315">
        <ele>68</ele>
        <time>2020-03-15T20:57:44Z</time>
      </trkpt>
      <trkpt lat="46.99517" lon="-0.97235">
        <ele>72</ele>
        <time>2020-03-15T20:59:00Z</time>
      </trkpt>
      <trkpt lat="46.99524" lon="-0.97213">
        <ele>75</ele>
        <time>2020-03-15T20:59:22Z</time>
      </trkpt>
      <trkpt lat="46.99529" lon="-0.97188">
        <ele>76</ele>
        <time>2020-03-15T20:59:46Z</time>
      </trkpt>
      <trkpt lat="46.99529" lon="-0.97176">
        <ele>76</ele>
        <time>2020-03-15T20:59:56Z</time>
      </trkpt>
      <trkpt lat="46.99525" lon="-0.97147">
        <ele>75</ele>
        <time>2020-03-15T21:00:23Z</time>
      </trkpt>
      <trkpt lat="46.99525" lon="-0.97127">
        <ele>75</ele>
        <time>2020-03-15T21:00:42Z</time>
      </trkpt>
      <trkpt lat="46.99528" lon="-0.97074">
        <ele>76</ele>
        <time>2020-03-15T21:01:30Z</time>
      </trkpt>
      <trkpt lat="46.99525" lon="-0.97045">
        <ele>75</ele>
        <time>2020-03-15T21:01:57Z</time>
      </trkpt>
      <trkpt lat="46.99527" lon="-0.97011">
        <ele>74</ele>
        <time>2020-03-15T21:02:28Z</time>
      </trkpt>
      <trkpt lat="46.99532" lon="-0.96986">
        <ele>75</ele>
        <time>2020-03-15T21:02:51Z</time>
      </trkpt>
      <trkpt lat="46.99533" lon="-0.96962">
        <ele>74</ele>
        <time>2020-03-15T21:03:13Z</time>
      </trkpt>
      <trkpt lat="46.99541" lon="-0.96933">
        <ele>75</ele>
        <time>2020-03-15T21:03:42Z</time>
      </trkpt>
      <trkpt lat="46.9955" lon="-0.96869">
        <ele>74</ele>
        <time>2020-03-15T21:04:41Z</time>
      </trkpt>
      <trkpt lat="46.99571" lon="-0.96825">
        <ele>75</ele>
        <time>2020-03-15T21:05:30Z</time>
      </trkpt>
      <trkpt lat="46.99592" lon="-0.96799">
        <ele>75</ele>
        <time>2020-03-15T21:06:07Z</time>
      </trkpt>
      <trkpt lat="46.99593" lon="-0.96799">
        <ele>75</ele>
        <time>2020-03-15T21:06:08Z</time>
      </trkpt>
      <trkpt lat="46.99621" lon="-0.96769">
        <ele>75</ele>
        <time>2020-03-15T21:06:54Z</time>
      </trkpt>
      <trkpt lat="46.99621" lon="-0.96769">
        <ele>75</ele>
        <time>2020-03-15T21:06:54Z</time>
      </trkpt>
      <trkpt lat="46.99642" lon="-0.96739">
        <ele>75</ele>
        <time>2020-03-15T21:07:34Z</time>
      </trkpt>
      <trkpt lat="46.99641" lon="-0.96739">
        <ele>75</ele>
        <time>2020-03-15T21:07:35Z</time>
      </trkpt>
      <trkpt lat="46.99652" lon="-0.96712">
        <ele>76</ele>
        <time>2020-03-15T21:08:04Z</time>
      </trkpt>
      <trkpt lat="46.99665" lon="-0.9667">
        <ele>76</ele>
        <time>2020-03-15T21:08:46Z</time>
      </trkpt>
      <trkpt lat="46.99664" lon="-0.96661">
        <ele>76</ele>
        <time>2020-03-15T21:08:54Z</time>
      </trkpt>
      <trkpt lat="46.99653" lon="-0.96627">
        <ele>77</ele>
        <time>2020-03-15T21:09:28Z</time>
      </trkpt>
      <trkpt lat="46.99641" lon="-0.96597">
        <ele>78</ele>
        <time>2020-03-15T21:10:00Z</time>
      </trkpt>
      <trkpt lat="46.99627" lon="-0.96567">
        <ele>78</ele>
        <time>2020-03-15T21:10:33Z</time>
      </trkpt>
      <trkpt lat="46.99599" lon="-0.96519">
        <ele>75</ele>
        <time>2020-03-15T21:11:30Z</time>
      </trkpt>
      <trkpt lat="46.9958" lon="-0.9648">
        <ele>76</ele>
        <time>2020-03-15T21:12:14Z</time>
      </trkpt>
      <trkpt lat="46.99579" lon="-0.96481">
        <ele>75</ele>
        <time>2020-03-15T21:12:16Z</time>
      </trkpt>
      <trkpt lat="46.99565" lon="-0.96479">
        <ele>75</ele>
        <time>2020-03-15T21:12:34Z</time>
      </trkpt>
      <trkpt lat="46.99565" lon="-0.96479">
        <ele>75</ele>
        <time>2020-03-15T21:12:34Z</time>
      </trkpt>
      <trkpt lat="46.99533" lon="-0.9643">
        <ele>75</ele>
        <time>2020-03-15T21:13:36Z</time>
      </trkpt>
      <trkpt lat="46.99533" lon="-0.9643">
        <ele>75</ele>
        <time>2020-03-15T21:13:36Z</time>
      </trkpt>
      <trkpt lat="46.9951" lon="-0.96386">
        <ele>74</ele>
        <time>2020-03-15T21:14:27Z</time>
      </trkpt>
      <trkpt lat="46.9951" lon="-0.96386">
        <ele>74</ele>
        <time>2020-03-15T21:14:27Z</time>
      </trkpt>
      <trkpt lat="46.99486" lon="-0.96328">
        <ele>73</ele>
        <time>2020-03-15T21:15:28Z</time>
      </trkpt>
      <trkpt lat="46.99486" lon="-0.96328">
        <ele>73</ele>
        <time>2020-03-15T21:15:28Z</time>
      </trkpt>
      <trkpt lat="46.9946" lon="-0.96226">
        <ele>76</ele>
        <time>2020-03-15T21:17:07Z</time>
      </trkpt>
      <trkpt lat="46.9946" lon="-0.96226">
        <ele>76</ele>
        <time>2020-03-15T21:17:07Z</time>
      </trkpt>
      <trkpt lat="46.99422" lon="-0.96139">
        <ele>72</ele>
        <time>2020-03-15T21:18:41Z</time>
      </trkpt>
      <trkpt lat="46.99422" lon="-0.96139">
        <ele>72</ele>
        <time>2020-03-15T21:18:41Z</time>
      </trkpt>
      <trkpt lat="46.99399" lon="-0.96103">
        <ele>72</ele>
        <time>2020-03-15T21:19:26Z</time>
      </trkpt>
      <trkpt lat="46.99399" lon="-0.96103">
        <ele>72</ele>
        <time>2020-03-15T21:19:26Z</time>
      </trkpt>
      <trkpt lat="46.99386" lon="-0.96079">
        <ele>72</ele>
        <time>2020-03-15T21:19:54Z</time>
      </trkpt>
      <trkpt lat="46.99386" lon="-0.96079">
        <ele>72</ele>
        <time>2020-03-15T21:19:54Z</time>
      </trkpt>
      <trkpt lat="46.9937" lon="-0.96029">
        <ele>72</ele>
        <time>2020-03-15T21:20:44Z</time>
      </trkpt>
      <trkpt lat="46.9937" lon="-0.96029">
        <ele>72</ele>
        <time>2020-03-15T21:20:44Z</time>
      </trkpt>
      <trkpt lat="46.99384" lon="-0.96003">
        <ele>74</ele>
        <time>2020-03-15T21:21:15Z</time>
      </trkpt>
      <trkpt lat="46.99383" lon="-0.96004">
        <ele>74</ele>
        <time>2020-03-15T21:21:16Z</time>
      </trkpt>
      <trkpt lat="46.9933" lon="-0.95963">
        <ele>73</ele>
        <time>2020-03-15T21:22:36Z</time>
      </trkpt>
      <trkpt lat="46.99307" lon="-0.95917">
        <ele>76</ele>
        <time>2020-03-15T21:23:28Z</time>
      </trkpt>
      <trkpt lat="46.99299" lon="-0.959">
        <ele>78</ele>
        <time>2020-03-15T21:23:47Z</time>
      </trkpt>
      <trkpt lat="46.99298" lon="-0.95901">
        <ele>77</ele>
        <time>2020-03-15T21:23:49Z</time>
      </trkpt>
      <trkpt lat="46.99299" lon="-0.95901">
        <ele>77</ele>
        <time>2020-03-15T21:23:50Z</time>
      </trkpt>
      <trkpt lat="46.99305" lon="-0.9589">
        <ele>80</ele>
        <time>2020-03-15T21:24:03Z</time>
      </trkpt>
      <trkpt lat="46.99305" lon="-0.9589">
        <ele>80</ele>
        <time>2020-03-15T21:24:03Z</time>
      </trkpt>
      <trkpt lat="46.99294" lon="-0.95864">
        <ele>82</ele>
        <time>2020-03-15T21:24:31Z</time>
      </trkpt>
      <trkpt lat="46.99294" lon="-0.95864">
        <ele>82</ele>
        <time>2020-03-15T21:24:31Z</time>
      </trkpt>
      <trkpt lat="46.99272" lon="-0.95775">
        <ele>89</ele>
        <time>2020-03-15T21:25:57Z</time>
      </trkpt>
      <trkpt lat="46.99272" lon="-0.95775">
        <ele>89</ele>
        <time>2020-03-15T21:25:57Z</time>
      </trkpt>
      <trkpt lat="46.99283" lon="-0.95752">
        <ele>95</ele>
        <time>2020-03-15T21:26:23Z</time>
      </trkpt>
      <trkpt lat="46.99283" lon="-0.95752">
        <ele>95</ele>
        <time>2020-03-15T21:26:23Z</time>
      </trkpt>
      <trkpt lat="46.99281" lon="-0.95744">
        <ele>96</ele>
        <time>2020-03-15T21:26:30Z</time>
      </trkpt>
      <trkpt lat="46.99281" lon="-0.95744">
        <ele>96</ele>
        <time>2020-03-15T21:26:30Z</time>
      </trkpt>
      <trkpt lat="46.99294" lon="-0.95727">
        <ele>100</ele>
        <time>2020-03-15T21:26:54Z</time>
      </trkpt>
      <trkpt lat="46.99294" lon="-0.95727">
        <ele>100</ele>
        <time>2020-03-15T21:26:54Z</time>
      </trkpt>
      <trkpt lat="46.99318" lon="-0.95684">
        <ele>106</ele>
        <time>2020-03-15T21:27:44Z</time>
      </trkpt>
      <trkpt lat="46.99317" lon="-0.95685">
        <ele>106</ele>
        <time>2020-03-15T21:27:46Z</time>
      </trkpt>
      <trkpt lat="46.99305" lon="-0.95647">
        <ele>107</ele>
        <time>2020-03-15T21:28:24Z</time>
      </trkpt>
      <trkpt lat="46.99274" lon="-0.95606">
        <ele>109</ele>
        <time>2020-03-15T21:29:20Z</time>
      </trkpt>
      <trkpt lat="46.99236" lon="-0.95551">
        <ele>112</ele>
        <time>2020-03-15T21:30:31Z</time>
      </trkpt>
      <trkpt lat="46.9923" lon="-0.9554">
        <ele>112</ele>
        <time>2020-03-15T21:30:44Z</time>
      </trkpt>
      <trkpt lat="46.99222" lon="-0.95498">
        <ele>115</ele>
        <time>2020-03-15T21:31:24Z</time>
      </trkpt>
      <trkpt lat="46.99218" lon="-0.95487">
        <ele>115</ele>
        <time>2020-03-15T21:31:35Z</time>
      </trkpt>
      <trkpt lat="46.99211" lon="-0.95483">
        <ele>115</ele>
        <time>2020-03-15T21:31:45Z</time>
      </trkpt>
      <trkpt lat="46.99195" lon="-0.95467">
        <ele>115</ele>
        <time>2020-03-15T21:32:11Z</time>
      </trkpt>
      <trkpt lat="46.99171" lon="-0.95459">
        <ele>114</ele>
        <time>2020-03-15T21:32:44Z</time>
      </trkpt>
      <trkpt lat="46.99167" lon="-0.95461">
        <ele>113</ele>
        <time>2020-03-15T21:32:49Z</time>
      </trkpt>
      <trkpt lat="46.99137" lon="-0.95444">
        <ele>112</ele>
        <time>2020-03-15T21:33:32Z</time>
      </trkpt>
      <trkpt lat="46.99097" lon="-0.95462">
        <ele>108</ele>
        <time>2020-03-15T21:34:28Z</time>
      </trkpt>
      <trkpt lat="46.99074" lon="-0.95439">
        <ele>107</ele>
        <time>2020-03-15T21:35:05Z</time>
      </trkpt>
      <trkpt lat="46.99066" lon="-0.95417">
        <ele>108</ele>
        <time>2020-03-15T21:35:28Z</time>
      </trkpt>
      <trkpt lat="46.99049" lon="-0.95343">
        <ele>109</ele>
        <time>2020-03-15T21:36:39Z</time>
      </trkpt>
      <trkpt lat="46.99029" lon="-0.95304">
        <ele>111</ele>
        <time>2020-03-15T21:37:23Z</time>
      </trkpt>
      <trkpt lat="46.99017" lon="-0.95312">
        <ele>111</ele>
        <time>2020-03-15T21:37:41Z</time>
      </trkpt>
      <trkpt lat="46.99004" lon="-0.95312">
        <ele>111</ele>
        <time>2020-03-15T21:37:58Z</time>
      </trkpt>
      <trkpt lat="46.98984" lon="-0.95308">
        <ele>111</ele>
        <time>2020-03-15T21:38:25Z</time>
      </trkpt>
      <trkpt lat="46.98958" lon="-0.95308">
        <ele>111</ele>
        <time>2020-03-15T21:39:00Z</time>
      </trkpt>
      <trkpt lat="46.98959" lon="-0.95308">
        <ele>111</ele>
        <time>2020-03-15T21:39:01Z</time>
      </trkpt>
      <trkpt lat="46.98925" lon="-0.95303">
        <ele>111</ele>
        <time>2020-03-15T21:39:47Z</time>
      </trkpt>
      <trkpt lat="46.98925" lon="-0.95303">
        <ele>111</ele>
        <time>2020-03-15T21:39:47Z</time>
      </trkpt>
      <trkpt lat="46.98867" lon="-0.9529">
        <ele>113</ele>
        <time>2020-03-15T21:41:05Z</time>
      </trkpt>
      <trkpt lat="46.98867" lon="-0.9529">
        <ele>113</ele>
        <time>2020-03-15T21:41:05Z</time>
      </trkpt>
      <trkpt lat="46.98852" lon="-0.95292">
        <ele>114</ele>
        <time>2020-03-15T21:41:25Z</time>
      </trkpt>
      <trkpt lat="46.98852" lon="-0.95293">
        <ele>113</ele>
        <time>2020-03-15T21:41:26Z</time>
      </trkpt>
      <trkpt lat="46.98805" lon="-0.95294">
        <ele>115</ele>
        <time>2020-03-15T21:42:29Z</time>
      </trkpt>
      <trkpt lat="46.98791" lon="-0.95293">
        <ele>116</ele>
        <time>2020-03-15T21:42:48Z</time>
      </trkpt>
      <trkpt lat="46.98782" lon="-0.95287">
        <ele>117</ele>
        <time>2020-03-15T21:43:01Z</time>
      </trkpt>
      <trkpt lat="46.98775" lon="-0.95287">
        <ele>117</ele>
        <time>2020-03-15T21:43:10Z</time>
      </trkpt>
      <trkpt lat="46.98771" lon="-0.9529">
        <ele>117</ele>
        <time>2020-03-15T21:43:16Z</time>
      </trkpt>
      <trkpt lat="46.98741" lon="-0.95338">
        <ele>115</ele>
        <time>2020-03-15T21:44:16Z</time>
      </trkpt>
      <trkpt lat="46.98712" lon="-0.95319">
        <ele>118</ele>
        <time>2020-03-15T21:44:58Z</time>
      </trkpt>
      <trkpt lat="46.98712" lon="-0.95319">
        <ele>118</ele>
        <time>2020-03-15T21:44:58Z</time>
      </trkpt>
      <trkpt lat="46.98712" lon="-0.95318">
        <ele>118</ele>
        <time>2020-03-15T21:44:59Z</time>
      </trkpt>
      <trkpt lat="46.98669" lon="-0.95318">
        <ele>120</ele>
        <time>2020-03-15T21:45:56Z</time>
      </trkpt>
      <trkpt lat="46.98669" lon="-0.95318">
        <ele>120</ele>
        <time>2020-03-15T21:45:56Z</time>
      </trkpt>
      <trkpt lat="46.98652" lon="-0.95303">
        <ele>119</ele>
        <time>2020-03-15T21:46:23Z</time>
      </trkpt>
      <trkpt lat="46.98652" lon="-0.95303">
        <ele>119</ele>
        <time>2020-03-15T21:46:23Z</time>
      </trkpt>
      <trkpt lat="46.98634" lon="-0.95272">
        <ele>119</ele>
        <time>2020-03-15T21:47:00Z</time>
      </trkpt>
      <trkpt lat="46.98634" lon="-0.95272">
        <ele>119</ele>
        <time>2020-03-15T21:47:00Z</time>
      </trkpt>
      <trkpt lat="46.98615" lon="-0.95233">
        <ele>118</ele>
        <time>2020-03-15T21:47:43Z</time>
      </trkpt>
      <trkpt lat="46.98615" lon="-0.95233">
        <ele>118</ele>
        <time>2020-03-15T21:47:43Z</time>
      </trkpt>
      <trkpt lat="46.98579" lon="-0.95202">
        <ele>118</ele>
        <time>2020-03-15T21:48:39Z</time>
      </trkpt>
      <trkpt lat="46.98579" lon="-0.95202">
        <ele>118</ele>
        <time>2020-03-15T21:48:39Z</time>
      </trkpt>
      <trkpt lat="46.98514" lon="-0.95136">
        <ele>115</ele>
        <time>2020-03-15T21:50:25Z</time>
      </trkpt>
      <trkpt lat="46.98514" lon="-0.95136">
        <ele>115</ele>
        <time>2020-03-15T21:50:25Z</time>
      </trkpt>
      <trkpt lat="46.98437" lon="-0.95095">
        <ele>113</ele>
        <time>2020-03-15T21:52:14Z</time>
      </trkpt>
      <trkpt lat="46.98437" lon="-0.95095">
        <ele>113</ele>
        <time>2020-03-15T21:52:14Z</time>
      </trkpt>
      <trkpt lat="46.98417" lon="-0.95086">
        <ele>112</ele>
        <time>2020-03-15T21:52:42Z</time>
      </trkpt>
      <trkpt lat="46.98417" lon="-0.95086">
        <ele>112</ele>
        <time>2020-03-15T21:52:42Z</time>
      </trkpt>
      <trkpt lat="46.98393" lon="-0.95095">
        <ele>110</ele>
        <time>2020-03-15T21:53:15Z</time>
      </trkpt>
      <trkpt lat="46.98393" lon="-0.95095">
        <ele>110</ele>
        <time>2020-03-15T21:53:15Z</time>
      </trkpt>
      <trkpt lat="46.9833" lon="-0.95181">
        <ele>103</ele>
        <time>2020-03-15T21:55:10Z</time>
      </trkpt>
      <trkpt lat="46.9833" lon="-0.95182">
        <ele>103</ele>
        <time>2020-03-15T21:55:11Z</time>
      </trkpt>
      <trkpt lat="46.98308" lon="-0.95193">
        <ele>98</ele>
        <time>2020-03-15T21:55:42Z</time>
      </trkpt>
      <trkpt lat="46.98293" lon="-0.95197">
        <ele>94</ele>
        <time>2020-03-15T21:56:02Z</time>
      </trkpt>
      <trkpt lat="46.98294" lon="-0.95196">
        <ele>94</ele>
        <time>2020-03-15T21:56:04Z</time>
      </trkpt>
      <trkpt lat="46.98283" lon="-0.95203">
        <ele>91</ele>
        <time>2020-03-15T21:56:20Z</time>
      </trkpt>
      <trkpt lat="46.98282" lon="-0.95204">
        <ele>91</ele>
        <time>2020-03-15T21:56:22Z</time>
      </trkpt>
      <trkpt lat="46.98285" lon="-0.95216">
        <ele>89</ele>
        <time>2020-03-15T21:56:33Z</time>
      </trkpt>
      <trkpt lat="46.9831" lon="-0.95249">
        <ele>90</ele>
        <time>2020-03-15T21:57:18Z</time>
      </trkpt>
      <trkpt lat="46.98315" lon="-0.95263">
        <ele>88</ele>
        <time>2020-03-15T21:57:33Z</time>
      </trkpt>
      <trkpt lat="46.98335" lon="-0.95286">
        <ele>88</ele>
        <time>2020-03-15T21:58:07Z</time>
      </trkpt>
      <trkpt lat="46.98341" lon="-0.95287">
        <ele>89</ele>
        <time>2020-03-15T21:58:15Z</time>
      </trkpt>
      <trkpt lat="46.98345" lon="-0.95293">
        <ele>88</ele>
        <time>2020-03-15T21:58:22Z</time>
      </trkpt>
      <trkpt lat="46.98348" lon="-0.95308">
        <ele>86</ele>
        <time>2020-03-15T21:58:36Z</time>
      </trkpt>
      <trkpt lat="46.98346" lon="-0.95311">
        <ele>85</ele>
        <time>2020-03-15T21:58:40Z</time>
      </trkpt>
      <trkpt lat="46.9834" lon="-0.95311">
        <ele>83</ele>
        <time>2020-03-15T21:58:48Z</time>
      </trkpt>
      <trkpt lat="46.98312" lon="-0.95287">
        <ele>84</ele>
        <time>2020-03-15T21:59:32Z</time>
      </trkpt>
      <trkpt lat="46.98299" lon="-0.95287">
        <ele>82</ele>
        <time>2020-03-15T21:59:49Z</time>
      </trkpt>
      <trkpt lat="46.9828" lon="-0.95273">
        <ele>80</ele>
        <time>2020-03-15T22:00:17Z</time>
      </trkpt>
      <trkpt lat="46.98255" lon="-0.95248">
        <ele>77</ele>
        <time>2020-03-15T22:00:58Z</time>
      </trkpt>
      <trkpt lat="46.98238" lon="-0.95223">
        <ele>81</ele>
        <time>2020-03-15T22:01:30Z</time>
      </trkpt>
      <trkpt lat="46.98218" lon="-0.95186">
        <ele>85</ele>
        <time>2020-03-15T22:02:13Z</time>
      </trkpt>
      <trkpt lat="46.98209" lon="-0.95165">
        <ele>85</ele>
        <time>2020-03-15T22:02:35Z</time>
      </trkpt>
      <trkpt lat="46.9819" lon="-0.95141">
        <ele>85</ele>
        <time>2020-03-15T22:03:09Z</time>
      </trkpt>
      <trkpt lat="46.98169" lon="-0.9512">
        <ele>84</ele>
        <time>2020-03-15T22:03:43Z</time>
      </trkpt>
      <trkpt lat="46.98158" lon="-0.95114">
        <ele>83</ele>
        <time>2020-03-15T22:03:58Z</time>
      </trkpt>
      <trkpt lat="46.98156" lon="-0.95107">
        <ele>83</ele>
        <time>2020-03-15T22:04:05Z</time>
      </trkpt>
      <trkpt lat="46.98152" lon="-0.95108">
        <ele>83</ele>
        <time>2020-03-15T22:04:11Z</time>
      </trkpt>
      <trkpt lat="46.98145" lon="-0.95099">
        <ele>83</ele>
        <time>2020-03-15T22:04:23Z</time>
      </trkpt>
      <trkpt lat="46.98125" lon="-0.95051">
        <ele>82</ele>
        <time>2020-03-15T22:05:14Z</time>
      </trkpt>
      <trkpt lat="46.98125" lon="-0.95037">
        <ele>83</ele>
        <time>2020-03-15T22:05:27Z</time>
      </trkpt>
      <trkpt lat="46.98116" lon="-0.95014">
        <ele>83</ele>
        <time>2020-03-15T22:05:51Z</time>
      </trkpt>
      <trkpt lat="46.98075" lon="-0.94959">
        <ele>83</ele>
        <time>2020-03-15T22:07:05Z</time>
      </trkpt>
      <trkpt lat="46.98053" lon="-0.94939">
        <ele>83</ele>
        <time>2020-03-15T22:07:40Z</time>
      </trkpt>
      <trkpt lat="46.98038" lon="-0.94919">
        <ele>84</ele>
        <time>2020-03-15T22:08:07Z</time>
      </trkpt>
      <trkpt lat="46.98016" lon="-0.94904">
        <ele>82</ele>
        <time>2020-03-15T22:08:39Z</time>
      </trkpt>
      <trkpt lat="46.97997" lon="-0.94881">
        <ele>82</ele>
        <time>2020-03-15T22:09:12Z</time>
      </trkpt>
      <trkpt lat="46.97982" lon="-0.94836">
        <ele>83</ele>
        <time>2020-03-15T22:09:58Z</time>
      </trkpt>
      <trkpt lat="46.97975" lon="-0.94823">
        <ele>83</ele>
        <time>2020-03-15T22:10:13Z</time>
      </trkpt>
      <trkpt lat="46.97957" lon="-0.948">
        <ele>83</ele>
        <time>2020-03-15T22:10:45Z</time>
      </trkpt>
      <trkpt lat="46.97872" lon="-0.94737">
        <ele>81</ele>
        <time>2020-03-15T22:12:52Z</time>
      </trkpt>
      <trkpt lat="46.97831" lon="-0.94726">
        <ele>81</ele>
        <time>2020-03-15T22:13:48Z</time>
      </trkpt>
      <trkpt lat="46.97792" lon="-0.94727">
        <ele>80</ele>
        <time>2020-03-15T22:14:40Z</time>
      </trkpt>
      <trkpt lat="46.97775" lon="-0.9472">
        <ele>80</ele>
        <time>2020-03-15T22:15:03Z</time>
      </trkpt>
      <trkpt lat="46.97752" lon="-0.94704">
        <ele>81</ele>
        <time>2020-03-15T22:15:37Z</time>
      </trkpt>
      <trkpt lat="46.97735" lon="-0.94697">
        <ele>82</ele>
        <time>2020-03-15T22:16:01Z</time>
      </trkpt>
      <trkpt lat="46.97722" lon="-0.94708">
        <ele>83</ele>
        <time>2020-03-15T22:16:21Z</time>
      </trkpt>
      <trkpt lat="46.97709" lon="-0.94732">
        <ele>83</ele>
        <time>2020-03-15T22:16:49Z</time>
      </trkpt>
      <trkpt lat="46.97612" lon="-0.94712">
        <ele>96</ele>
        <time>2020-03-15T22:18:59Z</time>
      </trkpt>
      <trkpt lat="46.97587" lon="-0.94706">
        <ele>100</ele>
        <time>2020-03-15T22:19:33Z</time>
      </trkpt>
      <trkpt lat="46.97538" lon="-0.9467">
        <ele>103</ele>
        <time>2020-03-15T22:20:46Z</time>
      </trkpt>
      <trkpt lat="46.97525" lon="-0.94655">
        <ele>103</ele>
        <time>2020-03-15T22:21:08Z</time>
      </trkpt>
      <trkpt lat="46.97479" lon="-0.94569">
        <ele>107</ele>
        <time>2020-03-15T22:22:48Z</time>
      </trkpt>
      <trkpt lat="46.97497" lon="-0.94554">
        <ele>108</ele>
        <time>2020-03-15T22:23:16Z</time>
      </trkpt>
      <trkpt lat="46.97512" lon="-0.94528">
        <ele>109</ele>
        <time>2020-03-15T22:23:47Z</time>
      </trkpt>
      <trkpt lat="46.97521" lon="-0.94505">
        <ele>109</ele>
        <time>2020-03-15T22:24:11Z</time>
      </trkpt>
      <trkpt lat="46.9752" lon="-0.94423">
        <ele>113</ele>
        <time>2020-03-15T22:25:25Z</time>
      </trkpt>
      <trkpt lat="46.97523" lon="-0.94405">
        <ele>114</ele>
        <time>2020-03-15T22:25:42Z</time>
      </trkpt>
      <trkpt lat="46.97539" lon="-0.94377">
        <ele>112</ele>
        <time>2020-03-15T22:26:15Z</time>
      </trkpt>
      <trkpt lat="46.97545" lon="-0.94365">
        <ele>112</ele>
        <time>2020-03-15T22:26:29Z</time>
      </trkpt>
      <trkpt lat="46.97553" lon="-0.94279">
        <ele>112</ele>
        <time>2020-03-15T22:27:48Z</time>
      </trkpt>
      <trkpt lat="46.97556" lon="-0.94206">
        <ele>111</ele>
        <time>2020-03-15T22:28:55Z</time>
      </trkpt>
      <trkpt lat="46.97552" lon="-0.94172">
        <ele>112</ele>
        <time>2020-03-15T22:29:26Z</time>
      </trkpt>
      <trkpt lat="46.97538" lon="-0.94123">
        <ele>112</ele>
        <time>2020-03-15T22:30:14Z</time>
      </trkpt>
      <trkpt lat="46.97536" lon="-0.9408">
        <ele>112</ele>
        <time>2020-03-15T22:30:54Z</time>
      </trkpt>
      <trkpt lat="46.9755" lon="-0.94067">
        <ele>110</ele>
        <time>2020-03-15T22:31:16Z</time>
      </trkpt>
      <trkpt lat="46.97542" lon="-0.94033">
        <ele>111</ele>
        <time>2020-03-15T22:31:49Z</time>
      </trkpt>
      <trkpt lat="46.97542" lon="-0.94033">
        <ele>111</ele>
        <time>2020-03-15T22:31:49Z</time>
      </trkpt>
      <trkpt lat="46.97541" lon="-0.94019">
        <ele>111</ele>
        <time>2020-03-15T22:32:01Z</time>
      </trkpt>
      <trkpt lat="46.97541" lon="-0.94019">
        <ele>111</ele>
        <time>2020-03-15T22:32:01Z</time>
      </trkpt>
      <trkpt lat="46.9753" lon="-0.94002">
        <ele>112</ele>
        <time>2020-03-15T22:32:23Z</time>
      </trkpt>
      <trkpt lat="46.9753" lon="-0.94002">
        <ele>112</ele>
        <time>2020-03-15T22:32:23Z</time>
      </trkpt>
      <trkpt lat="46.97531" lon="-0.93998">
        <ele>112</ele>
        <time>2020-03-15T22:32:27Z</time>
      </trkpt>
      <trkpt lat="46.97531" lon="-0.93998">
        <ele>112</ele>
        <time>2020-03-15T22:32:27Z</time>
      </trkpt>
      <trkpt lat="46.97523" lon="-0.93981">
        <ele>112</ele>
        <time>2020-03-15T22:32:45Z</time>
      </trkpt>
      <trkpt lat="46.97523" lon="-0.93981">
        <ele>112</ele>
        <time>2020-03-15T22:32:45Z</time>
      </trkpt>
      <trkpt lat="46.97553" lon="-0.93944">
        <ele>110</ele>
        <time>2020-03-15T22:33:38Z</time>
      </trkpt>
      <trkpt lat="46.97552" lon="-0.93944">
        <ele>110</ele>
        <time>2020-03-15T22:33:39Z</time>
      </trkpt>
      <trkpt lat="46.97558" lon="-0.93942">
        <ele>109</ele>
        <time>2020-03-15T22:33:47Z</time>
      </trkpt>
      <trkpt lat="46.97564" lon="-0.93929">
        <ele>109</ele>
        <time>2020-03-15T22:34:02Z</time>
      </trkpt>
      <trkpt lat="46.97569" lon="-0.93913">
        <ele>108</ele>
        <time>2020-03-15T22:34:18Z</time>
      </trkpt>
      <trkpt lat="46.97554" lon="-0.93903">
        <ele>110</ele>
        <time>2020-03-15T22:34:40Z</time>
      </trkpt>
      <trkpt lat="46.97542" lon="-0.93883">
        <ele>111</ele>
        <time>2020-03-15T22:35:04Z</time>
      </trkpt>
      <trkpt lat="46.97523" lon="-0.93863">
        <ele>113</ele>
        <time>2020-03-15T22:35:35Z</time>
      </trkpt>
      <trkpt lat="46.97496" lon="-0.93848">
        <ele>115</ele>
        <time>2020-03-15T22:36:14Z</time>
      </trkpt>
      <trkpt lat="46.97467" lon="-0.93835">
        <ele>118</ele>
        <time>2020-03-15T22:36:54Z</time>
      </trkpt>
      <trkpt lat="46.97441" lon="-0.93828">
        <ele>120</ele>
        <time>2020-03-15T22:37:29Z</time>
      </trkpt>
      <trkpt lat="46.97415" lon="-0.93805">
        <ele>123</ele>
        <time>2020-03-15T22:38:10Z</time>
      </trkpt>
      <trkpt lat="46.97393" lon="-0.93778">
        <ele>125</ele>
        <time>2020-03-15T22:38:48Z</time>
      </trkpt>
      <trkpt lat="46.97353" lon="-0.93748">
        <ele>128</ele>
        <time>2020-03-15T22:39:48Z</time>
      </trkpt>
      <trkpt lat="46.97319" lon="-0.93713">
        <ele>129</ele>
        <time>2020-03-15T22:40:44Z</time>
      </trkpt>
      <trkpt lat="46.9731" lon="-0.93696">
        <ele>129</ele>
        <time>2020-03-15T22:41:03Z</time>
      </trkpt>
      <trkpt lat="46.97305" lon="-0.93653">
        <ele>130</ele>
        <time>2020-03-15T22:41:43Z</time>
      </trkpt>
      <trkpt lat="46.97288" lon="-0.93609">
        <ele>132</ele>
        <time>2020-03-15T22:42:29Z</time>
      </trkpt>
      <trkpt lat="46.97262" lon="-0.93567">
        <ele>133</ele>
        <time>2020-03-15T22:43:21Z</time>
      </trkpt>
      <trkpt lat="46.97234" lon="-0.93526">
        <ele>135</ele>
        <time>2020-03-15T22:44:13Z</time>
      </trkpt>
      <trkpt lat="46.97205" lon="-0.93493">
        <ele>137</ele>
        <time>2020-03-15T22:45:02Z</time>
      </trkpt>
      <trkpt lat="46.97163" lon="-0.93472">
        <ele>139</ele>
        <time>2020-03-15T22:46:02Z</time>
      </trkpt>
      <trkpt lat="46.97093" lon="-0.93447">
        <ele>140</ele>
        <time>2020-03-15T22:47:38Z</time>
      </trkpt>
      <trkpt lat="46.96992" lon="-0.93232">
        <ele>130</ele>
        <time>2020-03-15T22:51:35Z</time>
      </trkpt>
      <trkpt lat="46.96985" lon="-0.93221">
        <ele>130</ele>
        <time>2020-03-15T22:51:49Z</time>
      </trkpt>
      <trkpt lat="46.96973" lon="-0.93213">
        <ele>129</ele>
        <time>2020-03-15T22:52:07Z</time>
      </trkpt>
      <trkpt lat="46.96963" lon="-0.93215">
        <ele>129</ele>
        <time>2020-03-15T22:52:20Z</time>
      </trkpt>
      <trkpt lat="46.96911" lon="-0.93253">
        <ele>130</ele>
        <time>2020-03-15T22:53:38Z</time>
      </trkpt>
      <trkpt lat="46.96911" lon="-0.93253">
        <ele>130</ele>
        <time>2020-03-15T22:53:38Z</time>
      </trkpt>
      <trkpt lat="46.96893" lon="-0.93263">
        <ele>130</ele>
        <time>2020-03-15T22:54:03Z</time>
      </trkpt>
      <trkpt lat="46.96893" lon="-0.93263">
        <ele>130</ele>
        <time>2020-03-15T22:54:03Z</time>
      </trkpt>
      <trkpt lat="46.96889" lon="-0.93256">
        <ele>130</ele>
        <time>2020-03-15T22:54:12Z</time>
      </trkpt>
      <trkpt lat="46.96889" lon="-0.93256">
        <ele>130</ele>
        <time>2020-03-15T22:54:12Z</time>
      </trkpt>
      <trkpt lat="46.96882" lon="-0.93228">
        <ele>129</ele>
        <time>2020-03-15T22:54:39Z</time>
      </trkpt>
      <trkpt lat="46.96882" lon="-0.93228">
        <ele>129</ele>
        <time>2020-03-15T22:54:39Z</time>
      </trkpt>
      <trkpt lat="46.96868" lon="-0.93205">
        <ele>129</ele>
        <time>2020-03-15T22:55:07Z</time>
      </trkpt>
      <trkpt lat="46.96868" lon="-0.93205">
        <ele>129</ele>
        <time>2020-03-15T22:55:07Z</time>
      </trkpt>
      <trkpt lat="46.96833" lon="-0.93117">
        <ele>124</ele>
        <time>2020-03-15T22:56:40Z</time>
      </trkpt>
      <trkpt lat="46.96762" lon="-0.93045">
        <ele>115</ele>
        <time>2020-03-15T22:58:35Z</time>
      </trkpt>
      <trkpt lat="46.96744" lon="-0.9301">
        <ele>110</ele>
        <time>2020-03-15T22:59:15Z</time>
      </trkpt>
      <trkpt lat="46.96739" lon="-0.92987">
        <ele>108</ele>
        <time>2020-03-15T22:59:37Z</time>
      </trkpt>
      <trkpt lat="46.96738" lon="-0.92987">
        <ele>108</ele>
        <time>2020-03-15T22:59:38Z</time>
      </trkpt>
      <trkpt lat="46.96739" lon="-0.92988">
        <ele>108</ele>
        <time>2020-03-15T22:59:40Z</time>
      </trkpt>
      <trkpt lat="46.96729" lon="-0.92986">
        <ele>107</ele>
        <time>2020-03-15T22:59:53Z</time>
      </trkpt>
      <trkpt lat="46.96729" lon="-0.92986">
        <ele>107</ele>
        <time>2020-03-15T22:59:53Z</time>
      </trkpt>
      <trkpt lat="46.96714" lon="-0.92985">
        <ele>106</ele>
        <time>2020-03-15T23:00:13Z</time>
      </trkpt>
      <trkpt lat="46.96714" lon="-0.92985">
        <ele>106</ele>
        <time>2020-03-15T23:00:14Z</time>
      </trkpt>
      <trkpt lat="46.96695" lon="-0.92985">
        <ele>104</ele>
        <time>2020-03-15T23:00:39Z</time>
      </trkpt>
      <trkpt lat="46.96695" lon="-0.92985">
        <ele>104</ele>
        <time>2020-03-15T23:00:39Z</time>
      </trkpt>
      <trkpt lat="46.96682" lon="-0.92981">
        <ele>103</ele>
        <time>2020-03-15T23:00:57Z</time>
      </trkpt>
      <trkpt lat="46.96668" lon="-0.92973">
        <ele>101</ele>
        <time>2020-03-15T23:01:17Z</time>
      </trkpt>
      <trkpt lat="46.96655" lon="-0.92962">
        <ele>101</ele>
        <time>2020-03-15T23:01:37Z</time>
      </trkpt>
      <trkpt lat="46.96639" lon="-0.92928">
        <ele>100</ele>
        <time>2020-03-15T23:02:14Z</time>
      </trkpt>
      <trkpt lat="46.96623" lon="-0.92908">
        <ele>100</ele>
        <time>2020-03-15T23:02:42Z</time>
      </trkpt>
      <trkpt lat="46.96617" lon="-0.92904">
        <ele>100</ele>
        <time>2020-03-15T23:02:51Z</time>
      </trkpt>
      <trkpt lat="46.96587" lon="-0.92905">
        <ele>101</ele>
        <time>2020-03-15T23:03:31Z</time>
      </trkpt>
      <trkpt lat="46.96581" lon="-0.92906">
        <ele>101</ele>
        <time>2020-03-15T23:03:39Z</time>
      </trkpt>
      <trkpt lat="46.96573" lon="-0.92904">
        <ele>102</ele>
        <time>2020-03-15T23:03:50Z</time>
      </trkpt>
      <trkpt lat="46.96571" lon="-0.92901">
        <ele>103</ele>
        <time>2020-03-15T23:03:54Z</time>
      </trkpt>
      <trkpt lat="46.9658" lon="-0.92871">
        <ele>103</ele>
        <time>2020-03-15T23:04:24Z</time>
      </trkpt>
      <trkpt lat="46.96581" lon="-0.92871">
        <ele>103</ele>
        <time>2020-03-15T23:04:25Z</time>
      </trkpt>
      <trkpt lat="46.96595" lon="-0.92829">
        <ele>104</ele>
        <time>2020-03-15T23:05:08Z</time>
      </trkpt>
      <trkpt lat="46.96595" lon="-0.92829">
        <ele>104</ele>
        <time>2020-03-15T23:05:08Z</time>
      </trkpt>
      <trkpt lat="46.96594" lon="-0.92804">
        <ele>104</ele>
        <time>2020-03-15T23:05:31Z</time>
      </trkpt>
      <trkpt lat="46.96594" lon="-0.92804">
        <ele>104</ele>
        <time>2020-03-15T23:05:31Z</time>
      </trkpt>
      <trkpt lat="46.96587" lon="-0.92787">
        <ele>104</ele>
        <time>2020-03-15T23:05:49Z</time>
      </trkpt>
      <trkpt lat="46.96587" lon="-0.92787">
        <ele>104</ele>
        <time>2020-03-15T23:05:49Z</time>
      </trkpt>
      <trkpt lat="46.96559" lon="-0.92764">
        <ele>107</ele>
        <time>2020-03-15T23:06:31Z</time>
      </trkpt>
      <trkpt lat="46.96559" lon="-0.92764">
        <ele>107</ele>
        <time>2020-03-15T23:06:31Z</time>
      </trkpt>
      <trkpt lat="46.9657" lon="-0.92777">
        <ele>106</ele>
        <time>2020-03-15T23:06:50Z</time>
      </trkpt>
      <trkpt lat="46.9657" lon="-0.92777">
        <ele>106</ele>
        <time>2020-03-15T23:06:50Z</time>
      </trkpt>
      <trkpt lat="46.96546" lon="-0.92737">
        <ele>108</ele>
        <time>2020-03-15T23:07:39Z</time>
      </trkpt>
      <trkpt lat="46.96546" lon="-0.92737">
        <ele>108</ele>
        <time>2020-03-15T23:07:39Z</time>
      </trkpt>
      <trkpt lat="46.96527" lon="-0.92706">
        <ele>108</ele>
        <time>2020-03-15T23:08:17Z</time>
      </trkpt>
      <trkpt lat="46.96527" lon="-0.92706">
        <ele>108</ele>
        <time>2020-03-15T23:08:17Z</time>
      </trkpt>
      <trkpt lat="46.96502" lon="-0.92693">
        <ele>110</ele>
        <time>2020-03-15T23:08:52Z</time>
      </trkpt>
      <trkpt lat="46.96501" lon="-0.92694">
        <ele>110</ele>
        <time>2020-03-15T23:08:54Z</time>
      </trkpt>
      <trkpt lat="46.96405" lon="-0.92684">
        <ele>114</ele>
        <time>2020-03-15T23:11:02Z</time>
      </trkpt>
      <trkpt lat="46.96401" lon="-0.92678">
        <ele>113</ele>
        <time>2020-03-15T23:11:10Z</time>
      </trkpt>
      <trkpt lat="46.96398" lon="-0.9267">
        <ele>113</ele>
        <time>2020-03-15T23:11:18Z</time>
      </trkpt>
      <trkpt lat="46.96401" lon="-0.92663">
        <ele>114</ele>
        <time>2020-03-15T23:11:26Z</time>
      </trkpt>
      <trkpt lat="46.96419" lon="-0.92646">
        <ele>115</ele>
        <time>2020-03-15T23:11:54Z</time>
      </trkpt>
      <trkpt lat="46.96446" lon="-0.92624">
        <ele>114</ele>
        <time>2020-03-15T23:12:36Z</time>
      </trkpt>
      <trkpt lat="46.96446" lon="-0.92622">
        <ele>114</ele>
        <time>2020-03-15T23:12:37Z</time>
      </trkpt>
      <trkpt lat="46.96476" lon="-0.92605">
        <ele>110</ele>
        <time>2020-03-15T23:13:20Z</time>
      </trkpt>
      <trkpt lat="46.96476" lon="-0.92605">
        <ele>110</ele>
        <time>2020-03-15T23:13:20Z</time>
      </trkpt>
      <trkpt lat="46.96488" lon="-0.92593">
        <ele>108</ele>
        <time>2020-03-15T23:13:40Z</time>
      </trkpt>
      <trkpt lat="46.96488" lon="-0.92593">
        <ele>108</ele>
        <time>2020-03-15T23:13:40Z</time>
      </trkpt>
      <trkpt lat="46.96486" lon="-0.92573">
        <ele>108</ele>
        <time>2020-03-15T23:13:58Z</time>
      </trkpt>
      <trkpt lat="46.96486" lon="-0.92573">
        <ele>108</ele>
        <time>2020-03-15T23:13:58Z</time>
      </trkpt>
      <trkpt lat="46.96477" lon="-0.92557">
        <ele>109</ele>
        <time>2020-03-15T23:14:17Z</time>
      </trkpt>
      <trkpt lat="46.96477" lon="-0.92557">
        <ele>109</ele>
        <time>2020-03-15T23:14:17Z</time>
      </trkpt>
      <trkpt lat="46.96466" lon="-0.92527">
        <ele>110</ele>
        <time>2020-03-15T23:14:48Z</time>
      </trkpt>
      <trkpt lat="46.96466" lon="-0.92527">
        <ele>110</ele>
        <time>2020-03-15T23:14:48Z</time>
      </trkpt>
      <trkpt lat="46.9645" lon="-0.92479">
        <ele>112</ele>
        <time>2020-03-15T23:15:37Z</time>
      </trkpt>
      <trkpt lat="46.9645" lon="-0.92479">
        <ele>112</ele>
        <time>2020-03-15T23:15:37Z</time>
      </trkpt>
      <trkpt lat="46.96427" lon="-0.92378">
        <ele>112</ele>
        <time>2020-03-15T23:17:14Z</time>
      </trkpt>
      <trkpt lat="46.96427" lon="-0.92378">
        <ele>112</ele>
        <time>2020-03-15T23:17:14Z</time>
      </trkpt>
      <trkpt lat="46.96431" lon="-0.92362">
        <ele>111</ele>
        <time>2020-03-15T23:17:29Z</time>
      </trkpt>
      <trkpt lat="46.96432" lon="-0.92364">
        <ele>111</ele>
        <time>2020-03-15T23:17:31Z</time>
      </trkpt>
      <trkpt lat="46.96456" lon="-0.92303">
        <ele>107</ele>
        <time>2020-03-15T23:18:36Z</time>
      </trkpt>
      <trkpt lat="46.96506" lon="-0.92253">
        <ele>100</ele>
        <time>2020-03-15T23:19:56Z</time>
      </trkpt>
      <trkpt lat="46.96526" lon="-0.9223">
        <ele>101</ele>
        <time>2020-03-15T23:20:30Z</time>
      </trkpt>
      <trkpt lat="46.96542" lon="-0.92215">
        <ele>102</ele>
        <time>2020-03-15T23:20:56Z</time>
      </trkpt>
      <trkpt lat="46.96546" lon="-0.9221">
        <ele>102</ele>
        <time>2020-03-15T23:21:03Z</time>
      </trkpt>
      <trkpt lat="46.9655" lon="-0.92196">
        <ele>101</ele>
        <time>2020-03-15T23:21:16Z</time>
      </trkpt>
      <trkpt lat="46.96549" lon="-0.92187">
        <ele>101</ele>
        <time>2020-03-15T23:21:25Z</time>
      </trkpt>
      <trkpt lat="46.96545" lon="-0.9217">
        <ele>101</ele>
        <time>2020-03-15T23:21:41Z</time>
      </trkpt>
      <trkpt lat="46.96532" lon="-0.92146">
        <ele>101</ele>
        <time>2020-03-15T23:22:09Z</time>
      </trkpt>
      <trkpt lat="46.96524" lon="-0.92138">
        <ele>101</ele>
        <time>2020-03-15T23:22:22Z</time>
      </trkpt>
      <trkpt lat="46.96504" lon="-0.92136">
        <ele>101</ele>
        <time>2020-03-15T23:22:49Z</time>
      </trkpt>
      <trkpt lat="46.96485" lon="-0.9214">
        <ele>104</ele>
        <time>2020-03-15T23:23:14Z</time>
      </trkpt>
      <trkpt lat="46.96475" lon="-0.92139">
        <ele>106</ele>
        <time>2020-03-15T23:23:28Z</time>
      </trkpt>
      <trkpt lat="46.96433" lon="-0.92119">
        <ele>115</ele>
        <time>2020-03-15T23:24:27Z</time>
      </trkpt>
      <trkpt lat="46.96427" lon="-0.92106">
        <ele>116</ele>
        <time>2020-03-15T23:24:41Z</time>
      </trkpt>
      <trkpt lat="46.96428" lon="-0.92077">
        <ele>116</ele>
        <time>2020-03-15T23:25:07Z</time>
      </trkpt>
      <trkpt lat="46.96425" lon="-0.92054">
        <ele>116</ele>
        <time>2020-03-15T23:25:29Z</time>
      </trkpt>
      <trkpt lat="46.96417" lon="-0.92013">
        <ele>116</ele>
        <time>2020-03-15T23:26:08Z</time>
      </trkpt>
      <trkpt lat="46.96417" lon="-0.91997">
        <ele>115</ele>
        <time>2020-03-15T23:26:22Z</time>
      </trkpt>
      <trkpt lat="46.96419" lon="-0.91981">
        <ele>115</ele>
        <time>2020-03-15T23:26:37Z</time>
      </trkpt>
      <trkpt lat="46.96425" lon="-0.91968">
        <ele>115</ele>
        <time>2020-03-15T23:26:51Z</time>
      </trkpt>
      <trkpt lat="46.96465" lon="-0.91929">
        <ele>110</ele>
        <time>2020-03-15T23:27:55Z</time>
      </trkpt>
      <trkpt lat="46.9648" lon="-0.91919">
        <ele>108</ele>
        <time>2020-03-15T23:28:17Z</time>
      </trkpt>
      <trkpt lat="46.96509" lon="-0.91921">
        <ele>104</ele>
        <time>2020-03-15T23:28:56Z</time>
      </trkpt>
      <trkpt lat="46.96514" lon="-0.9192">
        <ele>104</ele>
        <time>2020-03-15T23:29:03Z</time>
      </trkpt>
      <trkpt lat="46.96517" lon="-0.91916">
        <ele>104</ele>
        <time>2020-03-15T23:29:08Z</time>
      </trkpt>
      <trkpt lat="46.96555" lon="-0.91822">
        <ele>104</ele>
        <time>2020-03-15T23:30:48Z</time>
      </trkpt>
      <trkpt lat="46.9656" lon="-0.91805">
        <ele>105</ele>
        <time>2020-03-15T23:31:05Z</time>
      </trkpt>
      <trkpt lat="46.96563" lon="-0.91783">
        <ele>106</ele>
        <time>2020-03-15T23:31:25Z</time>
      </trkpt>
      <trkpt lat="46.96562" lon="-0.91772">
        <ele>106</ele>
        <time>2020-03-15T23:31:35Z</time>
      </trkpt>
      <trkpt lat="46.96559" lon="-0.91761">
        <ele>107</ele>
        <time>2020-03-15T23:31:46Z</time>
      </trkpt>
      <trkpt lat="46.96549" lon="-0.91742">
        <ele>109</ele>
        <time>2020-03-15T23:32:08Z</time>
      </trkpt>
      <trkpt lat="46.96524" lon="-0.91708">
        <ele>114</ele>
        <time>2020-03-15T23:32:53Z</time>
      </trkpt>
      <trkpt lat="46.96508" lon="-0.9169">
        <ele>116</ele>
        <time>2020-03-15T23:33:20Z</time>
      </trkpt>
      <trkpt lat="46.96507" lon="-0.91675">
        <ele>117</ele>
        <time>2020-03-15T23:33:34Z</time>
      </trkpt>
      <trkpt lat="46.96506" lon="-0.91674">
        <ele>117</ele>
        <time>2020-03-15T23:33:36Z</time>
      </trkpt>
      <trkpt lat="46.96508" lon="-0.91651">
        <ele>120</ele>
        <time>2020-03-15T23:33:57Z</time>
      </trkpt>
      <trkpt lat="46.96508" lon="-0.91651">
        <ele>120</ele>
        <time>2020-03-15T23:33:57Z</time>
      </trkpt>
      <trkpt lat="46.96471" lon="-0.91641">
        <ele>122</ele>
        <time>2020-03-15T23:34:47Z</time>
      </trkpt>
      <trkpt lat="46.96471" lon="-0.9164">
        <ele>122</ele>
        <time>2020-03-15T23:34:48Z</time>
      </trkpt>
      <trkpt lat="46.96408" lon="-0.91622">
        <ele>123</ele>
        <time>2020-03-15T23:36:13Z</time>
      </trkpt>
      <trkpt lat="46.96368" lon="-0.91599">
        <ele>126</ele>
        <time>2020-03-15T23:37:11Z</time>
      </trkpt>
      <trkpt lat="46.96343" lon="-0.91569">
        <ele>127</ele>
        <time>2020-03-15T23:37:54Z</time>
      </trkpt>
      <trkpt lat="46.96329" lon="-0.91544">
        <ele>129</ele>
        <time>2020-03-15T23:38:23Z</time>
      </trkpt>
      <trkpt lat="46.9632" lon="-0.91522">
        <ele>130</ele>
        <time>2020-03-15T23:38:47Z</time>
      </trkpt>
      <trkpt lat="46.96316" lon="-0.91505">
        <ele>131</ele>
        <time>2020-03-15T23:39:03Z</time>
      </trkpt>
      <trkpt lat="46.96308" lon="-0.91465">
        <ele>132</ele>
        <time>2020-03-15T23:39:41Z</time>
      </trkpt>
      <trkpt lat="46.96302" lon="-0.91408">
        <ele>134</ele>
        <time>2020-03-15T23:40:34Z</time>
      </trkpt>
      <trkpt lat="46.96303" lon="-0.91326">
        <ele>141</ele>
        <time>2020-03-15T23:41:48Z</time>
      </trkpt>
      <trkpt lat="46.96306" lon="-0.91307">
        <ele>142</ele>
        <time>2020-03-15T23:42:06Z</time>
      </trkpt>
      <trkpt lat="46.9631" lon="-0.91296">
        <ele>142</ele>
        <time>2020-03-15T23:42:17Z</time>
      </trkpt>
      <trkpt lat="46.96316" lon="-0.91274">
        <ele>143</ele>
        <time>2020-03-15T23:42:39Z</time>
      </trkpt>
      <trkpt lat="46.96313" lon="-0.91262">
        <ele>144</ele>
        <time>2020-03-15T23:42:51Z</time>
      </trkpt>
      <trkpt lat="46.96292" lon="-0.91222">
        <ele>147</ele>
        <time>2020-03-15T23:43:37Z</time>
      </trkpt>
      <trkpt lat="46.96278" lon="-0.91188">
        <ele>149</ele>
        <time>2020-03-15T23:44:13Z</time>
      </trkpt>
      <trkpt lat="46.96256" lon="-0.91124">
        <ele>153</ele>
        <time>2020-03-15T23:45:18Z</time>
      </trkpt>
      <trkpt lat="46.96226" lon="-0.91029">
        <ele>155</ele>
        <time>2020-03-15T23:46:53Z</time>
      </trkpt>
      <trkpt lat="46.96222" lon="-0.91013">
        <ele>156</ele>
        <time>2020-03-15T23:47:09Z</time>
      </trkpt>
      <trkpt lat="46.96224" lon="-0.90999">
        <ele>156</ele>
        <time>2020-03-15T23:47:22Z</time>
      </trkpt>
      <trkpt lat="46.96262" lon="-0.90952">
        <ele>157</ele>
        <time>2020-03-15T23:48:28Z</time>
      </trkpt>
      <trkpt lat="46.96296" lon="-0.90916">
        <ele>157</ele>
        <time>2020-03-15T23:49:24Z</time>
      </trkpt>
      <trkpt lat="46.96188" lon="-0.9079">
        <ele>155</ele>
        <time>2020-03-15T23:52:28Z</time>
      </trkpt>
      <trkpt lat="46.96145" lon="-0.90731">
        <ele>154</ele>
        <time>2020-03-15T23:53:47Z</time>
      </trkpt>
      <trkpt lat="46.96109" lon="-0.90726">
        <ele>153</ele>
        <time>2020-03-15T23:54:35Z</time>
      </trkpt>
      <trkpt lat="46.96088" lon="-0.9072">
        <ele>152</ele>
        <time>2020-03-15T23:55:04Z</time>
      </trkpt>
      <trkpt lat="46.96047" lon="-0.90677">
        <ele>151</ele>
        <time>2020-03-15T23:56:11Z</time>
      </trkpt>
      <trkpt lat="46.96013" lon="-0.90662">
        <ele>150</ele>
        <time>2020-03-15T23:56:59Z</time>
      </trkpt>
      <trkpt lat="46.96" lon="-0.90646">
        <ele>150</ele>
        <time>2020-03-15T23:57:21Z</time>
      </trkpt>
      <trkpt lat="46.95995" lon="-0.90601">
        <ele>149</ele>
        <time>2020-03-15T23:58:03Z</time>
      </trkpt>
      <trkpt lat="46.95998" lon="-0.90555">
        <ele>149</ele>
        <time>2020-03-15T23:58:45Z</time>
      </trkpt>
      <trkpt lat="46.96008" lon="-0.90491">
        <ele>149</ele>
        <time>2020-03-15T23:59:45Z</time>
      </trkpt>
      <trkpt lat="46.96004" lon="-0.9042">
        <ele>149</ele>
        <time>2020-03-16T00:00:49Z</time>
      </trkpt>
      <trkpt lat="46.95986" lon="-0.90331">
        <ele>149</ele>
        <time>2020-03-16T00:02:14Z</time>
      </trkpt>
      <trkpt lat="46.95978" lon="-0.90283">
        <ele>149</ele>
        <time>2020-03-16T00:02:59Z</time>
      </trkpt>
      <trkpt lat="46.9597" lon="-0.90249">
        <ele>150</ele>
        <time>2020-03-16T00:03:32Z</time>
      </trkpt>
      <trkpt lat="46.95889" lon="-0.90264">
        <ele>152</ele>
        <time>2020-03-16T00:05:21Z</time>
      </trkpt>
      <trkpt lat="46.95889" lon="-0.90263">
        <ele>152</ele>
        <time>2020-03-16T00:05:22Z</time>
      </trkpt>
      <trkpt lat="46.95835" lon="-0.90275">
        <ele>152</ele>
        <time>2020-03-16T00:06:35Z</time>
      </trkpt>
      <trkpt lat="46.95835" lon="-0.90275">
        <ele>152</ele>
        <time>2020-03-16T00:06:35Z</time>
      </trkpt>
      <trkpt lat="46.95797" lon="-0.90302">
        <ele>151</ele>
        <time>2020-03-16T00:07:31Z</time>
      </trkpt>
      <trkpt lat="46.95797" lon="-0.90302">
        <ele>151</ele>
        <time>2020-03-16T00:07:31Z</time>
      </trkpt>
      <trkpt lat="46.95789" lon="-0.90309">
        <ele>150</ele>
        <time>2020-03-16T00:07:43Z</time>
      </trkpt>
      <trkpt lat="46.95789" lon="-0.90309">
        <ele>150</ele>
        <time>2020-03-16T00:07:43Z</time>
      </trkpt>
      <trkpt lat="46.95779" lon="-0.90305">
        <ele>150</ele>
        <time>2020-03-16T00:07:57Z</time>
      </trkpt>
      <trkpt lat="46.95779" lon="-0.90305">
        <ele>150</ele>
        <time>2020-03-16T00:07:57Z</time>
      </trkpt>
      <trkpt lat="46.95772" lon="-0.90289">
        <ele>150</ele>
        <time>2020-03-16T00:08:14Z</time>
      </trkpt>
      <trkpt lat="46.95772" lon="-0.90289">
        <ele>150</ele>
        <time>2020-03-16T00:08:14Z</time>
      </trkpt>
      <trkpt lat="46.95776" lon="-0.90245">
        <ele>150</ele>
        <time>2020-03-16T00:08:55Z</time>
      </trkpt>
      <trkpt lat="46.95776" lon="-0.90245">
        <ele>150</ele>
        <time>2020-03-16T00:08:55Z</time>
      </trkpt>
      <trkpt lat="46.95793" lon="-0.90143">
        <ele>146</ele>
        <time>2020-03-16T00:10:31Z</time>
      </trkpt>
      <trkpt lat="46.95793" lon="-0.90143">
        <ele>146</ele>
        <time>2020-03-16T00:10:31Z</time>
      </trkpt>
      <trkpt lat="46.9582" lon="-0.90033">
        <ele>141</ele>
        <time>2020-03-16T00:12:17Z</time>
      </trkpt>
      <trkpt lat="46.9582" lon="-0.90033">
        <ele>141</ele>
        <time>2020-03-16T00:12:17Z</time>
      </trkpt>
      <trkpt lat="46.95818" lon="-0.90009">
        <ele>140</ele>
        <time>2020-03-16T00:12:39Z</time>
      </trkpt>
      <trkpt lat="46.95818" lon="-0.90009">
        <ele>140</ele>
        <time>2020-03-16T00:12:39Z</time>
      </trkpt>
      <trkpt lat="46.9581" lon="-0.89995">
        <ele>139</ele>
        <time>2020-03-16T00:12:56Z</time>
      </trkpt>
      <trkpt lat="46.9581" lon="-0.89996">
        <ele>139</ele>
        <time>2020-03-16T00:12:57Z</time>
      </trkpt>
      <trkpt lat="46.9581" lon="-0.89995">
        <ele>139</ele>
        <time>2020-03-16T00:12:57Z</time>
      </trkpt>
      <trkpt lat="46.95781" lon="-0.89988">
        <ele>138</ele>
        <time>2020-03-16T00:13:37Z</time>
      </trkpt>
      <trkpt lat="46.95675" lon="-0.89912">
        <ele>138</ele>
        <time>2020-03-16T00:16:14Z</time>
      </trkpt>
      <trkpt lat="46.95666" lon="-0.89892">
        <ele>138</ele>
        <time>2020-03-16T00:16:36Z</time>
      </trkpt>
      <trkpt lat="46.95663" lon="-0.89843">
        <ele>139</ele>
        <time>2020-03-16T00:17:21Z</time>
      </trkpt>
      <trkpt lat="46.95642" lon="-0.8984">
        <ele>139</ele>
        <time>2020-03-16T00:17:49Z</time>
      </trkpt>
      <trkpt lat="46.95637" lon="-0.89837">
        <ele>139</ele>
        <time>2020-03-16T00:17:56Z</time>
      </trkpt>
      <trkpt lat="46.95603" lon="-0.89851">
        <ele>139</ele>
        <time>2020-03-16T00:18:43Z</time>
      </trkpt>
      <trkpt lat="46.95576" lon="-0.89856">
        <ele>139</ele>
        <time>2020-03-16T00:19:20Z</time>
      </trkpt>
      <trkpt lat="46.9557" lon="-0.89848">
        <ele>139</ele>
        <time>2020-03-16T00:19:30Z</time>
      </trkpt>
      <trkpt lat="46.95562" lon="-0.89822">
        <ele>141</ele>
        <time>2020-03-16T00:19:56Z</time>
      </trkpt>
      <trkpt lat="46.95562" lon="-0.89822">
        <ele>141</ele>
        <time>2020-03-16T00:19:56Z</time>
      </trkpt>
      <trkpt lat="46.9557" lon="-0.89798">
        <ele>143</ele>
        <time>2020-03-16T00:20:21Z</time>
      </trkpt>
      <trkpt lat="46.9557" lon="-0.89798">
        <ele>143</ele>
        <time>2020-03-16T00:20:21Z</time>
      </trkpt>
      <trkpt lat="46.95598" lon="-0.89789">
        <ele>142</ele>
        <time>2020-03-16T00:20:59Z</time>
      </trkpt>
      <trkpt lat="46.95598" lon="-0.89789">
        <ele>142</ele>
        <time>2020-03-16T00:20:59Z</time>
      </trkpt>
      <trkpt lat="46.95642" lon="-0.89763">
        <ele>141</ele>
        <time>2020-03-16T00:22:02Z</time>
      </trkpt>
      <trkpt lat="46.95642" lon="-0.89763">
        <ele>141</ele>
        <time>2020-03-16T00:22:02Z</time>
      </trkpt>
      <trkpt lat="46.95663" lon="-0.89741">
        <ele>139</ele>
        <time>2020-03-16T00:22:37Z</time>
      </trkpt>
      <trkpt lat="46.95663" lon="-0.89741">
        <ele>139</ele>
        <time>2020-03-16T00:22:37Z</time>
      </trkpt>
      <trkpt lat="46.95663" lon="-0.89724">
        <ele>140</ele>
        <time>2020-03-16T00:22:52Z</time>
      </trkpt>
      <trkpt lat="46.95663" lon="-0.89724">
        <ele>140</ele>
        <time>2020-03-16T00:22:52Z</time>
      </trkpt>
      <trkpt lat="46.9566" lon="-0.89707">
        <ele>140</ele>
        <time>2020-03-16T00:23:08Z</time>
      </trkpt>
      <trkpt lat="46.95662" lon="-0.89692">
        <ele>140</ele>
        <time>2020-03-16T00:23:22Z</time>
      </trkpt>
      <trkpt lat="46.9565" lon="-0.89647">
        <ele>143</ele>
        <time>2020-03-16T00:24:06Z</time>
      </trkpt>
      <trkpt lat="46.95646" lon="-0.89641">
        <ele>143</ele>
        <time>2020-03-16T00:24:14Z</time>
      </trkpt>
      <trkpt lat="46.95664" lon="-0.89614">
        <ele>142</ele>
        <time>2020-03-16T00:24:48Z</time>
      </trkpt>
      <trkpt lat="46.95683" lon="-0.8959">
        <ele>141</ele>
        <time>2020-03-16T00:25:22Z</time>
      </trkpt>
      <trkpt lat="46.95689" lon="-0.89588">
        <ele>141</ele>
        <time>2020-03-16T00:25:30Z</time>
      </trkpt>
      <trkpt lat="46.95764" lon="-0.89555">
        <ele>136</ele>
        <time>2020-03-16T00:27:14Z</time>
      </trkpt>
      <trkpt lat="46.95771" lon="-0.8955">
        <ele>136</ele>
        <time>2020-03-16T00:27:25Z</time>
      </trkpt>
      <trkpt lat="46.95774" lon="-0.89546">
        <ele>135</ele>
        <time>2020-03-16T00:27:30Z</time>
      </trkpt>
      <trkpt lat="46.95778" lon="-0.89528">
        <ele>135</ele>
        <time>2020-03-16T00:27:47Z</time>
      </trkpt>
      <trkpt lat="46.95781" lon="-0.89517">
        <ele>135</ele>
        <time>2020-03-16T00:27:58Z</time>
      </trkpt>
      <trkpt lat="46.95804" lon="-0.89463">
        <ele>133</ele>
        <time>2020-03-16T00:28:56Z</time>
      </trkpt>
      <trkpt lat="46.95814" lon="-0.89424">
        <ele>131</ele>
        <time>2020-03-16T00:29:34Z</time>
      </trkpt>
      <trkpt lat="46.95817" lon="-0.8941">
        <ele>131</ele>
        <time>2020-03-16T00:29:47Z</time>
      </trkpt>
      <trkpt lat="46.95819" lon="-0.89402">
        <ele>130</ele>
        <time>2020-03-16T00:29:55Z</time>
      </trkpt>
      <trkpt lat="46.95837" lon="-0.89322">
        <ele>127</ele>
        <time>2020-03-16T00:31:12Z</time>
      </trkpt>
      <trkpt lat="46.95841" lon="-0.89305">
        <ele>127</ele>
        <time>2020-03-16T00:31:28Z</time>
      </trkpt>
      <trkpt lat="46.95844" lon="-0.89292">
        <ele>126</ele>
        <time>2020-03-16T00:31:41Z</time>
      </trkpt>
      <trkpt lat="46.9586" lon="-0.89271">
        <ele>125</ele>
        <time>2020-03-16T00:32:10Z</time>
      </trkpt>
      <trkpt lat="46.95864" lon="-0.8926">
        <ele>125</ele>
        <time>2020-03-16T00:32:21Z</time>
      </trkpt>
      <trkpt lat="46.9588" lon="-0.89185">
        <ele>123</ele>
        <time>2020-03-16T00:33:32Z</time>
      </trkpt>
      <trkpt lat="46.95883" lon="-0.89155">
        <ele>123</ele>
        <time>2020-03-16T00:34:00Z</time>
      </trkpt>
      <trkpt lat="46.95898" lon="-0.89118">
        <ele>122</ele>
        <time>2020-03-16T00:34:39Z</time>
      </trkpt>
      <trkpt lat="46.95921" lon="-0.89096">
        <ele>121</ele>
        <time>2020-03-16T00:35:16Z</time>
      </trkpt>
      <trkpt lat="46.95921" lon="-0.89095">
        <ele>121</ele>
        <time>2020-03-16T00:35:17Z</time>
      </trkpt>
      <trkpt lat="46.95921" lon="-0.89076">
        <ele>120</ele>
        <time>2020-03-16T00:35:34Z</time>
      </trkpt>
      <trkpt lat="46.95921" lon="-0.89076">
        <ele>120</ele>
        <time>2020-03-16T00:35:34Z</time>
      </trkpt>
      <trkpt lat="46.95913" lon="-0.89062">
        <ele>120</ele>
        <time>2020-03-16T00:35:51Z</time>
      </trkpt>
      <trkpt lat="46.95913" lon="-0.89062">
        <ele>120</ele>
        <time>2020-03-16T00:35:51Z</time>
      </trkpt>
      <trkpt lat="46.95884" lon="-0.89021">
        <ele>118</ele>
        <time>2020-03-16T00:36:45Z</time>
      </trkpt>
      <trkpt lat="46.95869" lon="-0.89004">
        <ele>117</ele>
        <time>2020-03-16T00:37:10Z</time>
      </trkpt>
      <trkpt lat="46.95884" lon="-0.8898">
        <ele>117</ele>
        <time>2020-03-16T00:37:39Z</time>
      </trkpt>
      <trkpt lat="46.95885" lon="-0.88981">
        <ele>117</ele>
        <time>2020-03-16T00:37:41Z</time>
      </trkpt>
      <trkpt lat="46.95878" lon="-0.88958">
        <ele>117</ele>
        <time>2020-03-16T00:38:04Z</time>
      </trkpt>
      <trkpt lat="46.95878" lon="-0.8896">
        <ele>117</ele>
        <time>2020-03-16T00:38:06Z</time>
      </trkpt>
      <trkpt lat="46.95879" lon="-0.88959">
        <ele>117</ele>
        <time>2020-03-16T00:38:07Z</time>
      </trkpt>
      <trkpt lat="46.95871" lon="-0.88935">
        <ele>117</ele>
        <time>2020-03-16T00:38:32Z</time>
      </trkpt>
      <trkpt lat="46.95868" lon="-0.889">
        <ele>116</ele>
        <time>2020-03-16T00:39:04Z</time>
      </trkpt>
      <trkpt lat="46.95863" lon="-0.88895">
        <ele>116</ele>
        <time>2020-03-16T00:39:12Z</time>
      </trkpt>
      <trkpt lat="46.95862" lon="-0.88886">
        <ele>116</ele>
        <time>2020-03-16T00:39:20Z</time>
      </trkpt>
      <trkpt lat="46.95811" lon="-0.88894">
        <ele>117</ele>
        <time>2020-03-16T00:40:29Z</time>
      </trkpt>
      <trkpt lat="46.95805" lon="-0.8887">
        <ele>116</ele>
        <time>2020-03-16T00:40:52Z</time>
      </trkpt>
      <trkpt lat="46.95815" lon="-0.88865">
        <ele>116</ele>
        <time>2020-03-16T00:41:06Z</time>
      </trkpt>
      <trkpt lat="46.95817" lon="-0.88849">
        <ele>116</ele>
        <time>2020-03-16T00:41:21Z</time>
      </trkpt>
      <trkpt lat="46.9582" lon="-0.88835">
        <ele>115</ele>
        <time>2020-03-16T00:41:34Z</time>
      </trkpt>
      <trkpt lat="46.95824" lon="-0.8882">
        <ele>114</ele>
        <time>2020-03-16T00:41:49Z</time>
      </trkpt>
      <trkpt lat="46.95828" lon="-0.88804">
        <ele>114</ele>
        <time>2020-03-16T00:42:04Z</time>
      </trkpt>
      <trkpt lat="46.95833" lon="-0.88784">
        <ele>113</ele>
        <time>2020-03-16T00:42:24Z</time>
      </trkpt>
      <trkpt lat="46.95839" lon="-0.88772">
        <ele>112</ele>
        <time>2020-03-16T00:42:37Z</time>
      </trkpt>
      <trkpt lat="46.95843" lon="-0.88766">
        <ele>112</ele>
        <time>2020-03-16T00:42:45Z</time>
      </trkpt>
      <trkpt lat="46.95848" lon="-0.88759">
        <ele>112</ele>
        <time>2020-03-16T00:42:54Z</time>
      </trkpt>
      <trkpt lat="46.95854" lon="-0.88746">
        <ele>111</ele>
        <time>2020-03-16T00:43:09Z</time>
      </trkpt>
      <trkpt lat="46.9586" lon="-0.88718">
        <ele>111</ele>
        <time>2020-03-16T00:43:35Z</time>
      </trkpt>
      <trkpt lat="46.95861" lon="-0.88716">
        <ele>111</ele>
        <time>2020-03-16T00:43:38Z</time>
      </trkpt>
      <trkpt lat="46.95864" lon="-0.88693">
        <ele>111</ele>
        <time>2020-03-16T00:43:59Z</time>
      </trkpt>
      <trkpt lat="46.95868" lon="-0.88688">
        <ele>111</ele>
        <time>2020-03-16T00:44:06Z</time>
      </trkpt>
      <trkpt lat="46.95822" lon="-0.88611">
        <ele>111</ele>
        <time>2020-03-16T00:45:39Z</time>
      </trkpt>
      <trkpt lat="46.95807" lon="-0.88576">
        <ele>111</ele>
        <time>2020-03-16T00:46:17Z</time>
      </trkpt>
      <trkpt lat="46.95802" lon="-0.88559">
        <ele>111</ele>
        <time>2020-03-16T00:46:34Z</time>
      </trkpt>
      <trkpt lat="46.95795" lon="-0.88558">
        <ele>111</ele>
        <time>2020-03-16T00:46:43Z</time>
      </trkpt>
      <trkpt lat="46.95783" lon="-0.88547">
        <ele>111</ele>
        <time>2020-03-16T00:47:02Z</time>
      </trkpt>
      <trkpt lat="46.95765" lon="-0.88514">
        <ele>110</ele>
        <time>2020-03-16T00:47:40Z</time>
      </trkpt>
      <trkpt lat="46.95754" lon="-0.885">
        <ele>110</ele>
        <time>2020-03-16T00:48:00Z</time>
      </trkpt>
      <trkpt lat="46.957" lon="-0.88445">
        <ele>111</ele>
        <time>2020-03-16T00:49:28Z</time>
      </trkpt>
      <trkpt lat="46.95681" lon="-0.88419">
        <ele>111</ele>
        <time>2020-03-16T00:50:02Z</time>
      </trkpt>
      <trkpt lat="46.95665" lon="-0.88402">
        <ele>111</ele>
        <time>2020-03-16T00:50:29Z</time>
      </trkpt>
      <trkpt lat="46.95601" lon="-0.88367">
        <ele>114</ele>
        <time>2020-03-16T00:52:00Z</time>
      </trkpt>
      <trkpt lat="46.95572" lon="-0.88329">
        <ele>117</ele>
        <time>2020-03-16T00:52:52Z</time>
      </trkpt>
      <trkpt lat="46.95516" lon="-0.88321">
        <ele>116</ele>
        <time>2020-03-16T00:54:07Z</time>
      </trkpt>
      <trkpt lat="46.95502" lon="-0.88325">
        <ele>115</ele>
        <time>2020-03-16T00:54:26Z</time>
      </trkpt>
      <trkpt lat="46.95448" lon="-0.88375">
        <ele>112</ele>
        <time>2020-03-16T00:55:51Z</time>
      </trkpt>
      <trkpt lat="46.95432" lon="-0.88386">
        <ele>112</ele>
        <time>2020-03-16T00:56:15Z</time>
      </trkpt>
      <trkpt lat="46.95414" lon="-0.88388">
        <ele>112</ele>
        <time>2020-03-16T00:56:39Z</time>
      </trkpt>
      <trkpt lat="46.95333" lon="-0.88376">
        <ele>115</ele>
        <time>2020-03-16T00:58:27Z</time>
      </trkpt>
      <trkpt lat="46.95319" lon="-0.88377">
        <ele>117</ele>
        <time>2020-03-16T00:58:46Z</time>
      </trkpt>
      <trkpt lat="46.95289" lon="-0.88392">
        <ele>117</ele>
        <time>2020-03-16T00:59:28Z</time>
      </trkpt>
      <trkpt lat="46.95275" lon="-0.88395">
        <ele>118</ele>
        <time>2020-03-16T00:59:47Z</time>
      </trkpt>
      <trkpt lat="46.95223" lon="-0.88384">
        <ele>120</ele>
        <time>2020-03-16T01:00:57Z</time>
      </trkpt>
      <trkpt lat="46.95196" lon="-0.88376">
        <ele>121</ele>
        <time>2020-03-16T01:01:34Z</time>
      </trkpt>
      <trkpt lat="46.95172" lon="-0.88365">
        <ele>121</ele>
        <time>2020-03-16T01:02:08Z</time>
      </trkpt>
      <trkpt lat="46.95158" lon="-0.88356">
        <ele>122</ele>
        <time>2020-03-16T01:02:28Z</time>
      </trkpt>
      <trkpt lat="46.95143" lon="-0.88345">
        <ele>122</ele>
        <time>2020-03-16T01:02:51Z</time>
      </trkpt>
      <trkpt lat="46.95125" lon="-0.88329">
        <ele>122</ele>
        <time>2020-03-16T01:03:19Z</time>
      </trkpt>
      <trkpt lat="46.95093" lon="-0.88274">
        <ele>123</ele>
        <time>2020-03-16T01:04:24Z</time>
      </trkpt>
      <trkpt lat="46.95063" lon="-0.88206">
        <ele>123</ele>
        <time>2020-03-16T01:05:38Z</time>
      </trkpt>
      <trkpt lat="46.95025" lon="-0.88158">
        <ele>120</ele>
        <time>2020-03-16T01:06:45Z</time>
      </trkpt>
      <trkpt lat="46.95012" lon="-0.88145">
        <ele>120</ele>
        <time>2020-03-16T01:07:06Z</time>
      </trkpt>
      <trkpt lat="46.95012" lon="-0.88146">
        <ele>120</ele>
        <time>2020-03-16T01:07:07Z</time>
      </trkpt>
      <trkpt lat="46.9499" lon="-0.88131">
        <ele>119</ele>
        <time>2020-03-16T01:07:39Z</time>
      </trkpt>
      <trkpt lat="46.9499" lon="-0.88132">
        <ele>119</ele>
        <time>2020-03-16T01:07:40Z</time>
      </trkpt>
      <trkpt lat="46.94975" lon="-0.88138">
        <ele>117</ele>
        <time>2020-03-16T01:08:01Z</time>
      </trkpt>
      <trkpt lat="46.94956" lon="-0.88142">
        <ele>116</ele>
        <time>2020-03-16T01:08:27Z</time>
      </trkpt>
      <trkpt lat="46.94937" lon="-0.88137">
        <ele>115</ele>
        <time>2020-03-16T01:08:53Z</time>
      </trkpt>
      <trkpt lat="46.94908" lon="-0.88117">
        <ele>115</ele>
        <time>2020-03-16T01:09:35Z</time>
      </trkpt>
      <trkpt lat="46.94873" lon="-0.88085">
        <ele>115</ele>
        <time>2020-03-16T01:10:30Z</time>
      </trkpt>
      <trkpt lat="46.94841" lon="-0.88063">
        <ele>116</ele>
        <time>2020-03-16T01:11:18Z</time>
      </trkpt>
      <trkpt lat="46.94824" lon="-0.88056">
        <ele>116</ele>
        <time>2020-03-16T01:11:41Z</time>
      </trkpt>
      <trkpt lat="46.94809" lon="-0.88054">
        <ele>116</ele>
        <time>2020-03-16T01:12:01Z</time>
      </trkpt>
      <trkpt lat="46.94769" lon="-0.88067">
        <ele>117</ele>
        <time>2020-03-16T01:12:56Z</time>
      </trkpt>
      <trkpt lat="46.94756" lon="-0.88062">
        <ele>117</ele>
        <time>2020-03-16T01:13:14Z</time>
      </trkpt>
      <trkpt lat="46.94743" lon="-0.88048">
        <ele>118</ele>
        <time>2020-03-16T01:13:35Z</time>
      </trkpt>
      <trkpt lat="46.94743" lon="-0.88048">
        <ele>118</ele>
        <time>2020-03-16T01:13:35Z</time>
      </trkpt>
      <trkpt lat="46.94727" lon="-0.88019">
        <ele>120</ele>
        <time>2020-03-16T01:14:09Z</time>
      </trkpt>
      <trkpt lat="46.94727" lon="-0.88019">
        <ele>120</ele>
        <time>2020-03-16T01:14:09Z</time>
      </trkpt>
      <trkpt lat="46.94723" lon="-0.88011">
        <ele>121</ele>
        <time>2020-03-16T01:14:18Z</time>
      </trkpt>
      <trkpt lat="46.94723" lon="-0.88011">
        <ele>121</ele>
        <time>2020-03-16T01:14:18Z</time>
      </trkpt>
      <trkpt lat="46.9471" lon="-0.88022">
        <ele>121</ele>
        <time>2020-03-16T01:14:38Z</time>
      </trkpt>
      <trkpt lat="46.94709" lon="-0.88021">
        <ele>121</ele>
        <time>2020-03-16T01:14:40Z</time>
      </trkpt>
      <trkpt lat="46.9468" lon="-0.88038">
        <ele>122</ele>
        <time>2020-03-16T01:15:22Z</time>
      </trkpt>
      <trkpt lat="46.94652" lon="-0.8803">
        <ele>125</ele>
        <time>2020-03-16T01:16:00Z</time>
      </trkpt>
      <trkpt lat="46.9464" lon="-0.88041">
        <ele>125</ele>
        <time>2020-03-16T01:16:19Z</time>
      </trkpt>
      <trkpt lat="46.94609" lon="-0.88042">
        <ele>128</ele>
        <time>2020-03-16T01:17:00Z</time>
      </trkpt>
      <trkpt lat="46.94598" lon="-0.88048">
        <ele>128</ele>
        <time>2020-03-16T01:17:16Z</time>
      </trkpt>
      <trkpt lat="46.94544" lon="-0.88091">
        <ele>125</ele>
        <time>2020-03-16T01:18:38Z</time>
      </trkpt>
      <trkpt lat="46.94544" lon="-0.8809">
        <ele>125</ele>
        <time>2020-03-16T01:18:39Z</time>
      </trkpt>
      <trkpt lat="46.94516" lon="-0.88092">
        <ele>126</ele>
        <time>2020-03-16T01:19:16Z</time>
      </trkpt>
      <trkpt lat="46.94516" lon="-0.88092">
        <ele>126</ele>
        <time>2020-03-16T01:19:16Z</time>
      </trkpt>
      <trkpt lat="46.94482" lon="-0.88085">
        <ele>126</ele>
        <time>2020-03-16T01:20:02Z</time>
      </trkpt>
      <trkpt lat="46.94482" lon="-0.88085">
        <ele>126</ele>
        <time>2020-03-16T01:20:02Z</time>
      </trkpt>
      <trkpt lat="46.94462" lon="-0.88089">
        <ele>125</ele>
        <time>2020-03-16T01:20:29Z</time>
      </trkpt>
      <trkpt lat="46.94462" lon="-0.88089">
        <ele>125</ele>
        <time>2020-03-16T01:20:29Z</time>
      </trkpt>
      <trkpt lat="46.94445" lon="-0.88082">
        <ele>125</ele>
        <time>2020-03-16T01:20:52Z</time>
      </trkpt>
      <trkpt lat="46.94445" lon="-0.88082">
        <ele>125</ele>
        <time>2020-03-16T01:20:52Z</time>
      </trkpt>
      <trkpt lat="46.94365" lon="-0.87969">
        <ele>131</ele>
        <time>2020-03-16T01:23:21Z</time>
      </trkpt>
      <trkpt lat="46.94365" lon="-0.87969">
        <ele>131</ele>
        <time>2020-03-16T01:23:21Z</time>
      </trkpt>
      <trkpt lat="46.94359" lon="-0.87976">
        <ele>129</ele>
        <time>2020-03-16T01:23:31Z</time>
      </trkpt>
      <trkpt lat="46.94359" lon="-0.87977">
        <ele>129</ele>
        <time>2020-03-16T01:23:32Z</time>
      </trkpt>
      <trkpt lat="46.94356" lon="-0.87984">
        <ele>128</ele>
        <time>2020-03-16T01:23:39Z</time>
      </trkpt>
      <trkpt lat="46.9435" lon="-0.87994">
        <ele>126</ele>
        <time>2020-03-16T01:23:52Z</time>
      </trkpt>
      <trkpt lat="46.94344" lon="-0.88004">
        <ele>125</ele>
        <time>2020-03-16T01:24:04Z</time>
      </trkpt>
      <trkpt lat="46.94341" lon="-0.88016">
        <ele>124</ele>
        <time>2020-03-16T01:24:15Z</time>
      </trkpt>
      <trkpt lat="46.94342" lon="-0.88041">
        <ele>123</ele>
        <time>2020-03-16T01:24:38Z</time>
      </trkpt>
      <trkpt lat="46.94348" lon="-0.88066">
        <ele>122</ele>
        <time>2020-03-16T01:25:02Z</time>
      </trkpt>
      <trkpt lat="46.94348" lon="-0.88078">
        <ele>122</ele>
        <time>2020-03-16T01:25:13Z</time>
      </trkpt>
      <trkpt lat="46.94343" lon="-0.88099">
        <ele>123</ele>
        <time>2020-03-16T01:25:33Z</time>
      </trkpt>
      <trkpt lat="46.94335" lon="-0.8811">
        <ele>124</ele>
        <time>2020-03-16T01:25:48Z</time>
      </trkpt>
      <trkpt lat="46.94328" lon="-0.88118">
        <ele>127</ele>
        <time>2020-03-16T01:26:00Z</time>
      </trkpt>
      <trkpt lat="46.94325" lon="-0.88125">
        <ele>129</ele>
        <time>2020-03-16T01:26:08Z</time>
      </trkpt>
      <trkpt lat="46.94321" lon="-0.88144">
        <ele>133</ele>
        <time>2020-03-16T01:26:26Z</time>
      </trkpt>
      <trkpt lat="46.94319" lon="-0.8815">
        <ele>134</ele>
        <time>2020-03-16T01:26:32Z</time>
      </trkpt>
      <trkpt lat="46.94347" lon="-0.88193">
        <ele>135</ele>
        <time>2020-03-16T01:27:26Z</time>
      </trkpt>
      <trkpt lat="46.94347" lon="-0.88193">
        <ele>135</ele>
        <time>2020-03-16T01:27:26Z</time>
      </trkpt>
      <trkpt lat="46.9437" lon="-0.88258">
        <ele>144</ele>
        <time>2020-03-16T01:28:33Z</time>
      </trkpt>
      <trkpt lat="46.9437" lon="-0.88258">
        <ele>144</ele>
        <time>2020-03-16T01:28:33Z</time>
      </trkpt>
      <trkpt lat="46.944" lon="-0.88311">
        <ele>146</ele>
        <time>2020-03-16T01:29:35Z</time>
      </trkpt>
      <trkpt lat="46.944" lon="-0.88311">
        <ele>146</ele>
        <time>2020-03-16T01:29:35Z</time>
      </trkpt>
      <trkpt lat="46.94424" lon="-0.8832">
        <ele>145</ele>
        <time>2020-03-16T01:30:08Z</time>
      </trkpt>
      <trkpt lat="46.94424" lon="-0.8832">
        <ele>145</ele>
        <time>2020-03-16T01:30:08Z</time>
      </trkpt>
      <trkpt lat="46.94445" lon="-0.88334">
        <ele>147</ele>
        <time>2020-03-16T01:30:39Z</time>
      </trkpt>
      <trkpt lat="46.94445" lon="-0.88334">
        <ele>147</ele>
        <time>2020-03-16T01:30:39Z</time>
      </trkpt>
      <trkpt lat="46.94464" lon="-0.88341">
        <ele>146</ele>
        <time>2020-03-16T01:31:05Z</time>
      </trkpt>
      <trkpt lat="46.94464" lon="-0.88341">
        <ele>146</ele>
        <time>2020-03-16T01:31:05Z</time>
      </trkpt>
      <trkpt lat="46.94479" lon="-0.88355">
        <ele>146</ele>
        <time>2020-03-16T01:31:29Z</time>
      </trkpt>
      <trkpt lat="46.94479" lon="-0.88355">
        <ele>146</ele>
        <time>2020-03-16T01:31:29Z</time>
      </trkpt>
      <trkpt lat="46.94466" lon="-0.88374">
        <ele>148</ele>
        <time>2020-03-16T01:31:54Z</time>
      </trkpt>
      <trkpt lat="46.94467" lon="-0.88377">
        <ele>148</ele>
        <time>2020-03-16T01:31:57Z</time>
      </trkpt>
      <trkpt lat="46.94454" lon="-0.88386">
        <ele>150</ele>
        <time>2020-03-16T01:32:16Z</time>
      </trkpt>
      <trkpt lat="46.94424" lon="-0.88392">
        <ele>152</ele>
        <time>2020-03-16T01:32:56Z</time>
      </trkpt>
      <trkpt lat="46.94416" lon="-0.88398">
        <ele>153</ele>
        <time>2020-03-16T01:33:08Z</time>
      </trkpt>
      <trkpt lat="46.94404" lon="-0.88418">
        <ele>155</ele>
        <time>2020-03-16T01:33:33Z</time>
      </trkpt>
      <trkpt lat="46.94385" lon="-0.88461">
        <ele>158</ele>
        <time>2020-03-16T01:34:19Z</time>
      </trkpt>
      <trkpt lat="46.9438" lon="-0.8848">
        <ele>159</ele>
        <time>2020-03-16T01:34:38Z</time>
      </trkpt>
      <trkpt lat="46.94314" lon="-0.88639">
        <ele>165</ele>
        <time>2020-03-16T01:37:27Z</time>
      </trkpt>
      <trkpt lat="46.94264" lon="-0.88538">
        <ele>165</ele>
        <time>2020-03-16T01:39:21Z</time>
      </trkpt>
      <trkpt lat="46.94234" lon="-0.88494">
        <ele>165</ele>
        <time>2020-03-16T01:40:18Z</time>
      </trkpt>
      <trkpt lat="46.94194" lon="-0.88447">
        <ele>167</ele>
        <time>2020-03-16T01:41:26Z</time>
      </trkpt>
      <trkpt lat="46.94164" lon="-0.88416">
        <ele>167</ele>
        <time>2020-03-16T01:42:15Z</time>
      </trkpt>
      <trkpt lat="46.94141" lon="-0.88401">
        <ele>166</ele>
        <time>2020-03-16T01:42:49Z</time>
      </trkpt>
      <trkpt lat="46.94107" lon="-0.88393">
        <ele>164</ele>
        <time>2020-03-16T01:43:35Z</time>
      </trkpt>
      <trkpt lat="46.9408" lon="-0.88381">
        <ele>163</ele>
        <time>2020-03-16T01:44:12Z</time>
      </trkpt>
      <trkpt lat="46.93921" lon="-0.88265">
        <ele>142</ele>
        <time>2020-03-16T01:48:09Z</time>
      </trkpt>
      <trkpt lat="46.93906" lon="-0.88248">
        <ele>141</ele>
        <time>2020-03-16T01:48:35Z</time>
      </trkpt>
      <trkpt lat="46.93892" lon="-0.88223">
        <ele>139</ele>
        <time>2020-03-16T01:49:04Z</time>
      </trkpt>
      <trkpt lat="46.93873" lon="-0.88168">
        <ele>137</ele>
        <time>2020-03-16T01:50:00Z</time>
      </trkpt>
      <trkpt lat="46.9386" lon="-0.88136">
        <ele>137</ele>
        <time>2020-03-16T01:50:34Z</time>
      </trkpt>
      <trkpt lat="46.93839" lon="-0.88108">
        <ele>138</ele>
        <time>2020-03-16T01:51:12Z</time>
      </trkpt>
      <trkpt lat="46.93805" lon="-0.88075">
        <ele>139</ele>
        <time>2020-03-16T01:52:06Z</time>
      </trkpt>
      <trkpt lat="46.93772" lon="-0.88051">
        <ele>140</ele>
        <time>2020-03-16T01:52:56Z</time>
      </trkpt>
      <trkpt lat="46.93761" lon="-0.88045">
        <ele>140</ele>
        <time>2020-03-16T01:53:11Z</time>
      </trkpt>
      <trkpt lat="46.93751" lon="-0.88031">
        <ele>140</ele>
        <time>2020-03-16T01:53:30Z</time>
      </trkpt>
      <trkpt lat="46.93747" lon="-0.88018">
        <ele>140</ele>
        <time>2020-03-16T01:53:43Z</time>
      </trkpt>
      <trkpt lat="46.93745" lon="-0.87993">
        <ele>139</ele>
        <time>2020-03-16T01:54:06Z</time>
      </trkpt>
      <trkpt lat="46.9373" lon="-0.8792">
        <ele>139</ele>
        <time>2020-03-16T01:55:15Z</time>
      </trkpt>
      <trkpt lat="46.93719" lon="-0.87894">
        <ele>139</ele>
        <time>2020-03-16T01:55:43Z</time>
      </trkpt>
      <trkpt lat="46.93687" lon="-0.87834">
        <ele>140</ele>
        <time>2020-03-16T01:56:52Z</time>
      </trkpt>
      <trkpt lat="46.93676" lon="-0.87806">
        <ele>140</ele>
        <time>2020-03-16T01:57:22Z</time>
      </trkpt>
      <trkpt lat="46.93665" lon="-0.87747">
        <ele>141</ele>
        <time>2020-03-16T01:58:18Z</time>
      </trkpt>
      <trkpt lat="46.9366" lon="-0.87705">
        <ele>140</ele>
        <time>2020-03-16T01:58:56Z</time>
      </trkpt>
      <trkpt lat="46.93654" lon="-0.87683">
        <ele>139</ele>
        <time>2020-03-16T01:59:18Z</time>
      </trkpt>
      <trkpt lat="46.93642" lon="-0.87662">
        <ele>138</ele>
        <time>2020-03-16T01:59:43Z</time>
      </trkpt>
      <trkpt lat="46.93529" lon="-0.87563">
        <ele>134</ele>
        <time>2020-03-16T02:02:39Z</time>
      </trkpt>
      <trkpt lat="46.93506" lon="-0.87539">
        <ele>135</ele>
        <time>2020-03-16T02:03:16Z</time>
      </trkpt>
      <trkpt lat="46.93495" lon="-0.87519">
        <ele>136</ele>
        <time>2020-03-16T02:03:40Z</time>
      </trkpt>
      <trkpt lat="46.93491" lon="-0.87498">
        <ele>137</ele>
        <time>2020-03-16T02:04:00Z</time>
      </trkpt>
      <trkpt lat="46.93473" lon="-0.87498">
        <ele>136</ele>
        <time>2020-03-16T02:04:24Z</time>
      </trkpt>
      <trkpt lat="46.93464" lon="-0.87504">
        <ele>136</ele>
        <time>2020-03-16T02:04:37Z</time>
      </trkpt>
      <trkpt lat="46.93435" lon="-0.87543">
        <ele>134</ele>
        <time>2020-03-16T02:05:29Z</time>
      </trkpt>
      <trkpt lat="46.93417" lon="-0.87553">
        <ele>134</ele>
        <time>2020-03-16T02:05:55Z</time>
      </trkpt>
      <trkpt lat="46.93344" lon="-0.8756">
        <ele>137</ele>
        <time>2020-03-16T02:07:33Z</time>
      </trkpt>
      <trkpt lat="46.93335" lon="-0.87545">
        <ele>137</ele>
        <time>2020-03-16T02:07:51Z</time>
      </trkpt>
      <trkpt lat="46.93326" lon="-0.87506">
        <ele>138</ele>
        <time>2020-03-16T02:08:28Z</time>
      </trkpt>
      <trkpt lat="46.93322" lon="-0.87481">
        <ele>138</ele>
        <time>2020-03-16T02:08:52Z</time>
      </trkpt>
      <trkpt lat="46.93324" lon="-0.87455">
        <ele>138</ele>
        <time>2020-03-16T02:09:16Z</time>
      </trkpt>
      <trkpt lat="46.93333" lon="-0.87422">
        <ele>138</ele>
        <time>2020-03-16T02:09:48Z</time>
      </trkpt>
      <trkpt lat="46.9335" lon="-0.87375">
        <ele>137</ele>
        <time>2020-03-16T02:10:36Z</time>
      </trkpt>
      <trkpt lat="46.93351" lon="-0.87375">
        <ele>137</ele>
        <time>2020-03-16T02:10:38Z</time>
      </trkpt>
      <trkpt lat="46.93354" lon="-0.87362">
        <ele>136</ele>
        <time>2020-03-16T02:10:50Z</time>
      </trkpt>
      <trkpt lat="46.93354" lon="-0.87362">
        <ele>136</ele>
        <time>2020-03-16T02:10:50Z</time>
      </trkpt>
      <trkpt lat="46.93346" lon="-0.87343">
        <ele>137</ele>
        <time>2020-03-16T02:11:11Z</time>
      </trkpt>
      <trkpt lat="46.93346" lon="-0.87343">
        <ele>137</ele>
        <time>2020-03-16T02:11:11Z</time>
      </trkpt>
      <trkpt lat="46.93365" lon="-0.87298">
        <ele>135</ele>
        <time>2020-03-16T02:11:59Z</time>
      </trkpt>
      <trkpt lat="46.93365" lon="-0.87299">
        <ele>135</ele>
        <time>2020-03-16T02:12:00Z</time>
      </trkpt>
      <trkpt lat="46.9337" lon="-0.87288">
        <ele>134</ele>
        <time>2020-03-16T02:12:12Z</time>
      </trkpt>
      <trkpt lat="46.93373" lon="-0.87263">
        <ele>134</ele>
        <time>2020-03-16T02:12:35Z</time>
      </trkpt>
      <trkpt lat="46.9338" lon="-0.87237">
        <ele>133</ele>
        <time>2020-03-16T02:13:00Z</time>
      </trkpt>
      <trkpt lat="46.9338" lon="-0.87225">
        <ele>132</ele>
        <time>2020-03-16T02:13:11Z</time>
      </trkpt>
      <trkpt lat="46.93376" lon="-0.87216">
        <ele>131</ele>
        <time>2020-03-16T02:13:21Z</time>
      </trkpt>
      <trkpt lat="46.9336" lon="-0.87211">
        <ele>132</ele>
        <time>2020-03-16T02:13:43Z</time>
      </trkpt>
      <trkpt lat="46.9334" lon="-0.87202">
        <ele>132</ele>
        <time>2020-03-16T02:14:11Z</time>
      </trkpt>
      <trkpt lat="46.9333" lon="-0.87188">
        <ele>131</ele>
        <time>2020-03-16T02:14:29Z</time>
      </trkpt>
      <trkpt lat="46.93316" lon="-0.87118">
        <ele>127</ele>
        <time>2020-03-16T02:15:36Z</time>
      </trkpt>
      <trkpt lat="46.93301" lon="-0.87086">
        <ele>125</ele>
        <time>2020-03-16T02:16:11Z</time>
      </trkpt>
      <trkpt lat="46.93282" lon="-0.86995">
        <ele>120</ele>
        <time>2020-03-16T02:17:38Z</time>
      </trkpt>
      <trkpt lat="46.93272" lon="-0.86964">
        <ele>120</ele>
        <time>2020-03-16T02:18:09Z</time>
      </trkpt>
      <trkpt lat="46.93263" lon="-0.86958">
        <ele>120</ele>
        <time>2020-03-16T02:18:22Z</time>
      </trkpt>
      <trkpt lat="46.93244" lon="-0.86951">
        <ele>121</ele>
        <time>2020-03-16T02:18:48Z</time>
      </trkpt>
      <trkpt lat="46.93169" lon="-0.8694">
        <ele>122</ele>
        <time>2020-03-16T02:20:29Z</time>
      </trkpt>
      <trkpt lat="46.9314" lon="-0.86945">
        <ele>124</ele>
        <time>2020-03-16T02:21:08Z</time>
      </trkpt>
      <trkpt lat="46.93116" lon="-0.86938">
        <ele>126</ele>
        <time>2020-03-16T02:21:41Z</time>
      </trkpt>
      <trkpt lat="46.93097" lon="-0.86936">
        <ele>128</ele>
        <time>2020-03-16T02:22:06Z</time>
      </trkpt>
      <trkpt lat="46.93052" lon="-0.86946">
        <ele>132</ele>
        <time>2020-03-16T02:23:07Z</time>
      </trkpt>
      <trkpt lat="46.93032" lon="-0.86949">
        <ele>134</ele>
        <time>2020-03-16T02:23:34Z</time>
      </trkpt>
      <trkpt lat="46.93018" lon="-0.86947">
        <ele>135</ele>
        <time>2020-03-16T02:23:52Z</time>
      </trkpt>
      <trkpt lat="46.92998" lon="-0.86933">
        <ele>136</ele>
        <time>2020-03-16T02:24:22Z</time>
      </trkpt>
      <trkpt lat="46.92969" lon="-0.86908">
        <ele>132</ele>
        <time>2020-03-16T02:25:07Z</time>
      </trkpt>
      <trkpt lat="46.92953" lon="-0.86901">
        <ele>130</ele>
        <time>2020-03-16T02:25:29Z</time>
      </trkpt>
      <trkpt lat="46.92938" lon="-0.86905">
        <ele>129</ele>
        <time>2020-03-16T02:25:50Z</time>
      </trkpt>
      <trkpt lat="46.92908" lon="-0.86939">
        <ele>128</ele>
        <time>2020-03-16T02:26:40Z</time>
      </trkpt>
      <trkpt lat="46.92885" lon="-0.86987">
        <ele>127</ele>
        <time>2020-03-16T02:27:34Z</time>
      </trkpt>
      <trkpt lat="46.92883" lon="-0.87003">
        <ele>127</ele>
        <time>2020-03-16T02:27:48Z</time>
      </trkpt>
      <trkpt lat="46.92888" lon="-0.87017">
        <ele>128</ele>
        <time>2020-03-16T02:28:03Z</time>
      </trkpt>
      <trkpt lat="46.92902" lon="-0.87041">
        <ele>129</ele>
        <time>2020-03-16T02:28:32Z</time>
      </trkpt>
      <trkpt lat="46.9291" lon="-0.87061">
        <ele>129</ele>
        <time>2020-03-16T02:28:53Z</time>
      </trkpt>
      <trkpt lat="46.92914" lon="-0.87085">
        <ele>130</ele>
        <time>2020-03-16T02:29:15Z</time>
      </trkpt>
      <trkpt lat="46.92915" lon="-0.87127">
        <ele>130</ele>
        <time>2020-03-16T02:29:54Z</time>
      </trkpt>
      <trkpt lat="46.92914" lon="-0.87155">
        <ele>131</ele>
        <time>2020-03-16T02:30:19Z</time>
      </trkpt>
      <trkpt lat="46.92907" lon="-0.87185">
        <ele>130</ele>
        <time>2020-03-16T02:30:48Z</time>
      </trkpt>
      <trkpt lat="46.92875" lon="-0.87278">
        <ele>127</ele>
        <time>2020-03-16T02:32:23Z</time>
      </trkpt>
      <trkpt lat="46.92864" lon="-0.87304">
        <ele>127</ele>
        <time>2020-03-16T02:32:51Z</time>
      </trkpt>
      <trkpt lat="46.9285" lon="-0.87323">
        <ele>127</ele>
        <time>2020-03-16T02:33:16Z</time>
      </trkpt>
      <trkpt lat="46.92839" lon="-0.87331">
        <ele>126</ele>
        <time>2020-03-16T02:33:33Z</time>
      </trkpt>
      <trkpt lat="46.92828" lon="-0.87334">
        <ele>126</ele>
        <time>2020-03-16T02:33:48Z</time>
      </trkpt>
      <trkpt lat="46.92768" lon="-0.87295">
        <ele>125</ele>
        <time>2020-03-16T02:35:15Z</time>
      </trkpt>
      <trkpt lat="46.92752" lon="-0.87276">
        <ele>123</ele>
        <time>2020-03-16T02:35:43Z</time>
      </trkpt>
      <trkpt lat="46.92738" lon="-0.87255">
        <ele>122</ele>
        <time>2020-03-16T02:36:09Z</time>
      </trkpt>
      <trkpt lat="46.92718" lon="-0.87237">
        <ele>122</ele>
        <time>2020-03-16T02:36:41Z</time>
      </trkpt>
      <trkpt lat="46.92699" lon="-0.87227">
        <ele>123</ele>
        <time>2020-03-16T02:37:08Z</time>
      </trkpt>
      <trkpt lat="46.92685" lon="-0.87223">
        <ele>123</ele>
        <time>2020-03-16T02:37:27Z</time>
      </trkpt>
      <trkpt lat="46.92674" lon="-0.87227">
        <ele>123</ele>
        <time>2020-03-16T02:37:42Z</time>
      </trkpt>
      <trkpt lat="46.92663" lon="-0.87238">
        <ele>123</ele>
        <time>2020-03-16T02:38:00Z</time>
      </trkpt>
      <trkpt lat="46.92644" lon="-0.87275">
        <ele>124</ele>
        <time>2020-03-16T02:38:42Z</time>
      </trkpt>
      <trkpt lat="46.92629" lon="-0.87298">
        <ele>125</ele>
        <time>2020-03-16T02:39:11Z</time>
      </trkpt>
      <trkpt lat="46.92614" lon="-0.87312">
        <ele>125</ele>
        <time>2020-03-16T02:39:34Z</time>
      </trkpt>
      <trkpt lat="46.92597" lon="-0.87318">
        <ele>125</ele>
        <time>2020-03-16T02:39:58Z</time>
      </trkpt>
      <trkpt lat="46.92572" lon="-0.87314">
        <ele>125</ele>
        <time>2020-03-16T02:40:31Z</time>
      </trkpt>
      <trkpt lat="46.92535" lon="-0.87289">
        <ele>126</ele>
        <time>2020-03-16T02:41:26Z</time>
      </trkpt>
      <trkpt lat="46.92535" lon="-0.8729">
        <ele>126</ele>
        <time>2020-03-16T02:41:27Z</time>
      </trkpt>
      <trkpt lat="46.92528" lon="-0.87385">
        <ele>129</ele>
        <time>2020-03-16T02:42:54Z</time>
      </trkpt>
      <trkpt lat="46.92528" lon="-0.87385">
        <ele>129</ele>
        <time>2020-03-16T02:42:54Z</time>
      </trkpt>
      <trkpt lat="46.92372" lon="-0.87415">
        <ele>133</ele>
        <time>2020-03-16T02:46:24Z</time>
      </trkpt>
      <trkpt lat="46.92372" lon="-0.87415">
        <ele>133</ele>
        <time>2020-03-16T02:46:24Z</time>
      </trkpt>
      <trkpt lat="46.92363" lon="-0.87432">
        <ele>135</ele>
        <time>2020-03-16T02:46:43Z</time>
      </trkpt>
      <trkpt lat="46.92362" lon="-0.87432">
        <ele>135</ele>
        <time>2020-03-16T02:46:45Z</time>
      </trkpt>
      <trkpt lat="46.92287" lon="-0.87451">
        <ele>134</ele>
        <time>2020-03-16T02:48:26Z</time>
      </trkpt>
      <trkpt lat="46.92251" lon="-0.87467">
        <ele>134</ele>
        <time>2020-03-16T02:49:16Z</time>
      </trkpt>
      <trkpt lat="46.92237" lon="-0.87466">
        <ele>135</ele>
        <time>2020-03-16T02:49:35Z</time>
      </trkpt>
      <trkpt lat="46.92222" lon="-0.87456">
        <ele>134</ele>
        <time>2020-03-16T02:49:57Z</time>
      </trkpt>
      <trkpt lat="46.92218" lon="-0.87449">
        <ele>133</ele>
        <time>2020-03-16T02:50:05Z</time>
      </trkpt>
      <trkpt lat="46.92221" lon="-0.87445">
        <ele>132</ele>
        <time>2020-03-16T02:50:11Z</time>
      </trkpt>
      <trkpt lat="46.9222" lon="-0.87418">
        <ele>128</ele>
        <time>2020-03-16T02:50:36Z</time>
      </trkpt>
      <trkpt lat="46.92217" lon="-0.87407">
        <ele>127</ele>
        <time>2020-03-16T02:50:46Z</time>
      </trkpt>
      <trkpt lat="46.92213" lon="-0.87401">
        <ele>128</ele>
        <time>2020-03-16T02:50:54Z</time>
      </trkpt>
      <trkpt lat="46.92186" lon="-0.87394">
        <ele>128</ele>
        <time>2020-03-16T02:51:31Z</time>
      </trkpt>
      <trkpt lat="46.92187" lon="-0.87392">
        <ele>128</ele>
        <time>2020-03-16T02:51:33Z</time>
      </trkpt>
      <trkpt lat="46.92145" lon="-0.87371">
        <ele>128</ele>
        <time>2020-03-16T02:52:32Z</time>
      </trkpt>
      <trkpt lat="46.92145" lon="-0.87371">
        <ele>128</ele>
        <time>2020-03-16T02:52:32Z</time>
      </trkpt>
      <trkpt lat="46.92142" lon="-0.8736">
        <ele>128</ele>
        <time>2020-03-16T02:52:43Z</time>
      </trkpt>
      <trkpt lat="46.92142" lon="-0.8734">
        <ele>127</ele>
        <time>2020-03-16T02:53:01Z</time>
      </trkpt>
      <trkpt lat="46.92114" lon="-0.87327">
        <ele>127</ele>
        <time>2020-03-16T02:53:40Z</time>
      </trkpt>
      <trkpt lat="46.92111" lon="-0.87326">
        <ele>128</ele>
        <time>2020-03-16T02:53:44Z</time>
      </trkpt>
      <trkpt lat="46.92091" lon="-0.87335">
        <ele>127</ele>
        <time>2020-03-16T02:54:12Z</time>
      </trkpt>
      <trkpt lat="46.92084" lon="-0.87332">
        <ele>127</ele>
        <time>2020-03-16T02:54:22Z</time>
      </trkpt>
      <trkpt lat="46.92079" lon="-0.87328">
        <ele>128</ele>
        <time>2020-03-16T02:54:30Z</time>
      </trkpt>
      <trkpt lat="46.92077" lon="-0.87331">
        <ele>128</ele>
        <time>2020-03-16T02:54:33Z</time>
      </trkpt>
      <trkpt lat="46.92063" lon="-0.87342">
        <ele>128</ele>
        <time>2020-03-16T02:54:55Z</time>
      </trkpt>
      <trkpt lat="46.92057" lon="-0.87347">
        <ele>129</ele>
        <time>2020-03-16T02:55:04Z</time>
      </trkpt>
      <trkpt lat="46.92037" lon="-0.87361">
        <ele>129</ele>
        <time>2020-03-16T02:55:33Z</time>
      </trkpt>
      <trkpt lat="46.92003" lon="-0.87377">
        <ele>129</ele>
        <time>2020-03-16T02:56:21Z</time>
      </trkpt>
      <trkpt lat="46.9199" lon="-0.87389">
        <ele>130</ele>
        <time>2020-03-16T02:56:42Z</time>
      </trkpt>
      <trkpt lat="46.91952" lon="-0.87437">
        <ele>130</ele>
        <time>2020-03-16T02:57:49Z</time>
      </trkpt>
      <trkpt lat="46.91936" lon="-0.87445">
        <ele>130</ele>
        <time>2020-03-16T02:58:11Z</time>
      </trkpt>
      <trkpt lat="46.91921" lon="-0.87444">
        <ele>130</ele>
        <time>2020-03-16T02:58:31Z</time>
      </trkpt>
      <trkpt lat="46.91897" lon="-0.8745">
        <ele>129</ele>
        <time>2020-03-16T02:59:04Z</time>
      </trkpt>
      <trkpt lat="46.91856" lon="-0.87449">
        <ele>127</ele>
        <time>2020-03-16T02:59:58Z</time>
      </trkpt>
      <trkpt lat="46.91819" lon="-0.87453">
        <ele>126</ele>
        <time>2020-03-16T03:00:48Z</time>
      </trkpt>
      <trkpt lat="46.91785" lon="-0.87454">
        <ele>126</ele>
        <time>2020-03-16T03:01:33Z</time>
      </trkpt>
      <trkpt lat="46.91754" lon="-0.87448">
        <ele>125</ele>
        <time>2020-03-16T03:02:15Z</time>
      </trkpt>
      <trkpt lat="46.91729" lon="-0.8745">
        <ele>126</ele>
        <time>2020-03-16T03:02:48Z</time>
      </trkpt>
      <trkpt lat="46.91672" lon="-0.87417">
        <ele>124</ele>
        <time>2020-03-16T03:04:10Z</time>
      </trkpt>
      <trkpt lat="46.91647" lon="-0.87407">
        <ele>125</ele>
        <time>2020-03-16T03:04:45Z</time>
      </trkpt>
      <trkpt lat="46.91632" lon="-0.87396">
        <ele>126</ele>
        <time>2020-03-16T03:05:07Z</time>
      </trkpt>
      <trkpt lat="46.91623" lon="-0.87382">
        <ele>126</ele>
        <time>2020-03-16T03:05:25Z</time>
      </trkpt>
      <trkpt lat="46.9162" lon="-0.87368">
        <ele>125</ele>
        <time>2020-03-16T03:05:38Z</time>
      </trkpt>
      <trkpt lat="46.91611" lon="-0.87353">
        <ele>125</ele>
        <time>2020-03-16T03:05:56Z</time>
      </trkpt>
      <trkpt lat="46.91598" lon="-0.87344">
        <ele>125</ele>
        <time>2020-03-16T03:06:15Z</time>
      </trkpt>
      <trkpt lat="46.91569" lon="-0.87309">
        <ele>124</ele>
        <time>2020-03-16T03:07:06Z</time>
      </trkpt>
      <trkpt lat="46.91537" lon="-0.87264">
        <ele>124</ele>
        <time>2020-03-16T03:08:05Z</time>
      </trkpt>
      <trkpt lat="46.91516" lon="-0.87225">
        <ele>124</ele>
        <time>2020-03-16T03:08:50Z</time>
      </trkpt>
      <trkpt lat="46.91504" lon="-0.87189">
        <ele>124</ele>
        <time>2020-03-16T03:09:27Z</time>
      </trkpt>
      <trkpt lat="46.9149" lon="-0.8714">
        <ele>125</ele>
        <time>2020-03-16T03:10:15Z</time>
      </trkpt>
      <trkpt lat="46.91477" lon="-0.87112">
        <ele>125</ele>
        <time>2020-03-16T03:10:46Z</time>
      </trkpt>
      <trkpt lat="46.91457" lon="-0.87084">
        <ele>125</ele>
        <time>2020-03-16T03:11:23Z</time>
      </trkpt>
      <trkpt lat="46.91434" lon="-0.87058">
        <ele>126</ele>
        <time>2020-03-16T03:12:02Z</time>
      </trkpt>
      <trkpt lat="46.91419" lon="-0.87045">
        <ele>126</ele>
        <time>2020-03-16T03:12:25Z</time>
      </trkpt>
      <trkpt lat="46.91411" lon="-0.87039">
        <ele>126</ele>
        <time>2020-03-16T03:12:37Z</time>
      </trkpt>
      <trkpt lat="46.91353" lon="-0.87005">
        <ele>126</ele>
        <time>2020-03-16T03:14:00Z</time>
      </trkpt>
      <trkpt lat="46.9134" lon="-0.86983">
        <ele>126</ele>
        <time>2020-03-16T03:14:27Z</time>
      </trkpt>
      <trkpt lat="46.91335" lon="-0.86965">
        <ele>126</ele>
        <time>2020-03-16T03:14:44Z</time>
      </trkpt>
      <trkpt lat="46.91336" lon="-0.86943">
        <ele>126</ele>
        <time>2020-03-16T03:15:05Z</time>
      </trkpt>
      <trkpt lat="46.91338" lon="-0.86932">
        <ele>127</ele>
        <time>2020-03-16T03:15:15Z</time>
      </trkpt>
      <trkpt lat="46.91343" lon="-0.86923">
        <ele>127</ele>
        <time>2020-03-16T03:15:26Z</time>
      </trkpt>
      <trkpt lat="46.91343" lon="-0.86914">
        <ele>128</ele>
        <time>2020-03-16T03:15:34Z</time>
      </trkpt>
      <trkpt lat="46.91331" lon="-0.86901">
        <ele>128</ele>
        <time>2020-03-16T03:15:54Z</time>
      </trkpt>
      <trkpt lat="46.91321" lon="-0.86887">
        <ele>129</ele>
        <time>2020-03-16T03:16:12Z</time>
      </trkpt>
      <trkpt lat="46.9131" lon="-0.86882">
        <ele>129</ele>
        <time>2020-03-16T03:16:27Z</time>
      </trkpt>
      <trkpt lat="46.91298" lon="-0.8688">
        <ele>129</ele>
        <time>2020-03-16T03:16:44Z</time>
      </trkpt>
      <trkpt lat="46.91285" lon="-0.86875">
        <ele>129</ele>
        <time>2020-03-16T03:17:02Z</time>
      </trkpt>
      <trkpt lat="46.91258" lon="-0.86873">
        <ele>129</ele>
        <time>2020-03-16T03:17:38Z</time>
      </trkpt>
      <trkpt lat="46.91245" lon="-0.86862">
        <ele>130</ele>
        <time>2020-03-16T03:17:58Z</time>
      </trkpt>
      <trkpt lat="46.91226" lon="-0.8684">
        <ele>130</ele>
        <time>2020-03-16T03:18:30Z</time>
      </trkpt>
      <trkpt lat="46.91203" lon="-0.86799">
        <ele>131</ele>
        <time>2020-03-16T03:19:18Z</time>
      </trkpt>
      <trkpt lat="46.91201" lon="-0.86788">
        <ele>131</ele>
        <time>2020-03-16T03:19:29Z</time>
      </trkpt>
      <trkpt lat="46.91203" lon="-0.86781">
        <ele>131</ele>
        <time>2020-03-16T03:19:36Z</time>
      </trkpt>
      <trkpt lat="46.91193" lon="-0.86766">
        <ele>131</ele>
        <time>2020-03-16T03:19:55Z</time>
      </trkpt>
      <trkpt lat="46.91187" lon="-0.86754">
        <ele>131</ele>
        <time>2020-03-16T03:20:08Z</time>
      </trkpt>
      <trkpt lat="46.91184" lon="-0.86748">
        <ele>131</ele>
        <time>2020-03-16T03:20:15Z</time>
      </trkpt>
      <trkpt lat="46.91179" lon="-0.86741">
        <ele>131</ele>
        <time>2020-03-16T03:20:24Z</time>
      </trkpt>
      <trkpt lat="46.91175" lon="-0.86736">
        <ele>131</ele>
        <time>2020-03-16T03:20:31Z</time>
      </trkpt>
      <trkpt lat="46.91172" lon="-0.8673">
        <ele>131</ele>
        <time>2020-03-16T03:20:38Z</time>
      </trkpt>
      <trkpt lat="46.91159" lon="-0.8674">
        <ele>130</ele>
        <time>2020-03-16T03:20:58Z</time>
      </trkpt>
      <trkpt lat="46.91148" lon="-0.86737">
        <ele>130</ele>
        <time>2020-03-16T03:21:13Z</time>
      </trkpt>
      <trkpt lat="46.9114" lon="-0.86728">
        <ele>130</ele>
        <time>2020-03-16T03:21:26Z</time>
      </trkpt>
      <trkpt lat="46.91124" lon="-0.86716">
        <ele>130</ele>
        <time>2020-03-16T03:21:50Z</time>
      </trkpt>
      <trkpt lat="46.91119" lon="-0.867">
        <ele>130</ele>
        <time>2020-03-16T03:22:06Z</time>
      </trkpt>
      <trkpt lat="46.91116" lon="-0.86683">
        <ele>130</ele>
        <time>2020-03-16T03:22:22Z</time>
      </trkpt>
      <trkpt lat="46.91123" lon="-0.86679">
        <ele>131</ele>
        <time>2020-03-16T03:22:32Z</time>
      </trkpt>
      <trkpt lat="46.91122" lon="-0.86644">
        <ele>132</ele>
        <time>2020-03-16T03:23:04Z</time>
      </trkpt>
      <trkpt lat="46.91118" lon="-0.86643">
        <ele>131</ele>
        <time>2020-03-16T03:23:10Z</time>
      </trkpt>
      <trkpt lat="46.91116" lon="-0.86609">
        <ele>131</ele>
        <time>2020-03-16T03:23:41Z</time>
      </trkpt>
      <trkpt lat="46.91108" lon="-0.86572">
        <ele>132</ele>
        <time>2020-03-16T03:24:16Z</time>
      </trkpt>
      <trkpt lat="46.911" lon="-0.86559">
        <ele>132</ele>
        <time>2020-03-16T03:24:32Z</time>
      </trkpt>
      <trkpt lat="46.91117" lon="-0.86532">
        <ele>136</ele>
        <time>2020-03-16T03:25:05Z</time>
      </trkpt>
      <trkpt lat="46.91121" lon="-0.86529">
        <ele>136</ele>
        <time>2020-03-16T03:25:11Z</time>
      </trkpt>
      <trkpt lat="46.91102" lon="-0.86451">
        <ele>144</ele>
        <time>2020-03-16T03:26:27Z</time>
      </trkpt>
      <trkpt lat="46.91095" lon="-0.86402">
        <ele>149</ele>
        <time>2020-03-16T03:27:13Z</time>
      </trkpt>
      <trkpt lat="46.91096" lon="-0.86402">
        <ele>149</ele>
        <time>2020-03-16T03:27:14Z</time>
      </trkpt>
      <trkpt lat="46.91085" lon="-0.86387">
        <ele>149</ele>
        <time>2020-03-16T03:27:34Z</time>
      </trkpt>
      <trkpt lat="46.91085" lon="-0.86386">
        <ele>149</ele>
        <time>2020-03-16T03:27:35Z</time>
      </trkpt>
      <trkpt lat="46.91072" lon="-0.86383">
        <ele>150</ele>
        <time>2020-03-16T03:27:52Z</time>
      </trkpt>
      <trkpt lat="46.9107" lon="-0.86378">
        <ele>150</ele>
        <time>2020-03-16T03:27:58Z</time>
      </trkpt>
      <trkpt lat="46.91068" lon="-0.86377">
        <ele>150</ele>
        <time>2020-03-16T03:28:01Z</time>
      </trkpt>
      <trkpt lat="46.91046" lon="-0.86385">
        <ele>150</ele>
        <time>2020-03-16T03:28:31Z</time>
      </trkpt>
      <trkpt lat="46.91045" lon="-0.86379">
        <ele>151</ele>
        <time>2020-03-16T03:28:36Z</time>
      </trkpt>
      <trkpt lat="46.91043" lon="-0.86378">
        <ele>151</ele>
        <time>2020-03-16T03:28:39Z</time>
      </trkpt>
      <trkpt lat="46.91013" lon="-0.86387">
        <ele>151</ele>
        <time>2020-03-16T03:29:20Z</time>
      </trkpt>
      <trkpt lat="46.90998" lon="-0.86384">
        <ele>152</ele>
        <time>2020-03-16T03:29:40Z</time>
      </trkpt>
      <trkpt lat="46.90998" lon="-0.86384">
        <ele>152</ele>
        <time>2020-03-16T03:29:40Z</time>
      </trkpt>
      <trkpt lat="46.9097" lon="-0.86352">
        <ele>152</ele>
        <time>2020-03-16T03:30:28Z</time>
      </trkpt>
      <trkpt lat="46.9097" lon="-0.86352">
        <ele>152</ele>
        <time>2020-03-16T03:30:28Z</time>
      </trkpt>
      <trkpt lat="46.90961" lon="-0.86348">
        <ele>152</ele>
        <time>2020-03-16T03:30:40Z</time>
      </trkpt>
    </trkseg>
  </trk>
</gpx>